[[{"header":{"parameterUnit":"m.s-1","parameterCategory":1,"la1":30.6,"la2":29.2853,"lo1":-89.7004,"lo2":-87.6739,"dy":0.0162,"dx":0.0183,"nx":112,"ny":82,"refTime":"2024-02-22T18:00:00:Z","depth":0,"parameterNumber":2,"parameterNumberName":"U-component_of_WINDS"},"data":[0.0,0.0,0.0,0.0,0.0,0.0,0.0,0.0,0.0,0.0,0.0,0.0,0.0,0.0,0.0,0.0,0.0,0.0,0.0,0.0,0.0,0.0,0.0,0.0,0.0,0.0,0.0,0.0,0.0,0.0,0.0,0.0,0.0,0.0,0.0,0.0,0.0,0.0,0.0,0.0,0.0,0.0,0.0,0.0,0.0,0.0,0.0,0.0,0.0,0.0,0.0,0.0,0.0,0.0,0.0,0.0,0.0,0.0,0.0,0.0,0.0,0.0,0.0,0.0,0.0,0.0,0.0,0.0,0.0,0.0,0.0,0.0,0.0,0.0,0.0,0.0,0.0,0.0,0.0,0.0,0.0,0.0,0.0,0.0,0.0,0.0,0.0,0.0,0.0,0.0,-5.3969,-5.6417,-6.1973,-6.5243,-6.4666,-6.568,-6.3286,-5.6078,0.0,0.0,0.0,0.0,0.0,0.0,0.0,0.0,0.0,0.0,0.0,0.0,0.0,0.0,0.0,0.0,0.0,0.0,0.0,0.0,0.0,0.0,0.0,0.0,0.0,0.0,0.0,0.0,0.0,0.0,0.0,0.0,0.0,0.0,0.0,0.0,0.0,0.0,0.0,0.0,0.0,0.0,0.0,0.0,0.0,0.0,0.0,0.0,0.0,0.0,0.0,0.0,0.0,0.0,0.0,0.0,0.0,0.0,0.0,0.0,0.0,0.0,0.0,0.0,0.0,0.0,0.0,0.0,0.0,0.0,0.0,0.0,0.0,0.0,0.0,0.0,0.0,0.0,0.0,0.0,0.0,0.0,0.0,0.0,0.0,0.0,0.0,0.0,0.0,0.0,0.0,0.0,0.0,0.0,0.0,0.0,0.0,0.0,0.0,0.0,0.0,0.0,0.0,0.0,-5.4548,-6.0503,-6.2666,-6.3935,-6.4551,-6.2508,-5.9376,-5.5049,0.0,0.0,0.0,0.0,0.0,0.0,0.0,0.0,0.0,0.0,0.0,0.0,0.0,0.0,0.0,0.0,0.0,0.0,0.0,0.0,0.0,0.0,0.0,0.0,0.0,0.0,0.0,0.0,0.0,0.0,0.0,0.0,0.0,0.0,0.0,0.0,0.0,0.0,0.0,0.0,0.0,0.0,0.0,0.0,0.0,0.0,0.0,0.0,0.0,0.0,0.0,0.0,0.0,0.0,0.0,0.0,0.0,0.0,0.0,0.0,0.0,0.0,0.0,0.0,0.0,0.0,0.0,0.0,0.0,0.0,0.0,0.0,0.0,0.0,0.0,0.0,0.0,0.0,0.0,0.0,0.0,0.0,0.0,0.0,0.0,0.0,0.0,0.0,0.0,0.0,0.0,0.0,0.0,0.0,0.0,0.0,0.0,0.0,0.0,0.0,0.0,0.0,0.0,-5.2243,-5.4738,-6.0104,-6.1858,-6.2515,-6.218,-6.1325,-5.873,-5.3891,-5.4818,0.0,0.0,0.0,0.0,0.0,0.0,0.0,0.0,0.0,0.0,0.0,0.0,0.0,0.0,0.0,0.0,0.0,0.0,0.0,0.0,0.0,0.0,0.0,0.0,0.0,0.0,0.0,0.0,0.0,0.0,0.0,0.0,0.0,0.0,0.0,0.0,0.0,0.0,0.0,0.0,0.0,0.0,0.0,0.0,0.0,0.0,0.0,0.0,0.0,0.0,0.0,0.0,0.0,0.0,0.0,0.0,0.0,0.0,0.0,0.0,0.0,0.0,0.0,0.0,0.0,0.0,0.0,0.0,0.0,0.0,0.0,0.0,0.0,0.0,0.0,0.0,0.0,0.0,0.0,0.0,0.0,0.0,0.0,0.0,0.0,0.0,0.0,0.0,0.0,0.0,0.0,0.0,0.0,0.0,0.0,0.0,0.0,0.0,0.0,0.0,0.0,0.0,-5.3416,-5.4775,-5.8502,-6.0559,-6.1006,-5.9481,-5.9604,-5.7542,-5.2427,-5.2322,0.0,0.0,0.0,0.0,0.0,0.0,0.0,0.0,0.0,0.0,0.0,0.0,0.0,0.0,0.0,0.0,0.0,0.0,0.0,0.0,0.0,0.0,0.0,0.0,0.0,0.0,0.0,0.0,0.0,0.0,0.0,0.0,0.0,0.0,0.0,0.0,0.0,0.0,0.0,0.0,0.0,0.0,0.0,0.0,0.0,0.0,0.0,0.0,0.0,0.0,0.0,0.0,0.0,0.0,0.0,0.0,0.0,0.0,0.0,0.0,0.0,0.0,0.0,0.0,0.0,0.0,0.0,0.0,0.0,0.0,0.0,0.0,0.0,0.0,0.0,0.0,0.0,0.0,0.0,0.0,0.0,0.0,0.0,0.0,0.0,0.0,0.0,0.0,0.0,0.0,0.0,0.0,0.0,0.0,0.0,0.0,0.0,0.0,0.0,0.0,0.0,0.0,-5.2456,-5.4699,-5.6942,-5.9003,-5.9443,-5.7386,-5.5746,-5.3553,-5.0542,-4.8898,0.0,0.0,0.0,0.0,0.0,0.0,0.0,0.0,0.0,0.0,0.0,0.0,0.0,0.0,0.0,0.0,0.0,0.0,0.0,0.0,0.0,0.0,0.0,0.0,0.0,0.0,0.0,0.0,0.0,0.0,0.0,0.0,0.0,0.0,0.0,0.0,0.0,0.0,0.0,0.0,0.0,0.0,0.0,0.0,0.0,0.0,0.0,0.0,0.0,0.0,0.0,0.0,0.0,0.0,0.0,0.0,0.0,0.0,0.0,0.0,0.0,0.0,0.0,0.0,0.0,0.0,0.0,0.0,0.0,0.0,0.0,0.0,0.0,0.0,0.0,0.0,0.0,0.0,0.0,0.0,0.0,0.0,0.0,0.0,0.0,0.0,0.0,0.0,0.0,0.0,0.0,0.0,0.0,0.0,0.0,0.0,0.0,0.0,0.0,0.0,0.0,0.0,-5.093,-5.3034,-5.5907,-5.7397,-5.7521,-5.5971,-5.472,-5.2601,-4.9233,0.0,0.0,0.0,0.0,0.0,0.0,0.0,0.0,0.0,0.0,0.0,0.0,0.0,0.0,0.0,0.0,0.0,0.0,0.0,0.0,0.0,0.0,0.0,0.0,0.0,0.0,0.0,0.0,0.0,0.0,0.0,0.0,0.0,0.0,0.0,0.0,0.0,0.0,0.0,0.0,0.0,0.0,0.0,0.0,0.0,0.0,0.0,0.0,0.0,0.0,0.0,0.0,0.0,0.0,0.0,0.0,0.0,0.0,0.0,0.0,0.0,0.0,0.0,0.0,0.0,0.0,0.0,0.0,0.0,0.0,0.0,0.0,0.0,0.0,0.0,0.0,0.0,0.0,0.0,0.0,0.0,0.0,0.0,0.0,0.0,0.0,0.0,0.0,0.0,0.0,0.0,0.0,0.0,0.0,0.0,0.0,0.0,0.0,0.0,0.0,0.0,0.0,-4.841,-4.9856,-5.1603,-5.4268,-5.5628,-5.5653,-5.3905,-5.2605,-5.0768,-4.8068,0.0,0.0,0.0,0.0,0.0,0.0,0.0,0.0,0.0,0.0,0.0,0.0,0.0,0.0,0.0,0.0,0.0,0.0,0.0,0.0,0.0,0.0,0.0,0.0,0.0,0.0,0.0,0.0,0.0,0.0,0.0,0.0,0.0,0.0,0.0,0.0,0.0,0.0,0.0,0.0,0.0,0.0,0.0,0.0,0.0,0.0,0.0,0.0,0.0,0.0,0.0,0.0,0.0,0.0,0.0,0.0,0.0,0.0,0.0,0.0,0.0,0.0,0.0,0.0,0.0,0.0,0.0,0.0,0.0,0.0,0.0,0.0,0.0,0.0,0.0,0.0,0.0,0.0,0.0,0.0,0.0,0.0,0.0,0.0,0.0,0.0,0.0,0.0,0.0,0.0,0.0,0.0,0.0,0.0,0.0,0.0,0.0,0.0,0.0,0.0,0.0,0.0,-4.7865,-4.9396,-5.0635,-5.1875,-5.3827,-5.3886,-5.1026,-4.8808,-4.7436,0.0,0.0,0.0,0.0,0.0,0.0,0.0,0.0,0.0,0.0,0.0,0.0,0.0,0.0,0.0,0.0,0.0,0.0,0.0,0.0,0.0,0.0,0.0,0.0,0.0,0.0,0.0,0.0,0.0,0.0,0.0,0.0,0.0,0.0,0.0,0.0,0.0,0.0,0.0,0.0,0.0,0.0,0.0,0.0,0.0,0.0,0.0,0.0,0.0,0.0,0.0,0.0,0.0,0.0,0.0,0.0,0.0,0.0,0.0,0.0,0.0,0.0,0.0,0.0,0.0,0.0,0.0,0.0,0.0,0.0,0.0,0.0,0.0,0.0,0.0,0.0,0.0,0.0,0.0,0.0,0.0,0.0,0.0,0.0,0.0,0.0,0.0,0.0,0.0,0.0,0.0,0.0,0.0,0.0,0.0,0.0,0.0,0.0,0.0,0.0,0.0,0.0,0.0,-4.7113,-4.7795,-4.8827,-5.0932,-5.1182,-5.0632,-4.917,-4.6911,-4.5531,-4.5406,0.0,0.0,0.0,0.0,0.0,0.0,0.0,0.0,0.0,0.0,0.0,0.0,0.0,0.0,0.0,0.0,0.0,0.0,0.0,0.0,0.0,0.0,0.0,0.0,0.0,0.0,0.0,0.0,0.0,0.0,0.0,0.0,0.0,0.0,0.0,0.0,0.0,0.0,0.0,0.0,0.0,0.0,0.0,0.0,0.0,0.0,0.0,0.0,0.0,0.0,0.0,0.0,0.0,0.0,0.0,0.0,0.0,0.0,0.0,0.0,0.0,0.0,0.0,0.0,0.0,0.0,0.0,0.0,0.0,0.0,0.0,0.0,0.0,0.0,0.0,0.0,0.0,0.0,0.0,0.0,0.0,0.0,0.0,0.0,0.0,0.0,0.0,0.0,0.0,0.0,0.0,0.0,0.0,0.0,0.0,0.0,0.0,0.0,0.0,0.0,0.0,0.0,-4.6782,-4.6819,-4.7462,-4.9591,-4.9077,-4.8269,-4.7425,-4.5736,-4.4562,-4.4232,0.0,0.0,0.0,0.0,0.0,0.0,0.0,0.0,0.0,0.0,0.0,0.0,0.0,0.0,0.0,0.0,0.0,0.0,0.0,0.0,0.0,0.0,0.0,0.0,0.0,0.0,0.0,0.0,0.0,0.0,0.0,0.0,0.0,0.0,0.0,0.0,0.0,0.0,0.0,0.0,0.0,0.0,0.0,0.0,0.0,0.0,0.0,0.0,0.0,0.0,0.0,0.0,0.0,0.0,0.0,0.0,0.0,0.0,0.0,0.0,0.0,0.0,0.0,0.0,0.0,0.0,0.0,0.0,0.0,0.0,0.0,0.0,0.0,0.0,0.0,0.0,0.0,0.0,0.0,0.0,0.0,0.0,0.0,0.0,0.0,0.0,0.0,0.0,0.0,0.0,0.0,0.0,0.0,0.0,0.0,0.0,0.0,0.0,0.0,0.0,0.0,0.0,-4.6599,-4.625,-4.6397,-4.7902,-4.7369,-4.6562,-4.5847,-4.5002,-4.4158,-4.3441,0.0,0.0,0.0,0.0,0.0,0.0,0.0,0.0,0.0,0.0,0.0,0.0,0.0,0.0,0.0,0.0,0.0,0.0,0.0,0.0,0.0,0.0,0.0,0.0,0.0,0.0,0.0,0.0,0.0,0.0,0.0,0.0,0.0,0.0,0.0,0.0,0.0,0.0,0.0,0.0,0.0,0.0,0.0,0.0,0.0,0.0,0.0,0.0,0.0,0.0,0.0,0.0,0.0,0.0,0.0,0.0,0.0,0.0,0.0,0.0,-6.9743,-7.0587,0.0,0.0,0.0,0.0,0.0,0.0,0.0,0.0,0.0,0.0,0.0,0.0,0.0,0.0,0.0,0.0,0.0,0.0,0.0,0.0,0.0,0.0,0.0,0.0,0.0,0.0,0.0,0.0,0.0,0.0,0.0,0.0,0.0,0.0,0.0,0.0,0.0,0.0,0.0,0.0,-4.5058,-4.5058,-4.5333,-4.6324,-4.57,-4.5131,-4.4966,-4.3644,-4.2727,-4.258,-4.2727,0.0,0.0,0.0,0.0,0.0,0.0,0.0,0.0,0.0,0.0,0.0,0.0,0.0,0.0,0.0,0.0,0.0,0.0,0.0,0.0,0.0,0.0,0.0,0.0,0.0,0.0,0.0,0.0,0.0,0.0,0.0,0.0,0.0,0.0,0.0,0.0,0.0,0.0,0.0,0.0,0.0,0.0,0.0,0.0,0.0,0.0,0.0,0.0,0.0,0.0,0.0,0.0,0.0,0.0,0.0,0.0,0.0,0.0,0.0,-6.9963,-6.9559,0.0,0.0,0.0,0.0,0.0,0.0,0.0,0.0,0.0,0.0,0.0,0.0,0.0,0.0,0.0,0.0,0.0,0.0,0.0,0.0,0.0,0.0,0.0,0.0,0.0,0.0,0.0,0.0,0.0,0.0,0.0,0.0,0.0,0.0,0.0,0.0,0.0,0.0,0.0,0.0,-4.4562,-4.4048,-4.4011,-4.5186,-4.4599,-4.4121,-4.4121,-4.3351,-4.2727,-4.2323,-4.2286,0.0,0.0,0.0,0.0,0.0,0.0,0.0,0.0,0.0,0.0,0.0,0.0,0.0,0.0,0.0,0.0,0.0,0.0,0.0,0.0,0.0,0.0,0.0,0.0,0.0,0.0,0.0,0.0,0.0,0.0,0.0,0.0,0.0,0.0,0.0,0.0,0.0,0.0,0.0,0.0,0.0,0.0,0.0,0.0,0.0,0.0,0.0,0.0,0.0,0.0,0.0,0.0,0.0,-7.2789,-7.3487,-7.4478,-7.3927,-7.2899,-7.1541,-7.1688,-6.9816,-6.6843,-6.8568,0.0,0.0,0.0,0.0,0.0,0.0,0.0,0.0,0.0,0.0,0.0,0.0,0.0,0.0,0.0,0.0,0.0,0.0,0.0,0.0,0.0,0.0,-5.238,-5.1536,-5.1242,-5.0362,-4.7516,0.0,0.0,0.0,0.0,0.0,0.0,0.0,0.0,0.0,0.0,0.0,-4.4121,-4.313,-4.2873,-4.4342,-4.3901,-4.3515,-4.3515,-4.3515,-4.3167,-4.2359,-4.2286,-4.2286,0.0,0.0,0.0,0.0,0.0,0.0,0.0,0.0,0.0,0.0,0.0,0.0,0.0,0.0,0.0,0.0,0.0,0.0,0.0,0.0,0.0,0.0,0.0,0.0,0.0,0.0,0.0,0.0,0.0,0.0,0.0,0.0,-6.6769,-6.7467,0.0,0.0,0.0,0.0,0.0,0.0,0.0,0.0,0.0,0.0,0.0,0.0,0.0,-7.1101,-7.2018,-7.2826,-7.2973,-7.2532,-7.3927,-7.3964,-7.2863,-7.3413,-7.3193,-7.2386,-7.3083,0.0,-6.7467,-6.6366,0.0,0.0,0.0,0.0,0.0,0.0,0.0,0.0,0.0,0.0,0.0,0.0,0.0,0.0,0.0,0.0,0.0,0.0,0.0,0.0,0.0,0.0,-4.9867,-4.9003,-4.8269,-4.7443,-4.6287,-4.7902,-4.8876,-4.6361,-4.5516,-4.4856,0.0,0.0,0.0,0.0,0.0,0.0,-4.258,-4.2433,-4.2653,-4.3534,-4.3534,-4.3515,-4.3515,-4.3515,-4.3167,-4.2359,-4.2286,-4.2286,-4.2286,-4.2286,0.0,0.0,0.0,0.0,0.0,0.0,0.0,0.0,0.0,0.0,0.0,0.0,0.0,0.0,0.0,0.0,0.0,0.0,0.0,0.0,0.0,0.0,0.0,0.0,0.0,0.0,0.0,0.0,0.0,-6.7173,-6.7797,-6.5888,-6.7981,-6.8898,0.0,0.0,0.0,0.0,0.0,0.0,0.0,0.0,0.0,-7.1431,-7.2679,-7.3927,-7.5212,-7.6019,-7.6497,-7.6607,-7.6864,-7.6607,-7.5909,-7.5799,-7.5542,-7.5249,-7.5579,-7.3964,-7.0917,-6.8862,-6.7393,-6.6329,0.0,0.0,0.0,0.0,-6.3135,-6.2743,-6.2401,-6.13,-6.0052,-6.0199,0.0,0.0,0.0,0.0,0.0,0.0,0.0,-5.2344,-5.1536,-5.0802,-5.0068,-4.9224,-4.9114,-4.8967,-4.8159,-4.8086,-4.7609,-4.5626,-4.5296,-4.4966,-4.3735,-4.2763,0.0,0.0,0.0,-4.0781,-4.2139,-4.1919,-4.2103,-4.3351,-4.3515,-4.3515,-4.3515,-4.3515,-4.3368,-4.2983,-4.2543,-4.2286,-4.2286,-4.2286,-4.2616,0.0,0.0,0.0,0.0,0.0,0.0,0.0,0.0,0.0,0.0,0.0,0.0,0.0,0.0,0.0,0.0,0.0,0.0,0.0,0.0,0.0,0.0,0.0,0.0,0.0,0.0,0.0,0.0,-6.7907,-6.8385,-6.453,-6.8201,-6.9889,0.0,0.0,0.0,0.0,0.0,0.0,-7.0403,-7.2349,-7.3707,-7.4368,-7.5726,-7.7157,-7.8552,-7.8993,-7.9507,-8.0094,-7.9066,-7.8589,-7.8552,-7.7708,-7.7273,-7.7273,-7.7273,-7.6166,-7.4111,-7.1505,-6.8972,-6.6659,-6.5044,-6.387,-6.3099,-6.2853,-6.267,-6.2475,-6.2254,-6.152,-6.0566,-6.0015,-5.8731,-5.7042,-5.5023,0.0,0.0,0.0,0.0,-5.1206,-5.0618,-5.0325,-5.0068,-4.9684,-4.9884,-4.9958,-4.9114,-4.7682,-4.6122,-4.4911,-4.4856,-4.4599,-4.3387,-4.2029,0.0,-4.1919,-4.0304,-3.9643,-4.1442,-4.1148,-4.1332,-4.2727,-4.2873,-4.2873,-4.2873,-4.3057,-4.3167,-4.3167,-4.28,-4.2506,-4.2323,-4.2506,-4.2506,-4.2286,0.0,0.0,0.0,0.0,0.0,0.0,0.0,0.0,0.0,0.0,0.0,0.0,0.0,0.0,0.0,0.0,0.0,0.0,0.0,0.0,0.0,0.0,0.0,0.0,0.0,0.0,0.0,0.0,0.0,-6.4494,-6.9669,0.0,0.0,0.0,0.0,-7.1146,-7.1872,-7.301,-7.4515,-7.5432,-7.7011,-7.936,-8.0241,-8.1122,-8.1929,-8.1232,-8.0901,-8.0938,-7.936,-7.8589,-7.8552,-7.7708,-7.7273,-7.7273,-7.7273,-7.6827,-7.5726,-7.2569,-6.9816,-6.7467,-6.5888,-6.4751,-6.3906,-6.3099,-6.2328,-6.1557,-6.0786,-5.9501,-5.8547,-6.075,-6.0382,-5.8487,-5.5354,-5.4363,0.0,0.0,-5.0288,-4.9627,-4.9647,-4.904,-4.8636,-4.9427,-4.9003,-4.8233,-4.7406,-4.5938,-4.4801,-4.4728,-4.3497,-4.247,-4.2359,0.0,-4.1095,-4.1132,-4.0414,-3.9863,-4.001,-3.9989,-4.0267,-4.1132,-4.1205,-4.1205,-4.1205,-4.1919,-4.2359,-4.2359,-4.302,-4.3094,-4.2323,-4.302,-4.3057,-4.2323,-4.3901,0.0,0.0,0.0,0.0,0.0,0.0,0.0,0.0,0.0,0.0,0.0,0.0,0.0,0.0,0.0,0.0,0.0,0.0,0.0,0.0,0.0,0.0,0.0,0.0,0.0,0.0,0.0,0.0,-6.9596,-7.3854,0.0,-7.2642,-7.3854,-7.4698,-7.4404,-7.5652,-7.69,-7.8002,-8.0277,-8.1966,-8.2847,-8.4168,-8.5013,-8.5306,-8.3985,-8.3324,-8.3287,-8.0645,-7.936,-7.9323,-7.7928,-7.7273,-7.7273,-7.6754,-7.6093,-7.5175,-7.2973,-7.1284,-6.9743,-6.71,-6.5595,-6.4714,-6.3319,-6.2622,-6.2254,-6.1447,-6.0456,-5.9355,-5.8107,-5.6638,-5.5023,-5.3371,-5.2491,-5.1903,-5.1059,-5.0178,-4.9574,-4.961,-4.893,-4.8379,-4.8673,-4.8122,-4.7443,-4.7149,-4.5828,-4.4691,-4.4691,-4.3828,-4.3057,-4.3057,-4.1992,-4.1279,-4.1809,-4.0304,-3.9496,-4.0561,-3.9929,-3.9826,-4.1005,-4.0545,-4.0402,-4.1046,-4.1044,-4.1138,-4.1519,-4.1809,-4.1846,-4.1535,-4.1809,-4.1809,-4.1552,-4.2823,-4.3652,0.0,0.0,0.0,0.0,0.0,0.0,0.0,0.0,0.0,0.0,0.0,0.0,0.0,0.0,0.0,0.0,0.0,0.0,0.0,0.0,0.0,0.0,0.0,0.0,0.0,-7.0881,-7.2826,-7.2532,-7.6827,-7.8736,-7.5983,-7.7451,-7.8332,-7.7781,-7.98,-8.1269,-8.1782,-8.4095,-8.5673,-8.6224,-8.6738,-8.7142,-8.7399,-8.5563,-8.4462,-8.4168,-8.1195,-7.9653,-7.9323,-7.7965,-7.7273,-7.7237,-7.646,-7.5506,-7.4404,-7.3046,-7.1872,-7.066,-6.8238,-6.6512,-6.5191,-6.4053,-6.3319,-6.2658,-6.1557,-6.0676,-5.9575,-5.6859,-5.5097,-5.3849,-5.3041,-5.2234,-5.1499,-5.0949,-5.0398,-4.9867,-4.9297,-4.871,-4.8306,-4.8306,-4.7498,-4.6709,-4.6709,-4.5443,-4.4305,-4.4305,-4.3864,-4.3515,-4.3515,-4.2396,-4.1682,-4.2213,-4.0487,-3.9412,-4.0291,-3.9402,-3.8974,-3.9709,-3.9422,-3.9401,-3.9989,-4.0436,-4.0672,-4.0675,-4.1222,-4.1258,-4.0744,-4.1205,-4.1389,-4.1095,-4.2358,-4.3362,-4.4066,0.0,0.0,0.0,0.0,0.0,0.0,0.0,0.0,0.0,0.0,0.0,0.0,0.0,0.0,0.0,0.0,0.0,0.0,0.0,0.0,0.0,0.0,0.0,-6.6623,-7.2129,-7.5285,-7.3083,-7.8442,-8.1048,-7.7861,-8.1163,-8.2884,-8.1305,-8.4095,-8.5894,-8.5894,-8.6664,-8.7802,-8.9308,-8.7876,-8.7399,-8.8133,-8.5783,-8.4168,-8.3361,-8.0938,-7.936,-7.8552,-7.7708,-7.7273,-7.72,-7.6423,-7.5139,-7.3597,-7.2789,-7.1468,-6.9963,-6.9192,-6.743,-6.5375,-6.5301,-6.42,-6.2487,-6.0933,-5.9832,-5.8891,-5.7336,-5.6271,-5.5427,-5.462,-5.3849,-5.2873,-5.1279,-5.0839,-5.0435,-4.8783,-4.8343,-4.8306,-4.8269,-4.7058,-4.5883,-4.5883,-4.4599,-4.3515,-4.3515,-4.3515,-4.3515,-4.3515,-4.2837,-4.2323,-4.2343,-4.0948,0.0,-3.9227,-3.8453,-3.7756,-3.73,-3.7893,-3.8192,-3.7986,-4.0041,-4.0926,-3.9942,-4.1368,-4.1515,-3.9937,-4.1368,-4.1846,-4.1128,-4.2707,-4.4066,-4.5174,0.0,0.0,0.0,0.0,0.0,0.0,0.0,0.0,0.0,0.0,0.0,0.0,0.0,0.0,0.0,0.0,0.0,0.0,0.0,0.0,0.0,-6.9333,-7.0684,-7.1566,-7.4258,-7.6937,-7.925,-8.2663,-8.4462,-8.3544,-8.5013,-8.5857,-8.538,-8.6701,-8.7802,-8.839,-8.8647,-8.8683,-8.8536,-8.8096,-8.7435,-8.6481,-8.5233,-8.3911,-8.2517,-8.0645,-7.936,-7.8552,-7.7708,-7.698,-7.6387,-7.5579,-7.4331,-7.2716,-7.1321,-6.9816,-6.8311,-6.8128,-6.7614,-6.6806,-6.5081,-6.2989,-6.0933,-5.9905,-5.9024,-5.818,-5.7152,-5.6271,-5.5427,-5.462,-5.3849,-5.3004,-5.1977,-5.1242,-5.0545,-4.9517,-4.8783,-4.8159,-4.7553,-4.6654,-4.5736,-4.5149,-4.4232,-4.3515,-4.3515,-4.3515,-4.3515,-4.3515,-4.3331,-4.3027,-4.2668,-4.1687,-4.0781,-4.0246,-3.9135,-3.8515,-3.8757,-3.8317,-3.8438,-3.9481,-3.9849,-4.0002,-3.9889,-4.0304,-4.0084,-3.9056,-3.946,-4.024,-4.1431,-4.2783,-4.3754,0.0,0.0,0.0,0.0,0.0,0.0,0.0,0.0,0.0,0.0,0.0,0.0,0.0,0.0,0.0,0.0,0.0,0.0,0.0,0.0,0.0,0.0,-7.1412,-7.3696,-7.6374,-7.7855,-7.98,-8.2847,-8.5049,-8.6297,-8.6297,-8.7362,-8.7876,-8.7545,-8.8573,-8.9417,-8.9895,-8.9271,-8.9014,-8.9197,-8.7912,-8.6921,-8.6297,-8.4829,-8.3287,-8.1672,-8.0388,-7.9176,-7.8038,-7.753,-7.6864,-7.6056,-7.5249,-7.3817,-7.1908,-7.0624,-6.8935,-6.7173,0.0,0.0,0.0,0.0,-6.1704,-5.9832,-5.9368,-5.8474,-5.7409,-5.6969,-5.6014,-5.4987,-5.4546,-5.3849,-5.2947,-5.183,-5.1169,-5.0545,-4.937,-4.8673,-4.8122,-4.7296,-4.6507,-4.5663,-4.4874,-4.4085,-4.3515,-4.3515,-4.3515,0.0,-4.3515,-4.3515,-4.3303,-4.277,-4.1952,-4.1144,-4.0348,-3.9295,-3.8633,-3.8768,-3.8527,-3.8791,-3.9825,-4.0237,0.0,0.0,0.0,-4.0708,-4.023,-4.0194,0.0,0.0,0.0,-4.3644,-4.3982,-4.3644,0.0,0.0,-4.4415,-4.4195,0.0,0.0,0.0,0.0,0.0,0.0,0.0,0.0,0.0,0.0,0.0,0.0,0.0,0.0,0.0,0.0,-7.3377,-7.5665,-8.0699,-8.2113,-8.3141,-8.4572,-8.6077,-8.6995,-8.6995,-8.839,-8.9014,-8.839,-8.9748,-9.0629,-9.0739,-8.9307,0.0,0.0,0.0,-8.6187,-8.6738,-8.4425,-8.248,-8.0865,-8.0057,-7.8846,-7.7273,-7.72,-7.6754,-7.5909,-7.5028,-7.334,-7.1101,-7.0183,-6.8348,-6.6072,-6.6072,-6.5154,-6.3613,-6.1924,-6.0419,-5.9184,-5.9074,0.0,0.0,-5.6712,-5.5647,-5.4363,-5.4179,-5.3628,-5.2747,-5.1132,-5.0655,-5.0288,-4.86,-4.8159,-4.792,-4.7039,-4.6287,-4.5553,-4.4745,-4.4011,-4.3497,-4.3445,-4.3391,-4.3374,-4.3321,-4.3356,-4.3232,-4.2674,-4.189,-4.0994,-3.9961,-3.9214,-3.8608,-3.8173,-3.8807,0.0,-3.9746,-4.1094,-4.1717,-4.1266,-4.1809,-4.2176,-4.2176,-4.2249,-4.2763,-4.381,-4.359,-4.3664,-4.3958,-4.3664,-4.3515,-4.3515,-4.3515,-4.3515,0.0,0.0,0.0,0.0,0.0,0.0,0.0,0.0,0.0,0.0,0.0,0.0,0.0,0.0,0.0,-7.4251,-7.6194,-7.8634,-8.327,-8.4609,-8.5196,-8.5527,-8.6407,-8.6995,-8.6995,-8.7876,-8.8647,-8.916,-9.0078,-9.0886,-9.1546,-9.0665,-9.0005,-8.9674,-8.7766,-8.6224,-8.5086,-8.3324,-8.1599,-8.0021,-7.9213,0.0,-7.7273,-7.6644,-7.5909,-7.5065,-7.3597,-7.1945,-7.022,-6.8752,-6.6329,-6.3539,-6.3539,-6.2915,-6.1887,-6.0272,-5.9478,-5.9111,-5.8474,-5.7593,-5.6712,-5.6051,-5.517,-5.4142,-5.2858,-5.2344,0.0,-5.0288,-4.9831,-4.9444,-4.7773,-4.7333,-4.6966,-4.5498,-4.5039,-4.4709,-4.3901,-4.3608,-4.3356,-4.2957,-4.2846,-4.2713,-4.2206,-4.2521,-4.2655,-4.2062,-4.1433,-4.077,-4.0114,-3.9914,-3.9763,-3.9673,-4.0206,-4.0758,-4.1322,-4.2083,-4.2391,-4.2106,-4.1609,-4.1315,-4.1315,-4.1956,-4.2393,-4.264,-4.3181,-4.3512,-4.3597,-4.3512,-4.3515,-4.3515,-4.3515,-4.3515,0.0,0.0,0.0,0.0,0.0,0.0,0.0,0.0,0.0,0.0,0.0,-6.5683,-6.6803,0.0,-7.1936,-7.6151,-7.8915,-8.1631,-8.4769,-8.5894,-8.6407,-8.6407,-8.6775,-8.6995,-8.6995,-8.8096,-8.8977,-8.9345,-9.0152,-9.0959,-9.1767,-9.0262,-8.9417,-8.9382,-8.7068,-8.5416,-8.4609,-8.259,-8.0975,-7.9764,-7.8993,-7.8148,-7.7273,-7.646,-7.5432,-7.4221,-7.301,-7.1358,-6.9339,-6.732,-6.5044,-6.2707,-6.1924,-6.1117,-6.0309,-5.9478,-5.8951,-5.8474,-5.7666,-5.6859,-5.6051,-5.5244,-5.4473,-5.3592,-5.238,-5.1977,-5.1667,-5.0051,-4.961,-4.9206,-4.7516,-4.7113,-4.6672,-4.5058,-4.4691,-4.4488,-4.3644,-4.3515,-4.3321,-4.2789,-4.2693,-4.2518,-4.1895,-4.181,-4.1703,-4.1385,-4.107,-4.0685,-4.0154,-4.0113,-4.0113,-4.0113,-4.0577,-4.1138,-4.1768,-4.2599,-4.3032,-4.2893,-4.2506,-4.2286,-4.2286,-4.269,-4.291,-4.291,-4.3294,-4.3515,-4.3515,-4.3515,-4.3515,-4.3515,-4.3515,-4.3515,0.0,0.0,0.0,0.0,0.0,0.0,0.0,0.0,-6.3345,-6.5197,-6.6297,-6.7384,-6.8811,-7.1541,-7.4608,-7.8018,-8.1061,-8.3698,-8.5756,-8.6591,-8.6958,-8.6811,-8.6921,-8.6995,-8.6995,-8.8316,-8.9197,-8.9197,-8.9931,-9.0665,-9.1289,-8.9491,-8.861,-8.8905,-8.6261,-8.4609,-8.4132,-8.1893,-8.0351,-7.9543,-7.8736,-7.7798,-7.6763,-7.6179,-7.4865,-7.3134,-7.2218,-7.044,-6.8054,-6.6109,-6.4127,-6.2193,-6.0933,-5.9832,-5.8964,-5.8964,-5.8547,-5.7886,-5.7079,-5.6271,-5.5464,-5.4656,-5.3849,-5.3041,-5.205,-5.1756,-5.1426,-4.9794,-4.9353,-4.9003,-4.748,-4.6966,-4.6489,-4.5058,-4.4599,-4.4305,-4.3644,-4.3445,-4.3196,-4.2635,-4.2422,-4.218,-4.1573,-4.1082,-4.078,-4.0897,-4.0803,-4.0601,-4.0154,-4.0113,-4.0129,-4.0254,-4.0767,-4.1362,-4.2083,-4.2995,-4.3515,-4.3515,-4.3515,-4.3515,-4.3515,-4.3515,-4.3515,-4.3515,-4.3515,-4.3515,-4.3515,-4.3515,-4.3515,-4.3515,-4.3515,-4.3515,-6.015,-5.9419,-5.893,-6.0723,-6.2022,-6.3715,0.0,0.0,-6.885,-7.1936,-7.1756,-7.1515,-7.3109,-7.4487,-7.6634,-8.0399,-8.1916,-8.3574,-8.6458,-8.6958,-8.6738,-8.6004,-8.6554,-8.6995,-8.6995,-8.7802,-8.8316,-8.8316,-8.9087,-8.9565,-8.9639,-8.9382,-8.8683,-8.7325,-8.6224,-8.4646,-8.248,-8.0755,-7.9507,-7.8699,-7.7855,-7.6601,-7.5011,-7.5024,-7.3684,-7.1286,-6.9908,-6.7944,-6.5705,-6.5411,-6.3466,-6.0639,-6.0493,-5.9465,-5.8143,-5.8143,-5.807,-5.7886,-5.7079,-5.6271,-5.5464,-5.4656,-5.3849,-5.2931,-5.1389,-5.0949,-5.0582,-4.893,-4.8453,-4.8233,-4.7333,-4.6562,-4.581,-4.4929,-4.4158,-4.3608,-4.3515,-4.3142,-4.2616,-4.2021,-4.1451,-4.092,-4.0368,-4.0229,-4.0343,-4.0827,-4.048,-4.0154,-4.0113,-4.0113,-4.0303,-4.0756,-4.1318,-4.2144,-4.3232,-4.3445,-4.3515,-4.3515,-4.3515,-4.3515,-4.3515,-4.3515,-4.3515,-4.3515,-4.3515,-4.3515,-4.3515,-4.3515,-4.3515,-4.3515,-4.3515,-4.3515,-6.0467,-6.0105,0.0,0.0,-6.3205,-6.5627,-6.8747,-7.016,-7.1579,-7.4297,-7.4945,-7.5377,-7.653,-7.7775,-7.9418,0.0,-8.3249,-8.4802,-8.6712,-8.6591,-8.6004,-8.5196,-8.5013,-8.527,-8.6224,-8.7435,-8.8206,-8.8206,-8.8977,-8.9382,-8.9382,-8.8501,-8.7692,-8.7031,-8.4866,-8.3214,-8.2186,-8.0131,-7.8919,-7.8589,-7.6688,-7.5429,-7.463,-7.2764,-7.0638,-6.8342,-6.7761,-6.6402,-6.4567,-6.4053,-6.2475,-6.0346,-5.9905,-5.8988,-5.7997,-5.7997,-5.7703,-5.7189,-5.6381,-5.5574,-5.4766,-5.3959,-5.3482,-5.2873,-5.1279,-5.0802,-5.0435,-4.8783,-4.8306,-4.8122,-4.7296,-4.6856,-4.6287,-4.4984,-4.42,-4.3596,-4.3123,-4.258,-4.2,-4.142,-4.1105,-4.0733,-4.0179,-4.0113,-4.0179,-4.0417,-4.0254,-4.0113,-4.0113,-4.0368,-4.092,-4.1853,-4.2144,-4.2638,-4.3409,-4.3515,-4.3515,-4.3515,-4.3515,-4.3515,-4.3515,-4.3515,-4.3515,-4.3515,-4.3515,-4.3515,-4.3515,-4.3515,-4.3515,-4.3515,-4.3515,-4.3515,-6.0325,0.0,0.0,-6.2127,-6.481,-6.8,-7.0727,-7.2935,-7.5012,-7.7225,-7.8095,-7.8607,-7.9133,-7.9983,-8.0917,-8.1891,-8.359,-8.5051,-8.5664,-8.5583,-8.4948,-8.3646,-8.3048,-8.3214,-8.4352,-8.593,-8.7068,-8.7509,-8.8096,-8.8426,-8.8426,-8.7325,-8.6371,-8.571,-8.3434,-8.1856,-8.1195,-7.947,-7.8369,-7.7892,-7.5713,-7.424,-7.3247,-7.0199,-6.7912,-6.6398,-6.6446,-6.5448,-6.3686,-6.3062,-6.1741,-6.0015,-5.9404,-5.8731,-5.796,-5.774,-5.7299,-5.6638,-5.5611,-5.4876,-5.4289,-5.3482,-5.3203,-5.2968,-5.1536,-5.0986,-5.0508,-4.9077,-4.8489,-4.8196,-4.759,-4.7259,-4.6708,-4.5169,-4.4357,-4.3612,-4.2661,-4.1979,-4.1442,-4.1047,-4.0814,-4.0552,-4.0154,-4.0113,-4.0113,-4.0113,-4.0113,-4.0113,-4.0113,-4.072,-4.1573,-4.2596,-4.2808,-4.3087,-4.348,-4.3515,-4.3515,-4.3515,-4.3515,-4.3515,-4.3515,-4.3515,-4.3515,-4.3515,-4.3515,-4.3515,-4.3515,-4.3515,-4.3515,-4.3515,-4.3515,-4.3515,0.0,0.0,-6.0758,-6.3197,-6.6848,-7.066,-7.4018,-7.7243,-8.0137,-8.225,-8.1826,-8.1,-8.0786,-8.0467,-8.0369,-8.0767,-8.2436,-8.3422,-8.2726,-8.3809,-8.3646,-8.1021,-8.0922,-8.1085,0.0,-8.2627,-8.4205,-8.5747,-8.5894,-8.5894,-8.5894,-8.5857,-8.4756,-8.2406,-8.226,-8.1085,-7.8736,-7.8626,-7.7781,-7.6166,-7.5168,-7.3035,-6.9884,-6.7336,-6.6278,-6.6398,-6.6446,-6.5118,-6.2842,-6.278,-6.1386,-5.9221,-5.9184,-5.8731,-5.7923,-5.7116,-5.6822,-5.6565,-5.4987,-5.4436,-5.4289,-5.3482,-5.3203,-5.3078,-5.2197,-5.1426,-5.0618,-4.9794,-4.893,-4.8306,-4.8269,-4.7663,-4.6743,-4.5421,-4.4485,-4.3512,-4.2136,-4.134,-4.0909,-4.092,-4.0456,-4.0138,-4.0113,-4.0113,-4.0113,-4.0113,-4.0113,-4.0113,-4.0113,-4.1059,-4.2,-4.2635,-4.3178,-4.3497,-4.3515,-4.3515,-4.3515,-4.3515,-4.3515,-4.3515,-4.3515,-4.3515,-4.3515,-4.3515,-4.3515,-4.3515,-4.3515,-4.3515,-4.3515,-4.3515,-4.3515,-4.3515,-5.9834,0.0,-6.406,-6.713,-7.0946,-7.4815,-7.8187,-8.1033,-8.2834,-8.2323,-8.0986,-7.927,-7.7398,-7.6359,-7.6203,-7.7594,-7.9608,-8.1217,-8.1668,-8.3241,-8.3157,-8.0154,-8.0487,0.0,0.0,0.0,0.0,-8.4095,-8.4205,-8.4462,-8.4976,-8.3985,-8.303,-8.2223,-8.0645,-7.9433,-7.8589,-7.7389,-7.6221,-7.5132,-7.1944,-6.8483,-6.4904,-6.5198,-6.4531,-6.3199,-6.3784,-6.3282,-6.1924,-6.086,-5.9918,-5.9148,-5.8621,-5.7923,-5.7116,-5.6308,-5.5684,-5.5133,-5.4583,-5.4069,-5.3482,-5.2674,-5.2747,-5.2858,-5.0986,-5.0582,-5.0508,-4.9114,-4.8526,-4.8306,-4.8306,-4.7796,-4.7037,-4.6055,-4.4634,-4.323,-4.2242,-4.1147,-4.0368,-4.0368,-4.0229,-4.0113,-4.0113,-4.0113,-4.0113,-4.0113,-4.0417,-4.0791,-4.1173,-4.1895,-4.2599,-4.3178,-4.3374,-4.3515,-4.3515,-4.3515,-4.3515,-4.3515,-4.3515,-4.3515,-4.3515,-4.3515,-4.3515,-4.3515,-4.3515,-4.3515,-4.3515,-4.3515,-4.3515,-4.3515,-4.3515,-4.3515,-6.0812,-6.3707,-6.7355,-7.0344,-7.4188,-7.808,-8.1146,-8.2797,-8.3225,-8.1626,-7.9234,-7.6456,-7.3549,-7.2195,-7.1953,-7.3473,-7.55,-7.7658,-7.9677,-8.0905,-8.1165,-7.9973,-7.9722,-7.9507,0.0,0.0,0.0,-8.2406,-8.281,-8.3067,-8.3287,-8.259,-8.1782,-8.0938,-7.9036,-7.7887,-7.7596,-7.5787,-7.4046,-7.2371,-6.905,-6.5688,-6.2459,-6.3869,-6.3271,-6.1136,-6.2304,-6.2034,-6.0676,-5.9648,-5.9038,-5.8731,-5.8217,-5.7519,-5.6712,-5.5904,-5.5097,-5.4363,-5.4069,-5.3628,-5.3078,-5.227,-5.2527,-5.2821,-5.0655,-5.0398,-5.0508,-4.915,-4.8526,-4.8267,-4.8035,-4.7695,-4.7083,-4.5856,-4.4601,-4.3425,-4.2368,-4.1478,-4.0823,-4.0527,-4.0493,-4.0417,-4.0146,-4.0316,-4.0493,-4.0377,-4.1092,-4.1655,-4.1803,-4.2322,-4.292,-4.3463,-4.3515,-4.3515,-4.3515,-4.3515,-4.3515,-4.3515,-4.3515,-4.3515,-4.3515,-4.3515,-4.3515,-4.3515,-4.3515,-4.3515,-4.3515,-4.3515,-4.3515,-4.3515,-4.3515,-4.3515,-6.229,-6.6151,-7.0248,-7.2821,-7.6554,-8.0256,-8.2684,-8.2532,-8.1485,-8.0159,-7.6602,-7.27,0.0,0.0,-6.7963,-6.8808,-7.0648,-7.3268,-7.6834,-7.7379,-7.8204,0.0,0.0,0.0,0.0,0.0,0.0,-8.0755,0.0,-8.1746,-8.0975,-8.1672,-8.1012,-7.8662,-7.7525,-7.6579,-7.5823,-7.3939,-7.1385,-6.8158,-6.6595,-6.4614,-6.2324,-6.3275,-6.2457,-6.0326,-6.1977,-6.1349,-5.9184,-5.9148,-5.8694,-5.7997,-5.7997,-5.7483,-5.6638,-5.5845,-5.5016,-5.4173,-5.336,-5.3103,-5.3036,-5.227,-5.2506,-5.2852,-5.1222,-5.0765,-5.0618,-4.9794,-4.8911,-4.8114,-4.7533,-4.7363,-4.682,-4.4907,-4.441,-4.4,-4.2649,-4.232,-4.2083,-4.1407,-4.1271,-4.1035,-4.035,-4.0798,-4.1197,-4.1069,-4.2086,-4.2674,-4.1995,-4.2398,-4.2957,-4.3499,-4.3515,-4.3515,-4.3515,-4.3515,-4.3515,-4.3515,-4.3515,-4.3515,-4.3515,-4.3515,-4.3515,-4.3515,-4.3515,-4.3515,-4.3515,-4.3515,-4.3515,-4.3515,-4.3515,-4.3515,-6.6745,-6.952,-7.2184,-7.5263,-7.8368,-8.0788,-8.1461,-8.133,-7.9792,-7.5291,-7.1558,-6.773,0.0,0.0,0.0,-6.6339,-7.0265,0.0,-7.6175,-7.9182,0.0,-8.0658,0.0,-8.2223,-8.0828,-8.0314,0.0,0.0,-8.0277,-8.0314,-8.0094,-8.0277,-7.9837,-7.8626,-7.6984,-7.6003,-7.5787,-7.2213,-6.9085,-6.6317,-6.4852,-6.2926,-6.0732,-6.2228,-6.1644,-5.9542,-6.0586,-6.0346,-5.9148,-5.8547,-5.818,-5.7997,-5.7997,-5.7152,-5.5823,-5.5132,-5.3927,-5.2565,-5.1897,-5.1946,-5.2341,-5.2071,-5.2156,-5.2073,-5.0424,-5.0325,-5.0508,-4.904,-4.8141,-4.7575,-4.7428,-4.6705,-4.5855,-4.5354,-4.4413,-4.3552,-4.3193,-4.2692,-4.2219,-4.2049,-4.2016,-4.1948,-4.1745,-4.188,-4.2176,-4.2639,-4.2787,-4.3002,-4.3319,-4.3321,-4.3595,-4.4324,-4.3864,-4.3515,-4.3515,-4.3515,-4.3515,-4.3515,-4.3515,-4.3515,-4.3515,-4.3515,-4.3515,-4.3515,-4.3515,-4.3515,-4.3515,-4.3515,-4.3515,-4.3515,-4.3515,-4.3515,-6.91,-7.1757,-7.429,-7.7343,-7.9545,-8.0654,-7.9227,-7.7943,-7.5586,-7.0273,-6.627,0.0,-5.9282,0.0,0.0,0.0,0.0,0.0,-7.5888,-7.8165,-8.0185,0.0,-8.2766,0.0,-8.2113,-8.1415,-8.0681,0.0,-7.98,-7.9653,-7.9286,-7.8825,-7.8191,-7.7425,-7.5478,-7.3954,-7.2865,-7.0159,-6.7612,-6.5189,-6.3734,-6.2009,-6.0118,-6.112,-6.0326,-5.8211,-5.9349,-5.9247,-5.8154,-5.768,-5.7498,-5.7462,-5.7134,-5.6223,-5.501,-5.4303,-5.3219,-5.2018,-5.1343,-5.1138,-5.1226,-5.1439,-5.1592,-5.1455,-5.0446,-5.0456,-5.0617,-4.9658,-4.8894,-4.8365,-4.8084,-4.7255,-4.6323,-4.5753,-4.4967,-4.4316,-4.4012,-4.3606,-4.32,-4.2861,-4.2523,-4.2286,-4.2286,-4.2557,-4.2898,-4.3212,-4.3404,-4.3744,-4.44,-4.3904,-4.3791,-4.4635,-4.3975,-4.3515,-4.3515,-4.3515,-4.3515,-4.3515,-4.3515,-4.3515,-4.3515,-4.3515,-4.3515,-4.3515,-4.3515,-4.3515,-4.3515,-4.3515,-4.3515,-4.3515,-4.3515,-4.3515,-7.0684,-7.3593,-7.646,-7.9179,-8.0448,-8.0154,-7.6799,-7.3934,-7.0558,-6.5477,0.0,-5.8254,-5.6664,-5.7103,-5.8558,-6.1028,0.0,-6.8567,-7.5755,-7.6453,-7.8239,-8.3783,-8.27,-8.1966,-8.3141,-8.2003,-8.0791,-7.9874,-7.9558,-7.9055,-7.8285,-7.7321,-7.6372,-7.544,-7.3589,-7.1496,-6.9113,-6.8098,-6.6609,-6.458,-6.299,-6.1501,-6.0118,-6.0251,-5.9008,-5.6891,-5.841,-5.825,-5.6887,-5.6773,-5.6773,-5.6814,-5.6016,-5.5137,-5.4248,-5.3479,-5.2592,-5.1716,-5.106,-5.039,-4.9951,-5.0698,-5.0997,-5.1068,-5.0875,-5.0853,-5.0868,-5.0702,-5.0069,-4.9317,-4.881,-4.812,-4.7251,-4.5982,-4.5771,-4.5635,-4.4784,-4.4615,-4.4418,-4.3842,-4.3098,-4.2625,-4.2726,-4.32,-4.3552,-4.3508,-4.3963,-4.457,-4.527,-4.4313,-4.3852,-4.4547,-4.3889,-4.3413,-4.341,-4.3374,-4.3409,-4.3497,-4.3515,-4.3515,-4.3515,-4.3515,-4.3515,-4.3515,-4.3515,-4.3515,-4.3515,-4.3515,-4.3515,-4.3515,-4.3608,-4.3644,-7.4487,-7.6498,-7.8108,-8.1036,-8.1355,-8.0007,-7.6076,-7.2714,0.0,0.0,-5.8667,-5.6562,-5.4465,-5.5683,0.0,-6.1637,0.0,0.0,0.0,0.0,-8.0659,0.0,0.0,0.0,-8.2517,-8.215,0.0,0.0,-7.8347,-7.7144,-7.6314,-7.5943,-7.5012,-7.3372,-7.2377,-7.098,-6.9113,-6.7083,-6.5561,-6.458,-6.2482,-6.0994,-6.0118,-6.0251,-5.9008,-5.6859,-5.7887,-5.7751,-5.6861,-5.6204,-5.6313,-5.6799,-5.5999,-5.4855,-5.3495,-5.2811,-5.164,-5.0251,-4.961,-4.9286,-4.9372,-5.062,-5.1083,-5.1063,-5.0937,-5.0882,-5.0764,-5.0073,-4.8994,-4.8014,-4.7908,-4.743,-4.6758,-4.5901,-4.6177,-4.6244,-4.4886,-4.4615,-4.475,-4.5229,-4.4688,-4.4384,-4.5026,-4.4688,-4.4531,-4.5044,-4.4646,-4.4769,-4.6012,-4.4862,-4.3978,-4.4185,-4.3472,-4.2961,-4.2861,-4.2827,-4.305,-4.348,-4.3515,-4.3515,-4.3515,-4.3515,-4.3515,-4.3515,-4.3515,-4.3515,-4.3515,-4.3515,-4.3515,-4.3515,-4.4195,-4.4488,-7.6695,-7.8213,-7.9183,-8.2119,-8.123,-7.814,-7.2515,0.0,0.0,0.0,-5.5656,-5.4769,-5.3687,0.0,0.0,0.0,0.0,0.0,0.0,0.0,0.0,0.0,0.0,0.0,0.0,-8.1415,-8.0227,-7.8453,-7.7019,-7.6267,-7.6436,-7.4952,-7.3258,-7.1474,-7.1089,-6.9944,-6.7929,-6.644,-6.5121,-6.4005,-6.1738,-6.0486,-6.008,-5.9339,-5.8014,-5.6302,-5.7083,-5.6796,-5.5674,-5.5262,-5.535,-5.5638,-5.4811,-5.3824,-5.2746,-5.2016,-5.1003,-4.989,-4.9226,-4.9018,-4.9107,-4.978,-5.0258,-5.0592,-5.0916,-5.0997,-5.0925,-5.0544,-4.967,-4.8903,-4.8903,-4.8123,-4.7293,-4.6955,-4.6549,-4.6041,-4.5331,-4.5162,-4.5263,-4.5635,-4.5703,-4.5838,-4.621,-4.5669,-4.5275,-4.5569,-4.4947,-4.4704,-4.5356,-4.4793,-4.4396,-4.4634,-4.3961,-4.3579,-4.386,-4.39,-4.4135,-4.4728,-4.4745,-4.4562,-4.4158,-4.4121,-4.3938,-4.3515,-4.3515,-4.3515,-4.3515,-4.3901,-4.4121,-4.4158,-4.4966,-4.5333,-7.7967,-7.9493,-8.0431,-8.3032,-8.1109,-7.6726,-6.9687,-6.5334,0.0,0.0,-5.3518,-5.3518,-5.3518,0.0,0.0,0.0,0.0,0.0,0.0,0.0,0.0,0.0,0.0,0.0,0.0,0.0,0.0,-7.6867,-7.5796,-7.5385,-7.5759,-7.3687,-7.1799,-7.0239,-6.9857,-6.8774,-6.6846,-6.5764,-6.4647,-6.3497,-6.1197,-6.0114,-6.0047,-5.8558,-5.7103,-5.5751,-5.6302,-5.5835,-5.4606,-5.4419,-5.4451,-5.4503,-5.3529,-5.2812,-5.2222,-5.1498,-5.0705,-4.9963,-4.9403,-4.912,-4.9018,-4.9018,-4.9462,-5.0118,-5.0689,-5.0876,-5.0876,-5.0876,-5.0369,-4.9809,-4.9809,-4.8963,-4.8142,-4.8142,-4.7022,-4.5974,-4.6143,-4.6041,-4.5974,-4.6143,-4.6515,-4.6853,-4.6989,-4.6413,-4.594,-4.594,-4.5297,-4.4852,-4.4852,-4.4716,-4.4722,-4.5051,-4.4353,-4.413,-4.4734,-4.4797,-4.514,-4.5847,-4.5883,-4.5553,-4.4728,-4.4691,-4.4305,-4.3515,-4.3644,-4.3754,-4.3754,-4.4562,-4.4966,-4.5002,-4.5773,-4.6177,-7.8248,-8.0587,-8.2567,-8.4127,-8.1947,-7.7627,-7.0507,0.0,0.0,-5.4771,-5.3518,-5.3518,-5.3518,0.0,0.0,0.0,0.0,0.0,0.0,0.0,0.0,0.0,0.0,0.0,0.0,0.0,0.0,-7.5967,-7.4974,-7.3637,-7.1888,-7.158,-7.1029,-7.0229,-6.8842,-6.7692,-6.6812,-6.4749,-6.3632,-6.3497,-6.1197,-6.0114,-6.0047,-5.8558,-5.7103,-5.5716,-5.5786,-5.5346,-5.4544,-5.3881,-5.4011,-5.4441,-5.2961,-5.233,-5.2195,-5.1449,-5.0704,-5.006,-5.0031,-4.956,-4.9018,-4.9018,-4.9462,-5.0004,-5.009,-5.0118,-5.0118,-5.0153,-4.9674,-4.9077,-4.9077,-4.9012,-4.8917,-4.8917,-4.7767,-4.6887,-4.7534,-4.7192,-4.6887,-4.7567,-4.7225,-4.7022,-4.7699,-4.7192,-4.6684,-4.6684,-4.6075,-4.5602,-4.5602,-4.4993,-4.4637,-4.4646,-4.3933,-4.3675,-4.416,-4.4179,-4.4656,-4.5828,-4.5883,-4.5553,-4.4728,-4.4691,-4.4305,-4.3515,-4.4232,-4.4599,-4.4599,-4.5406,-4.5773,-4.581,-4.6599,-4.7003,-7.7796,-8.0451,-8.2286,-8.4164,-8.058,-7.5192,-6.9551,0.0,0.0,-5.4398,-5.3518,-5.3518,-5.3518,0.0,0.0,0.0,0.0,0.0,0.0,0.0,0.0,0.0,0.0,0.0,0.0,0.0,-7.4967,-7.4043,-7.2632,-7.1499,-7.0679,-7.0635,-7.006,-6.8842,-6.7793,-6.6677,-6.5493,-6.4174,-6.3057,-6.2178,-6.0757,-5.9877,-5.9404,-5.7915,-5.6697,-5.5683,-5.5243,-5.487,-5.4544,-5.3816,-5.3946,-5.451,-5.3442,-5.2469,-5.1623,-5.1319,-5.0473,-4.9424,-4.9424,-4.9255,-4.9018,-4.9018,-4.9165,-4.9372,-4.9372,-4.9664,-4.9919,-4.9521,-4.9229,-4.9018,-4.9018,-4.9018,-4.8883,-4.8443,-4.7902,-4.7564,-4.7838,-4.7665,-4.7564,-4.7838,-4.8037,-4.8206,-4.8511,-4.797,-4.7462,-4.7462,-4.6819,-4.621,-4.5771,-4.5432,-4.5263,-4.5263,-4.4906,-4.4879,-4.5435,-4.5869,-4.6467,-4.7295,-4.7352,-4.6764,-4.548,-4.5406,-4.4819,-4.3551,-4.4305,-4.4691,-4.4691,-4.5975,-4.6599,-4.6636,-4.7443,-4.781,-7.6076,-7.8973,-8.0982,-8.2683,-7.8423,-7.2678,0.0,0.0,0.0,-5.4126,-5.3518,-5.3518,-5.3518,0.0,0.0,0.0,0.0,0.0,0.0,0.0,0.0,0.0,0.0,0.0,0.0,-7.406,-7.3818,-7.2567,-7.1361,-7.0447,-7.0004,-6.9499,-6.8707,-6.7624,-6.6643,-6.5459,-6.3971,-6.3226,-6.2212,-6.0926,-6.0148,-5.9505,-5.8964,-5.7476,-5.6393,-5.5683,-5.4905,-5.4596,-5.451,-5.3544,-5.3741,-5.4475,-5.3067,-5.2097,-5.1488,-5.1048,-5.0236,-4.9323,-4.9323,-4.9187,-4.9018,-4.9018,-4.9018,-4.9018,-4.9018,-4.9346,-4.9639,-4.9138,-4.9018,-4.9018,-4.9018,-4.9018,-4.8883,-4.8376,-4.824,-4.824,-4.824,-4.824,-4.824,-4.824,-4.8646,-4.9018,-4.9018,-4.8578,-4.824,-4.824,-4.7597,-4.6955,-4.6413,-4.6177,-4.6041,-4.6041,-4.611,-4.6307,-4.6731,-4.7199,-4.7637,-4.7995,-4.7838,-4.7199,-4.6044,-4.577,-4.5187,-4.4232,-4.4782,-4.5168,-4.5388,-4.6782,-4.7443,-4.748,-4.8049,-4.8453,-7.2874,-7.5976,-7.8788,-7.939,-7.5705,-7.0714,0.0,0.0,0.0,-5.4126,-5.3518,-5.3518,-5.3518,-5.3518,-5.3518,-5.3518,0.0,0.0,0.0,0.0,0.0,0.0,0.0,0.0,0.0,-7.2466,-7.3607,-7.1839,-7.1688,0.0,-6.958,-6.781,-6.6846,-6.6812,-6.5392,-6.3903,-6.2415,-6.167,-6.0926,-6.0114,-5.937,-5.9032,-5.8964,-5.7476,-5.6393,-5.5683,-5.4905,-5.4596,-5.4475,-5.2931,-5.3229,-5.4302,-5.1296,-5.1014,-5.2097,-5.0642,-5.0101,-5.0067,-5.0067,-4.9593,-4.9018,-4.9018,-4.9018,-4.9018,-4.9018,-4.8984,-4.9018,-4.9018,-4.9018,-4.9018,-4.9018,-4.9018,-4.9018,-4.8984,-4.8984,-4.8984,-4.8984,-4.8984,-4.8984,-4.8984,-4.8984,-4.9018,-4.9018,-4.8984,-4.8984,-4.8984,-4.8376,-4.7872,-4.7872,-4.7259,-4.6786,-4.6786,-4.7346,-4.7648,-4.759,-4.7641,-4.7606,-4.7399,-4.6796,-4.6349,-4.6188,-4.5415,-4.5279,-4.5865,-4.5883,-4.6287,-4.7076,-4.7902,-4.8306,-4.8306,-4.8306,-4.8746,-6.8398,-7.1333,-7.356,-7.4498,-7.1008,-6.6602,-6.352,0.0,0.0,0.0,-5.3518,-5.3518,-5.3518,-5.3518,-5.3687,-5.416,-5.4262,0.0,0.0,0.0,0.0,0.0,0.0,0.0,0.0,0.0,-7.125,-7.0738,-6.9706,-6.8887,-6.841,-6.6445,-6.5527,-6.6034,-6.414,-6.2854,-6.2381,-6.1129,-6.0114,-5.937,-5.9133,-5.849,-5.7476,-5.6494,-5.5649,-5.4905,-5.416,-5.4118,-5.451,-5.3544,-5.34,-5.3714,-5.2181,-5.1251,-5.0744,-5.027,-4.9763,-4.9357,-4.9357,-4.9187,-4.9018,-4.9018,-4.9018,-4.9018,-4.9018,-4.9018,-4.9018,-4.9018,-4.9018,-4.9018,-4.9018,-4.9018,-4.9018,-4.9018,-4.9018,-4.9018,-4.9018,-4.9018,-4.9018,-4.9018,-4.9018,-4.9018,-4.9018,-4.9018,-4.9018,-4.9018,-4.8815,-4.8477,-4.7939,-4.7699,-4.7564,-4.7564,-4.8129,-4.8313,-4.7736,-4.7638,-4.7618,-4.7523,-4.6826,-4.6105,-4.5566,-4.5281,-4.5172,-4.526,-4.5824,-4.6693,-4.7939,-4.8783,-4.9481,-5.0031,-5.0031,-5.0435,0.0,-6.7122,-6.9175,-6.9929,-6.6946,0.0,0.0,0.0,0.0,0.0,0.0,0.0,0.0,-5.3518,-5.3551,-5.3721,-5.3991,0.0,0.0,0.0,0.0,0.0,0.0,0.0,0.0,-7.0113,-7.0234,-6.9021,-6.8301,-6.7523,-6.6711,-6.5358,-6.4546,-6.4444,-6.2854,-6.1839,-6.1535,-6.0317,-5.9302,-5.8592,-5.8592,-5.7949,-5.6765,-5.6055,-5.531,-5.4566,-5.3822,-5.3913,0.0,-5.3476,-5.3229,-5.3368,-5.2011,-5.0913,-5.0067,-4.9796,-4.939,-4.9018,-4.9018,-4.9018,-4.9018,-4.9018,-4.9018,-4.9018,-4.9018,-4.9018,-4.9018,-4.9018,-4.9018,-4.9018,-4.9018,-4.9018,-4.9018,-4.9018,-4.9018,-4.9018,-4.9018,-4.9018,-4.9018,-4.9018,-4.9018,-4.9018,-4.9018,-4.9018,-4.9018,-4.9018,-4.9018,-4.8849,-4.8376,-4.8342,-4.8342,-4.8342,-4.8689,-4.8712,-4.8238,-4.7857,-4.7538,-4.7257,-4.6295,-4.5606,-4.5337,-4.4997,-4.5174,-4.5884,-4.641,-4.7368,-4.8783,-4.9353,-5.0014,-5.0802,-5.0802,-5.1242,0.0,-6.3173,-6.5292,-6.5586,-6.3246,-6.0532,0.0,0.0,0.0,0.0,0.0,0.0,0.0,0.0,-5.3281,-5.257,-5.3078,0.0,0.0,0.0,0.0,0.0,0.0,0.0,-6.616,-6.9241,-7.012,-6.7032,-6.7354,-6.6779,-6.4715,-6.4546,-6.3869,-6.2415,-6.1637,-6.0825,-6.0047,-5.9268,-5.8524,-5.7881,-5.778,-5.7374,-5.6697,-5.5987,-5.5243,-5.4465,-5.3788,-5.3881,-5.4413,-5.2966,-5.2753,-5.3103,-5.0992,-5.0101,-4.9932,-4.9255,-4.9018,-4.9018,-4.9018,-4.9018,-4.9018,-4.9018,-4.9018,-4.9018,-4.9018,-4.9018,-4.9018,-4.9018,-4.9018,-4.9018,-4.9018,-4.9018,-4.9018,-4.9086,-4.9086,-4.9086,-4.9086,-4.9086,-4.9052,-4.9018,-4.9018,-4.9018,-4.9018,-4.9018,-4.9018,-4.9018,-4.9018,-4.9018,-4.9018,-4.9018,-4.9018,-4.9018,-4.9018,-4.9018,-4.9018,-4.8272,-4.7484,-4.6661,-4.5452,-4.4988,-4.5425,-4.4811,-4.538,-4.7327,-4.7544,-4.8333,-4.9757,-4.9831,-5.0215,-5.0986,-5.0986,-5.1353,-5.6182,0.0,-5.9941,-6.0006,-5.8558,-5.6835,0.0,0.0,0.0,0.0,0.0,0.0,0.0,0.0,0.0,0.0,0.0,0.0,0.0,0.0,0.0,0.0,0.0,-7.1661,-6.7906,-6.8295,-6.8226,-6.688,-6.5933,-6.5155,-6.4647,-6.4072,-6.3328,-6.2415,-6.1095,-6.0013,-5.9268,-5.7983,-5.7509,-5.7881,-5.6765,-5.6156,-5.5953,-5.5209,-5.4465,-5.3754,-5.3585,-5.3584,-5.375,-5.3348,-5.2602,-5.1709,-5.1146,-5.027,-4.9255,-4.9052,-4.9018,-4.9018,-4.9018,-4.9018,-4.9018,-4.9018,-4.9018,-4.9018,-4.9018,-4.9018,-4.9018,-4.9018,-4.9018,-4.9018,-4.9018,-4.9018,-4.9154,-4.9695,-4.983,-4.983,-4.983,-4.983,-4.9661,-4.912,-4.9018,-4.9018,-4.9018,-4.9018,-4.9018,-4.9018,-4.9018,-4.9018,-4.9018,-4.9018,-4.9018,-4.9018,-4.9018,-4.9018,-4.9018,-4.829,-4.7559,-4.6776,-4.6462,-4.5823,-4.4865,-4.5722,-4.6378,-4.6765,-4.8924,-5.0526,-5.1446,-5.205,-5.2454,-5.2637,-5.2637,-5.2747,-5.5114,-5.6303,-5.7461,-5.7085,-5.6089,-5.5136,-5.4689,0.0,0.0,0.0,0.0,0.0,0.0,0.0,0.0,0.0,-5.3551,0.0,0.0,0.0,0.0,0.0,0.0,-7.0119,0.0,-6.7615,-6.6812,-6.5392,-6.485,-6.4174,-6.3159,-6.3024,-6.2347,-6.0892,-5.9708,-5.8896,-5.849,-5.7374,-5.6833,-5.6867,-5.6089,-5.5547,-5.5175,-5.4769,-5.4194,-5.3484,-5.3112,-5.3179,-5.3484,-5.3112,-5.2266,-5.1185,-5.1185,-5.0304,-4.9018,-4.9018,-4.9018,-4.9018,-4.9018,-4.9018,-4.9018,-4.9018,-4.9018,-4.8923,-4.8482,-4.8639,-4.9018,-4.9018,-4.9018,-4.9018,-4.9018,-4.9018,-4.9086,-4.9492,-4.9593,-4.9593,-4.9593,-4.9864,-4.9965,-4.9593,-4.9492,-4.9492,-4.9492,-4.9221,-4.9018,-4.9018,-4.9018,-4.9018,-4.9018,-4.9018,-4.9018,-4.9018,-4.9018,-4.9018,-4.9018,-4.8646,-4.8105,-4.7361,-4.6989,-4.6413,-4.5635,-4.638,-4.7233,-4.812,-4.996,-5.1433,-5.2564,-5.2637,-5.2858,-5.3167,-5.2821,-5.2858,-5.5343,-5.6283,-5.6805,-5.5801,-5.4999,-5.4419,0.0,0.0,0.0,0.0,0.0,0.0,0.0,0.0,0.0,0.0,0.0,0.0,0.0,0.0,0.0,0.0,0.0,0.0,-6.7395,-6.6829,-6.5595,-6.3497,-6.3802,-6.3226,-6.1231,-6.1704,-6.1061,-5.8896,-5.822,-5.7712,-5.7374,-5.6765,-5.6224,-5.5681,-5.5445,-5.5108,-5.46,-5.4465,-5.4025,-5.3281,-5.2604,-5.2638,-5.3112,-5.2401,-5.1725,-5.1048,-5.1048,-5.0202,-4.9018,-4.9018,-4.9018,-4.9018,-4.9018,-4.9018,-4.8987,-4.8829,-4.8798,-4.8608,-4.7671,-4.8031,-4.8798,-4.8798,-4.8892,-4.9018,-4.9018,-4.9018,-4.9052,-4.9154,-4.9187,-4.9187,-4.9187,-4.9763,-5.0236,-5.0101,-5.0101,-5.0101,-5.0101,-4.9492,-4.9018,-4.9018,-4.9018,-4.9018,-4.9018,-4.9018,-4.9018,-4.9018,-4.9018,-4.9018,-4.9018,-4.9018,-4.8748,-4.8139,-4.7496,-4.7124,-4.7124,-4.7106,-4.8086,-5.0156,-5.0904,-5.1941,-5.3408,-5.2821,-5.2821,-5.3371,-5.2674,-5.2674,-5.4731,-5.6222,-5.7286,-5.5274,-5.42,-5.3685,0.0,0.0,0.0,0.0,0.0,0.0,0.0,0.0,0.0,0.0,0.0,0.0,0.0,0.0,-6.551,-6.5903,0.0,-6.8059,-6.5459,-6.5062,-6.4275,-6.2685,-6.211,-6.1366,-6.0351,-6.0385,-5.9708,-5.8118,-5.7949,-5.7002,-5.5108,-5.4972,-5.5209,-5.5647,-5.4431,-5.4126,-5.4566,-5.3957,-5.3247,-5.2469,-5.2367,-5.2029,-5.1555,-5.142,-5.0947,-5.027,-5.027,-4.9763,-4.9018,-4.9018,-4.9018,-4.9018,-4.9018,-4.9018,-4.8861,-4.8063,-4.7803,-4.7671,-4.6696,-4.707,-4.7803,-4.7803,-4.8418,-4.9018,-4.9018,-4.9018,-4.9154,-4.9763,-4.9932,-4.9932,-4.9932,-5.0507,-5.0845,-5.0202,-5.0101,-5.0101,-5.0101,-4.9492,-4.9018,-4.9018,-4.9018,-4.9018,-4.9018,-4.9018,-4.9018,-4.9018,-4.9018,-4.9018,-4.9018,-4.9018,-4.8951,-4.8849,-4.8714,-4.8646,-4.8646,-4.862,-4.9311,-5.0909,-5.2232,-5.338,-5.4216,-5.4766,-5.4766,-5.4216,-5.4106,-5.3739,-5.3991,-5.4771,-5.5311,-5.4251,-5.4669,0.0,0.0,0.0,0.0,0.0,0.0,0.0,0.0,0.0,0.0,0.0,0.0,-5.9336,-6.1501,-6.3119,-6.4384,0.0,0.0,-6.5681,-6.42,-6.3673,-6.2787,-6.1264,-6.0858,-6.0317,-5.9573,-5.9133,-5.8423,-5.734,-5.6528,-5.5615,-5.46,-5.4194,-5.4194,-5.4499,-5.3822,-5.3687,-5.3991,-5.3653,-5.3078,-5.2266,-5.1894,-5.1522,-5.1183,-5.0777,-5.0405,-5.0101,-5.0101,-4.9627,-4.9018,-4.9018,-4.9018,-4.9018,-4.9018,-4.8671,-4.8193,-4.7737,-4.7273,-4.6765,-4.6314,-4.6833,-4.7572,-4.7572,-4.8289,-4.9086,-4.9492,-4.9593,-4.9661,-4.9999,-5.0101,-4.9965,-4.9593,-5.0101,-5.0507,-5.0168,-5.0101,-5.0101,-5.0101,-4.9492,-4.9018,-4.9018,-4.9018,-4.9018,-4.9018,-4.9018,-4.9018,-4.9018,-4.9018,-4.9018,-4.9018,-4.9018,-4.9018,-4.9018,-4.9018,-4.9018,-4.9018,-4.8976,-4.9837,-5.1723,-5.2416,-5.352,-5.506,-5.5427,-5.517,-5.4399,-5.4399,-5.3959,-5.3721,-5.4025,-5.4194,-5.3856,0.0,0.0,0.0,0.0,0.0,0.0,0.0,0.0,0.0,0.0,0.0,0.0,-5.9133,-6.052,-6.167,-6.2448,-6.3328,-6.4478,-6.3802,-6.326,-6.326,-6.2415,-6.1298,-5.9945,-5.9844,-5.9471,-5.8558,-5.7949,-5.7205,-5.6325,-5.5175,-5.4499,-5.4329,-5.3788,-5.3518,-5.3518,-5.3518,-5.3518,-5.3484,-5.3315,-5.2807,-5.1995,-5.1285,-5.0845,-5.0642,-5.0067,-4.983,-4.983,-4.983,-4.9492,-4.9018,-4.9018,-4.9018,-4.8954,-4.8767,-4.8193,-4.7539,-4.7104,-4.6592,-4.6138,-4.5925,-4.6694,-4.7638,-4.7803,-4.8524,-4.9357,-4.9729,-4.9965,-5.0067,-4.9864,-4.983,-4.9695,-4.912,-4.9729,-5.0304,-5.0135,-5.0236,-5.0304,-5.0135,-4.9492,-4.9018,-4.9018,-4.9018,-4.9018,-4.9018,-4.9018,-4.9086,-4.9255,-4.912,-4.9018,-4.9018,-4.9018,-4.9018,-4.9018,-4.9018,-4.9086,-4.9255,-4.9589,-5.0662,-5.2502,-5.3084,-5.417,-5.5868,-5.6051,-5.5647,-5.4693,-5.4876,-5.4436,-5.4329,-5.5513,-5.6224,-5.4871,0.0,0.0,0.0,0.0,0.0,-5.7306,0.0,0.0,0.0,0.0,0.0,0.0,0.0,-6.0858,-6.3057,0.0,-6.4478,-6.458,-6.3328,-6.2482,-6.2482,-6.1129,-5.9945,-5.9167,-5.9099,-5.8457,-5.7036,-5.69,-5.6224,-5.4803,-5.4634,-5.4262,-5.3585,-5.3518,-5.3518,-5.3518,-5.3518,-5.3518,-5.3484,-5.2739,-5.1995,-5.1251,-5.0507,-4.9796,-4.9154,-4.912,-4.9086,-4.9086,-4.9086,-4.9052,-4.9018,-4.9018,-4.9018,-4.8861,-4.7998,-4.7671,-4.7306,-4.5593,-4.5525,-4.6032,-4.5153,-4.617,-4.7737,-4.8429,-4.9324,-4.9864,-4.9255,-4.9593,-4.9932,-4.9255,-4.9086,-4.9052,-4.9018,-5.0135,-5.0913,-5.0236,-5.0642,-5.0913,-5.0202,-4.9492,-4.9018,-4.9018,-4.9018,-4.9018,-4.9018,-4.9018,-4.9255,-4.9932,-4.939,-4.9018,-4.9018,-4.9018,-4.9018,-4.9018,-4.9018,-4.9323,-4.9965,-5.1366,-5.2457,-5.3281,-5.5402,-5.6548,-5.6712,-5.7446,-5.7042,-5.5537,-5.6271,-5.5794,-5.3856,-5.4668,-5.5175,-5.416,0.0,0.0,0.0,0.0,0.0,-5.7679,-5.8051,0.0,0.0,0.0,0.0,0.0,0.0,-6.1467,-6.326,-6.3768,-6.3768,-6.3294,-6.2313,-6.1332,-6.0385,-5.9336,-5.8423,-5.7679,-5.7239,-5.6731,-5.6156,-5.5683,-5.4863,-5.3623,-5.3783,-5.3448,-5.2522,-5.3144,-5.3518,-5.3484,-5.2976,-5.2739,-5.2739,-5.1961,-5.1217,-5.0507,-5.0202,-4.9661,-4.9018,-4.9018,-4.9018,-4.9018,-4.9018,-4.8639,-4.8129,-4.8129,-4.777,-4.7205,-4.6833,-4.6346,-4.585,-4.5706,-4.5525,-4.5452,-4.6311,-4.7036,-4.7869,-4.9223,-5.0149,-5.0744,-5.0439,-5.0574,-5.0608,-4.9864,-4.9661,-4.956,-4.9086,-4.9458,-4.9763,-4.9458,-4.9661,-4.9763,-4.9458,-4.9187,-4.9018,-4.9018,-4.9018,-4.9018,-4.9018,-4.9018,-4.912,-4.939,-4.956,-4.9492,-4.9052,-4.9424,-4.9661,-4.9661,-4.9661,-4.9796,-5.0067,-5.1066,-5.2392,-5.4123,-5.4981,-5.6138,-5.7556,-5.785,-5.7446,-5.6345,-5.6675,-5.6198,-5.3112,-5.3484,-5.3754,0.0,0.0,0.0,0.0,0.0,0.0,0.0,-5.9167,0.0,-5.8017,0.0,0.0,0.0,-5.9708,-6.0757,-6.2245,-6.2245,-6.1907,-6.14,-6.0689,-5.9708,-5.8457,-5.7848,-5.7239,-5.6528,-5.6021,-5.5615,-5.5378,-5.4559,-5.3565,-5.2356,-5.2248,-5.1883,-5.1229,-5.1961,-5.2472,-5.2773,-5.1995,-5.186,-5.2266,-5.1319,-5.0574,-5.0067,-4.983,-4.9458,-4.9018,-4.9018,-4.9018,-4.8954,-4.8671,-4.8161,-4.7539,-4.7273,-4.673,-4.6208,-4.6208,-4.5778,-4.5374,-4.5996,-4.5992,-4.5921,-4.7205,-4.7803,-4.8326,-4.9706,-5.0473,-5.0845,-5.0845,-5.1048,-5.098,-4.9965,-4.9729,-4.9593,-4.912,-4.9187,-4.9357,-4.9357,-4.9357,-4.9357,-4.9357,-4.9154,-4.9018,-4.9018,-4.9187,-4.9255,-4.9052,-4.9187,-4.9255,-4.9018,-4.9661,-4.9898,-4.939,-4.9796,-5.0202,-5.0439,-5.0676,-5.0777,-5.0777,-5.1507,-5.2774,-5.457,-5.5076,-5.6093,-5.7655,-5.7904,-5.7593,-5.6822,-5.7079,-5.6748,-5.23,-5.23,0.0,0.0,0.0,0.0,0.0,0.0,0.0,0.0,0.0,-5.8795,-5.8017,-5.6089,0.0,-5.6562,-5.7408,-5.8389,-5.9877,-5.9438,-5.8998,-5.8998,-5.8321,-5.7577,-5.6867,-5.6799,-5.6494,-5.575,-5.5647,-5.5378,-5.46,-5.3554,-5.232,-5.0905,-4.9904,-4.9511,-4.9781,-4.9781,-5.0258,-5.1151,-5.0439,-5.0879,-5.2232,-5.0744,-5.0067,-5.0033,-4.9323,-4.9018,-4.9018,-4.8984,-4.9018,-4.8892,-4.7933,-4.7572,-4.744,-4.6523,-4.6173,-4.6173,-4.6208,-4.6208,-4.6208,-4.6208,-4.6833,-4.7572,-4.7605,-4.8257,-4.9154,-4.9898,-5.0101,-5.0101,-5.0101,-5.0642,-5.0845,-4.9357,-4.9018,-4.9018,-4.9018,-4.956,-5.0067,-5.0067,-5.0067,-5.0067,-5.0067,-4.9492,-4.9018,-4.9018,-4.9627,-4.983,-4.9086,-4.9627,-4.9796,-4.9086,-4.9661,-5.0101,-5.0101,-5.0101,-5.0439,-5.1151,-5.1894,-5.23,-5.23,-5.3066,-5.3844,-5.4572,-5.6095,-5.6887,-5.6912,-5.7655,-5.7593,-5.6822,-5.7629,-5.7556,-5.3145,-5.3145,0.0,0.0,0.0,0.0,0.0,0.0,0.0,0.0,0.0,-5.8795,-5.8017,-5.6089,0.0,-5.5886,-5.6224,-5.6867,-5.8355,-5.7915,-5.7476,-5.7476,-5.6799,-5.6292,-5.6055,-5.5547,-5.5141,-5.4938,-5.4465,-5.3751,-5.2751,-5.1971,-5.0688,-4.8808,-4.8717,-4.8403,-4.7763,-4.8469,-4.8975,-4.9224,-4.9158,-4.969,-5.071,-4.9763,-4.9323,-4.9323,-4.9086,-4.9018,-4.8923,-4.8289,-4.8032,-4.7901,-4.697,-4.6208,-4.567,-4.6032,-4.5778,-4.5337,-4.5961,-4.6208,-4.6314,-4.6968,-4.7373,-4.7737,-4.8353,-4.8798,-4.9154,-4.9898,-5.0101,-5.0101,-5.0101,-5.0236,-5.0202,-4.9221,-4.9018,-4.9018,-4.9018,-4.9187,-4.9102,-4.846,-4.8847,-4.9102,-4.846,-4.8711,-4.9018,-4.9018,-4.9187,-4.9255,-4.9052,-4.9187,-4.9255,-4.9018,-4.9661,-5.0101,-5.0101,-5.0574,-5.1183,-5.1928,-5.2198,-5.23,-5.23,-5.3071,-5.3869,-5.4606,-5.5552,-5.634,-5.6912,-5.7655,-5.7886,-5.7666,-5.7886,-5.7886,-5.2942,0.0,0.0,0.0,0.0,0.0,0.0,0.0,0.0,0.0,0.0,-5.9201,-5.8457,-5.6292,0.0,-5.5209,-5.5277,-5.5683,-5.6867,-5.6393,-5.5919,-5.5919,-5.5547,-5.5141,-5.4871,-5.4702,-5.4465,-5.4194,-5.3345,-5.2459,-5.1564,-5.0314,-4.8865,-4.7091,-4.685,-4.6545,-4.6059,-4.6674,-4.7161,-4.753,-4.8021,-4.8431,-4.8683,-4.8897,-4.9018,-4.8984,-4.8714,-4.836,-4.7981,-4.7106,-4.6717,-4.6547,-4.5617,-4.5273,-4.5379,-4.5561,-4.5525,-4.5488,-4.6419,-4.673,-4.6902,-4.7836,-4.8161,-4.8257,-4.8829,-4.9018,-4.9086,-4.9526,-4.9661,-4.9661,-4.9661,-4.9661,-4.956,-4.912,-4.9018,-4.9018,-4.9018,-4.8736,-4.8357,-4.8068,-4.7968,-4.7935,-4.8001,-4.8263,-4.8576,-4.8923,-4.9018,-4.912,-4.939,-4.9187,-4.9018,-4.9018,-4.9661,-5.0202,-5.0507,-5.1217,-5.1961,-5.2739,-5.2773,-5.2773,-5.2773,-5.3247,-5.3717,-5.4171,-5.5173,-5.5948,-5.6421,-5.7498,-5.7997,-5.7997,-5.7997,-5.7997,0.0,0.0,0.0,0.0,0.0,0.0,0.0,0.0,0.0,-6.4783,0.0,-5.9911,-5.8998,-5.6562,-5.4668,-5.46,-5.4532,-5.4769,-5.5513,-5.4972,-5.4499,-5.4499,-5.4499,-5.4228,-5.3585,-5.4093,-5.416,-5.3382,-5.2387,-5.149,-5.0659,-4.8694,-4.6981,-4.5703,-4.4597,-4.4155,-4.4476,-4.4538,-4.4991,-4.5769,-4.6872,-4.698,-4.6355,-4.8176,-4.8951,-4.8849,-4.8176,-4.7404,-4.6579,-4.5726,-4.531,-4.5122,-4.4167,-4.4755,-4.6007,-4.5306,-4.5597,-4.6454,-4.7406,-4.7737,-4.7868,-4.8736,-4.9018,-4.9018,-4.9018,-4.9018,-4.9018,-4.9018,-4.9018,-4.9018,-4.9018,-4.9018,-4.8987,-4.8892,-4.8861,-4.8861,-4.8861,-4.8129,-4.7637,-4.8259,-4.7184,-4.6679,-4.8225,-4.8,-4.7901,-4.8861,-4.9018,-4.9255,-4.9898,-4.9424,-4.9018,-4.9086,-4.9695,-5.0439,-5.1251,-5.1928,-5.2638,-5.345,-5.3518,-5.3518,-5.3518,-5.3518,-5.3518,-5.3518,-5.4939,-5.5724,-5.5724,-5.7266,-5.7997,-5.7997,-5.7997,-5.7997,0.0,0.0,0.0,0.0,0.0,0.0,0.0,0.0,0.0,0.0,-6.1163,-6.0283,-5.7746,-5.6292,-5.5277,-5.4668,-5.4126,-5.3991,-5.4735,-5.4194,-5.3754,-5.3754,-5.3754,-5.3687,-5.3518,-5.3653,-5.3313,-5.2312,-5.1572,-5.0322,-4.8576,-4.6608,-4.5003,-4.3865,-4.2668,-4.2038,-4.2115,-4.2628,-4.2743,-4.246,-4.463,-4.5295,-4.4718,-4.7656,-4.868,-4.8139,-4.7973,-4.7474,-4.6626,-4.5081,-4.4788,-4.5245,-4.4193,-4.4436,-4.5472,-4.657,-4.7138,-4.744,-4.8353,-4.8671,-4.8736,-4.8923,-4.9018,-4.9018,-4.9018,-4.9018,-4.9018,-4.9018,-4.9018,-4.9018,-4.9018,-4.9018,-4.8829,-4.8096,-4.7901,-4.7901,-4.7901,-4.7172,-4.6343,-4.5782,-4.5945,-4.6308,-4.6679,-4.7236,-4.7901,-4.8861,-4.9018,-4.9052,-4.9221,-4.9086,-4.9221,-4.9796,-4.9999,-5.0608,-5.1961,-5.2198,-5.2638,-5.345,-5.3518,-5.3518,-5.3518,-5.3518,-5.3518,-5.3518,-5.4939,-5.5724,-5.5724,-5.7266,-5.7997,-5.7997,-5.7997,-5.7997,0.0,0.0,0.0,0.0,0.0,0.0,0.0,0.0,0.0,0.0,0.0,-5.9066,-5.7137,-5.5919,-5.4938,-5.4194,-5.3754,-5.3619,-5.4025,-5.3754,-5.3382,-5.2976,-5.2942,-5.2942,-5.2942,-5.2942,-5.2505,-5.1501,-5.0641,-4.9084,-4.6547,-4.4949,-4.3585,-4.2432,-4.1743,-4.1422,-4.1422,-4.1752,-4.1752,-4.1422,-4.3576,-4.4882,-4.5432,-4.7167,-4.7733,-4.7361,-4.7022,-4.641,-4.5584,-4.4621,-4.4464,-4.4755,-4.4551,-4.5237,-4.638,-4.7275,-4.7868,-4.8321,-4.8829,-4.9018,-4.9018,-4.9018,-4.9018,-4.9018,-4.9018,-4.9018,-4.9018,-4.9018,-4.9018,-4.9018,-4.9018,-4.8639,-4.8225,-4.7737,-4.7572,-4.7473,-4.7036,-4.6173,-4.5379,-4.4887,-4.4818,-4.5122,-4.6032,-4.734,-4.845,-4.8923,-4.9018,-4.9018,-4.9018,-4.9018,-4.9289,-4.9999,-5.0405,-5.1082,-5.2198,-5.2672,-5.3044,-5.3484,-5.3518,-5.3518,-5.3518,-5.3518,-5.3518,-5.3518,-5.4939,-5.5724,-5.5724,-5.7266,-5.7997,-5.7997,-5.7997,-5.7997,0.0,0.0,0.0,0.0,0.0,0.0,0.0,0.0,0.0,0.0,0.0,-5.7442,-5.6562,-5.5412,-5.4363,-5.3619,-5.3518,-5.345,-5.3315,-5.3281,-5.301,-5.2198,-5.2131,-5.2131,-5.2131,-5.1965,-5.1463,-5.0533,-4.93,-4.7472,-4.4761,-4.3477,-4.2342,-4.1235,-4.1115,-4.1025,-4.1025,-4.1145,-4.1145,-4.1093,-4.2855,-4.4689,-4.6413,-4.6413,-4.6422,-4.6372,-4.5736,-4.4979,-4.421,-4.4056,-4.4136,-4.443,-4.5008,-4.6255,-4.767,-4.7802,-4.8321,-4.9018,-4.9018,-4.9018,-4.9018,-4.9018,-4.9018,-4.9018,-4.9018,-4.9018,-4.9018,-4.9018,-4.8892,-4.8767,-4.8767,-4.8064,-4.7306,-4.7172,-4.7104,-4.69,-4.6103,-4.5196,-4.4548,-4.4548,-4.4128,-4.4251,-4.571,-4.7671,-4.8956,-4.8798,-4.8892,-4.9018,-4.9018,-4.912,-4.9458,-5.0202,-5.0947,-5.1691,-5.2435,-5.3112,-5.3518,-5.3518,-5.3518,-5.3518,-5.3518,-5.3518,-5.3518,-5.3518,-5.4939,-5.5724,-5.5724,-5.7266,-5.7997,-5.7997,-5.7997,-5.7997,0.0,0.0,0.0,0.0,0.0,0.0,0.0,0.0,0.0,0.0,0.0,-5.6528,-5.5141,-5.4735,-5.4363,-5.3619,-5.3518,-5.3281,-5.257,-5.2469,-5.2198,-5.1454,-5.1352,-5.1352,-5.1352,-5.0627,-4.9705,-4.8707,-4.6671,-4.4939,-4.3666,-4.182,-4.0696,-4.0546,-3.9978,-3.9679,-3.9679,-4.0247,-4.0247,-3.9679,-4.1444,-4.3186,-4.4886,-4.4886,-4.4817,-4.4724,-4.4624,-4.4136,-4.3394,-4.2619,-4.3573,-4.5492,-4.5456,-4.6468,-4.7922,-4.8562,-4.8892,-4.9018,-4.9018,-4.9018,-4.9018,-4.9018,-4.9018,-4.9018,-4.9018,-4.9018,-4.9018,-4.9018,-4.8385,-4.7803,-4.7803,-4.7104,-4.6173,-4.5374,-4.5153,-4.5116,-4.5005,-4.4205,-4.3527,-4.3527,-4.475,-4.567,-4.5079,-4.7205,-4.8702,-4.7901,-4.8482,-4.9018,-4.9018,-4.956,-5.0236,-5.098,-5.1725,-5.2469,-5.3281,-5.345,-5.3518,-5.3518,-5.3518,-5.3518,-5.3518,-5.3518,-5.3518,-5.3518,-5.4939,-5.5724,-5.5724,-5.7266,-5.7997,-5.7997,-5.7997,-5.7997,0.0,0.0,0.0,0.0,0.0,0.0,0.0,0.0,0.0,0.0,0.0,-5.4329,-5.4566,-5.389,-5.3213,-5.2875,-5.2503,-5.2097,-5.1725,-5.1691,-5.142,-5.0676,-5.0574,-5.0382,-4.9859,-4.9458,-4.8404,-4.6545,-4.5466,-4.398,-4.185,-4.0876,-4.0217,-3.9858,-3.9559,-3.9373,-3.9373,-3.9709,-3.997,-4.0264,-4.1022,-4.2274,-4.3882,-4.3456,-4.3714,-4.4503,-4.4503,-4.457,-4.4675,-4.468,-4.5584,-4.6993,-4.7334,-4.7866,-4.8578,-4.8883,-4.9018,-4.9018,-4.9018,-4.9018,-4.9018,-4.9018,-4.9018,-4.9018,-4.9018,-4.9018,-4.8892,-4.8353,-4.7901,-4.7473,-4.6968,-4.6103,-4.5337,-4.4924,-4.4358,-4.3966,-4.3966,-4.3615,-4.329,-4.329,-4.4441,-4.53,-4.4887,-4.6694,-4.8096,-4.7671,-4.8418,-4.9018,-4.9018,-4.9627,-5.0371,-5.115,-5.186,-5.2638,-5.345,-5.3518,-5.3518,-5.3518,-5.3518,-5.3518,-5.3518,-5.3518,-5.3518,-5.3518,-5.4939,-5.5495,-5.5084,-5.7054,-5.7774,-5.7401,-5.7797,-5.7997,0.0,0.0,0.0,0.0,0.0,0.0,0.0,0.0,0.0,0.0,0.0,0.0,-5.3518,-5.2807,-5.2029,-5.2029,-5.1589,-5.1117,-5.0947,-5.0913,-5.0642,-4.9898,-4.983,-4.9379,-4.8266,-4.7965,-4.6851,-4.4538,-4.3988,-4.2762,-4.0524,-4.0247,-3.9918,-3.9439,-3.9373,-3.9373,-3.9373,-3.9373,-3.9886,-4.0864,-4.0674,-4.1579,-4.3339,-4.2593,-4.3098,-4.4587,-4.4121,-4.4465,-4.5412,-4.595,-4.6877,-4.7939,-4.8511,-4.8849,-4.9018,-4.9018,-4.9018,-4.9018,-4.9018,-4.9018,-4.9018,-4.9018,-4.9018,-4.9018,-4.9018,-4.8829,-4.8513,-4.7803,-4.7273,-4.6728,-4.6028,-4.5153,-4.4396,-4.4396,-4.3849,-4.329,-4.329,-4.329,-4.329,-4.329,-4.412,-4.4699,-4.4472,-4.6205,-4.7572,-4.7535,-4.8524,-4.9357,-4.9526,-5.0202,-5.0879,-5.142,-5.2164,-5.2841,-5.345,-5.3518,-5.3518,-5.3518,-5.3518,-5.3518,-5.3518,-5.3518,-5.3518,-5.3518,-5.4757,-5.5144,-5.4637,-5.6902,-5.7631,-5.6912,-5.7679,-5.7904,0.0,0.0,0.0,0.0,0.0,0.0,0.0,0.0,0.0,0.0,0.0,0.0,-5.1386,-5.1319,-5.1285,-5.1285,-5.1251,-5.098,-5.0236,-5.0135,-4.9864,-4.9154,-4.9052,-4.8438,-4.6877,-4.5892,-4.4716,-4.3034,-4.1511,-4.0591,-4.0397,-3.9798,-3.9469,-3.9373,-3.9373,-3.9373,-3.9373,-3.9373,-3.9849,-4.0696,-4.0078,-4.1024,-4.3284,-4.2587,-4.3127,-4.4497,-4.2862,-4.3004,-4.4469,-4.4502,-4.5857,-4.7906,-4.7939,-4.8376,-4.9018,-4.9018,-4.9018,-4.9018,-4.9018,-4.9018,-4.9018,-4.9018,-4.9018,-4.9018,-4.9018,-4.8353,-4.7671,-4.7605,-4.6311,-4.4962,-4.4887,-4.4159,-4.3369,-4.3369,-4.3329,-4.329,-4.329,-4.329,-4.329,-4.329,-4.412,-4.451,-4.3566,-4.571,-4.7535,-4.7319,-4.8862,-5.0304,-5.1014,-5.1725,-5.2198,-5.2232,-5.2976,-5.345,-5.3518,-5.3518,-5.3518,-5.3518,-5.3518,-5.3518,-5.3518,-5.3518,-5.3518,-5.3518,-5.4264,-5.4668,-5.4637,-5.6902,-5.7631,-5.6912,-5.7679,-5.7631,0.0,0.0,0.0,0.0,0.0,0.0,0.0,0.0,0.0,0.0,0.0,0.0,-5.0473,-5.0473,-5.0473,-5.0473,-5.0101,-4.9695,-4.9424,-4.939,-4.9289,-4.9052,-4.8482,-4.7473,-4.586,-4.484,-4.3693,-4.2213,-4.1546,-4.1278,-4.1435,-4.0674,-4.0239,-4.0239,-3.9702,-3.9373,-3.9373,-3.9373,-3.9385,-3.9356,-3.9627,-4.0537,-4.1935,-4.1609,-4.287,-4.524,-4.4042,-4.4438,-4.5995,-4.6435,-4.7423,-4.8612,-4.8612,-4.8781,-4.9018,-4.9018,-4.9018,-4.8892,-4.8289,-4.8129,-4.8129,-4.8129,-4.7704,-4.7306,-4.7901,-4.744,-4.6558,-4.5957,-4.5337,-4.4662,-4.4004,-4.3566,-4.329,-4.329,-4.329,-4.329,-4.329,-4.329,-4.329,-4.329,-4.3576,-4.3732,-4.3369,-4.5164,-4.648,-4.5798,-4.8194,-4.9978,-4.9659,-5.1194,-5.23,-5.23,-5.301,-5.3518,-5.3518,-5.3518,-5.3518,-5.3518,-5.3518,-5.3518,-5.3518,-5.3518,-5.3518,-5.3518,-5.42,-5.4391,-5.3913,-5.6177,-5.6668,-5.5472,-5.7198,-5.7608,0.0,0.0,0.0,0.0,0.0,0.0,0.0,0.0,0.0,0.0,0.0,0.0,0.0,-4.9729,-4.9729,-4.9729,-4.9323,-4.9018,-4.9018,-4.9018,-4.9018,-4.9018,-4.8193,-4.6945,-4.5385,-4.4157,-4.2988,-4.1802,-4.1492,-4.1562,-4.1981,-4.1382,-4.0924,-4.0611,-3.9823,-3.9373,-3.9373,-3.9373,-3.9244,-3.8889,-3.9467,-4.0382,-4.1455,-4.146,-4.3003,-4.5674,-4.5343,-4.5939,-4.7225,-4.7699,-4.8311,-4.9018,-4.9018,-4.9018,-4.9018,-4.9018,-4.8798,-4.845,-4.7836,-4.7406,-4.7138,-4.7138,-4.6696,-4.6314,-4.6936,-4.6454,-4.5597,-4.4999,-4.4548,-4.4159,-4.3488,-4.329,-4.329,-4.329,-4.329,-4.329,-4.329,-4.329,-4.329,-4.329,-4.329,-4.329,-4.329,-4.4668,-4.5682,-4.5515,-4.8074,-4.9925,-4.9783,-5.1497,-5.2706,-5.2706,-5.3179,-5.3518,-5.3518,-5.3518,-5.3518,-5.3518,-5.3518,-5.3518,-5.3518,-5.3518,-5.3619,-5.3856,-5.4353,-5.449,-5.4262,-5.603,-5.6092,-5.4637,-5.6936,-5.7605,0.0,0.0,0.0,0.0,0.0,0.0,0.0,0.0,0.0,0.0,0.0,0.0,0.0,0.0,-4.9018,-4.9018,-4.9018,-4.9018,-4.9018,-4.9018,-4.8984,-4.8954,-4.8129,-4.6911,-4.5285,-4.3713,-4.2492,-4.1837,-4.1193,-4.1194,-4.2045,-4.1852,-4.1316,-4.0434,-3.9798,-3.9403,-3.9373,-3.9373,-3.9373,-3.9379,-3.9569,-4.0505,-4.1981,-4.2201,-4.356,-4.5771,-4.6515,-4.7259,-4.7906,-4.7906,-4.8376,-4.9018,-4.9018,-4.9018,-4.9018,-4.9018,-4.8418,-4.7605,-4.7572,-4.6936,-4.6138,-4.6138,-4.6138,-4.6103,-4.6138,-4.5488,-4.4774,-4.4774,-4.4043,-4.329,-4.329,-4.329,-4.329,-4.329,-4.329,-4.329,-4.3319,-4.329,-4.329,-4.329,-4.3319,-4.3319,-4.3319,-4.4189,-4.5308,-4.6648,-4.8505,-5.0274,-5.1583,-5.2767,-5.345,-5.345,-5.3484,-5.3518,-5.3518,-5.3518,-5.3518,-5.3518,-5.3518,-5.3518,-5.3518,-5.3518,-5.3856,-5.4566,-5.46,-5.4972,-5.5716,-5.6509,-5.6134,-5.471,-5.6947,-5.7557,-4.9018,0.0,0.0,0.0,0.0,0.0,-4.956,-4.9458,0.0,0.0,0.0,0.0,0.0,0.0,-4.9018,-4.9018,-4.9018,-4.9018,-4.9018,-4.9018,-4.8767,-4.8096,-4.7172,-4.5987,-4.4333,-4.3318,-4.2922,-4.3398,-4.3427,-4.3683,-4.4428,-4.3169,-4.1807,-4.0434,-4.0217,-3.9888,-3.9373,-3.9373,-3.917,-3.8661,-3.9321,-4.0189,-4.1308,-4.2498,-4.4297,-4.6549,-4.7293,-4.8037,-4.8714,-4.8714,-4.8815,-4.9018,-4.9018,-4.9018,-4.9018,-4.9018,-4.8418,-4.7506,-4.6799,-4.5992,-4.519,-4.519,-4.4706,-4.4213,-4.4968,-4.451,-4.3693,-4.3693,-4.3497,-4.329,-4.329,-4.329,-4.329,-4.329,-4.329,-4.3409,-4.3928,-4.3618,-4.329,-4.329,-4.3678,-4.4007,-4.4007,-4.5218,-4.6049,-4.5758,-4.7862,-4.9331,-4.899,-5.0941,-5.2348,-5.2348,-5.3041,-5.3518,-5.3518,-5.3518,-5.3518,-5.3518,-5.3518,-5.3518,-5.3518,-5.4025,-5.4397,-5.46,-5.5108,-5.5513,-5.5716,-5.6458,-5.6314,-5.5451,-5.6611,-5.7293,0.0,0.0,0.0,0.0,0.0,0.0,-4.9018,-4.8781,-4.8443,0.0,0.0,0.0,0.0,0.0,0.0,-4.8951,-4.9255,-4.9357,-4.9052,-4.9018,-4.8639,-4.7704,-4.6765,-4.5837,-4.4921,-4.3795,-4.3706,-4.4979,-4.4594,-4.4399,-4.4679,-4.3423,-4.2266,-4.1272,-4.0696,-4.0217,-3.9828,-3.9559,-3.92,-3.8811,-3.9657,-4.0491,-4.1336,-4.2999,-4.4818,-4.6712,-4.7548,-4.8342,-4.9018,-4.9018,-4.9018,-4.8954,-4.8576,-4.8418,-4.8353,-4.7966,-4.7239,-4.6346,-4.5814,-4.5005,-4.4167,-4.4167,-4.3771,-4.3409,-4.4004,-4.3771,-4.329,-4.329,-4.329,-4.329,-4.329,-4.329,-4.329,-4.329,-4.329,-4.3469,-4.4167,-4.4018,-4.3798,-4.4107,-4.4227,-4.4407,-4.4676,-4.5465,-4.6032,-4.5747,-4.741,-4.8553,-4.827,-5.0375,-5.1921,-5.1921,-5.287,-5.3518,-5.3518,-5.3518,-5.3518,-5.3518,-5.3518,-5.3653,-5.3957,-5.4363,-5.4871,-5.5513,-5.6258,-5.6934,-5.7543,-5.7055,-5.6713,-5.663,-5.6731,-5.7395,0.0,0.0,0.0,-4.9796,-4.9492,0.0,-4.8917,-4.8376,-4.7733,-4.7056,0.0,0.0,0.0,0.0,0.0,0.0,-4.956,-4.9729,-4.9086,-4.9086,-4.8709,-4.7572,-4.6799,-4.6279,-4.6067,-4.4894,-4.4798,-4.6487,-4.5272,-4.4253,-4.3815,-4.3204,-4.2701,-4.2419,-4.1145,-4.0487,-4.0397,-3.9738,-3.9373,-3.9409,-4.017,-4.1028,-4.1918,-4.3622,-4.5202,-4.6712,-4.7634,-4.8409,-4.9018,-4.9018,-4.9018,-4.8892,-4.7966,-4.7572,-4.7473,-4.6523,-4.5597,-4.4812,-4.4812,-4.4159,-4.329,-4.329,-4.329,-4.329,-4.329,-4.329,-4.329,-4.329,-4.329,-4.329,-4.329,-4.329,-4.3319,-4.3379,-4.3409,-4.3618,-4.4377,-4.4466,-4.4646,-4.5364,-4.4975,-4.4736,-4.5304,-4.5454,-4.5723,-4.6352,-4.7189,-4.7957,-4.8543,-5.0442,-5.174,-5.174,-5.28,-5.3518,-5.3518,-5.3518,-5.3518,-5.3518,-5.3585,-5.3923,-5.4566,-5.4735,-5.5446,-5.6765,-5.7611,-5.8693,-6.0114,-5.8118,-5.7509,-5.8118,-5.7476,-5.8012,-4.9018,-4.9018,-4.9052,-4.9187,-4.912,0.0,-4.8274,-4.8007,-4.7838,0.0,0.0,0.0,0.0,0.0,0.0,0.0,-4.912,-4.9154,-4.9018,-4.9492,-4.9054,-4.6726,-4.7002,-4.6728,-4.5227,-4.56,-4.6355,-4.7309,-4.6888,-4.5995,-4.4663,-4.4226,-4.3497,-4.244,-4.1632,-4.0935,-4.0397,-3.9738,-3.9373,-3.9373,-3.9589,-4.0751,-4.2839,-4.3812,-4.5471,-4.7659,-4.8453,-4.8883,-4.9018,-4.9018,-4.9018,-4.8892,-4.7966,-4.7572,-4.7473,-4.6523,-4.5597,-4.4812,-4.4812,-4.4159,-4.329,-4.329,-4.329,-4.329,-4.329,-4.329,-4.329,-4.329,-4.329,-4.329,-4.329,-4.329,-4.3439,-4.3988,-4.4107,-4.4466,-4.5622,-4.5514,-4.5454,-4.6681,-4.6381,-4.592,-4.607,-4.6561,-4.695,-4.71,-4.7272,-4.743,-4.7593,-4.9407,-5.0703,-5.0703,-5.2381,-5.3518,-5.3518,-5.3518,-5.3518,-5.3518,-5.4059,-5.4431,-5.4566,-5.575,-5.6528,-5.6799,-5.8118,-5.9235,-6.0114,-5.9674,-5.9539,-5.9674,-5.9539,-6.0352,-4.8917,-4.9018,-4.9018,-4.9018,-4.9018,0.0,0.0,-4.7631,-4.7361,-4.7361,0.0,0.0,0.0,0.0,0.0,0.0,-4.9323,-4.9424,-4.9052,-4.9323,-4.8884,-4.7103,-4.7306,-4.737,-4.6792,-4.7264,-4.7701,-4.7942,-4.733,-4.6258,-4.4639,-4.4389,-4.3868,-4.288,-4.2222,-4.1752,-4.1422,-4.0726,-4.0397,-4.0397,-4.0397,-4.1473,-4.3479,-4.4309,-4.5831,-4.782,-4.863,-4.9018,-4.9018,-4.9018,-4.8702,-4.8225,-4.7273,-4.6625,-4.6099,-4.5122,-4.4441,-4.4043,-4.4043,-4.3732,-4.329,-4.329,-4.329,-4.329,-4.329,-4.329,-4.329,-4.329,-4.329,-4.329,-4.329,-4.3529,-4.3858,-4.4227,-4.4556,-4.5095,-4.607,-4.6052,-4.6112,-4.71,-4.704,-4.68,-4.68,-4.71,-4.7309,-4.7309,-4.7309,-4.7309,-4.7309,-4.9125,-5.0397,-5.0397,-5.2274,-5.3518,-5.3518,-5.3822,-5.4059,-5.4059,-5.4735,-5.531,-5.5683,-5.6427,-5.7306,-5.8423,-5.9573,-6.052,-6.1231,-6.1231,-6.0858,-6.0114,-6.0569,-6.1467,-4.8815,-4.9018,-4.9018,-4.9018,-4.9018,-4.8815,0.0,0.0,0.0,-4.6989,0.0,0.0,0.0,0.0,0.0,0.0,0.0,0.0,0.0,-4.9018,0.0,-4.7704,-4.777,-4.8101,-4.866,-4.8693,-4.8578,-4.8327,-4.7307,-4.6006,-4.4387,-4.4436,-4.4137,-4.3319,-4.2701,-4.241,-4.241,-4.1752,-4.1422,-4.1422,-4.1422,-4.2332,-4.4091,-4.484,-4.6184,-4.7901,-4.8671,-4.9018,-4.9018,-4.8798,-4.8193,-4.7273,-4.6488,-4.5634,-4.4662,-4.3654,-4.329,-4.329,-4.329,-4.329,-4.329,-4.329,-4.329,-4.329,-4.329,-4.329,-4.329,-4.329,-4.329,-4.3319,-4.3439,-4.3888,-4.4377,-4.4646,-4.5095,-4.5693,-4.6381,-4.6501,-4.6681,-4.7189,-4.7309,-4.7309,-4.7309,-4.7309,-4.7309,-4.7309,-4.7309,-4.7309,-4.7309,-4.9125,-5.0461,-5.0589,-5.234,-5.3551,-5.3687,-5.4262,-5.46,-5.46,-5.5446,-5.619,-5.6799,-5.707,-5.822,-6.0283,-6.096,-6.167,-6.2381,-6.2381,-6.1738,-6.0592,-6.149,-6.2367,-4.8815,-4.9018,-4.9018,-4.9018,-4.9018,-4.8815,-4.8041,0.0,-4.78,-4.78,0.0,0.0,0.0,0.0,0.0,0.0,0.0,0.0,-4.9018,-4.9018,-4.8639,-4.7704,-4.8321,-4.8815,-4.8728,-4.8693,-4.8578,-4.8327,-4.7307,-4.6006,-4.4387,-4.4855,-4.4616,-4.3319,-4.2701,-4.241,-4.241,-4.1752,-4.1422,-4.1422,-4.1422,-4.2702,-4.5048,-4.5152,-4.6519,-4.8861,-4.8923,-4.9018,-4.8923,-4.8129,-4.7205,-4.6349,-4.6244,-4.5634,-4.4662,-4.3654,-4.329,-4.329,-4.329,-4.329,-4.329,-4.329,-4.329,-4.329,-4.329,-4.329,-4.329,-4.329,-4.329,-4.3439,-4.4007,-4.4257,-4.4616,-4.5771,-4.6142,-4.6381,-4.704,-4.7189,-4.7219,-4.7309,-4.7309,-4.7309,-4.7309,-4.7309,-4.7309,-4.7309,-4.7309,-4.7309,-4.7309,-4.9125,-5.0653,-5.1339,-5.2638,-5.3754,-5.4397,-5.4532,-5.46,-5.46,-5.5919,-5.6697,-5.6799,-5.8084,-5.9505,-6.1129,-6.1264,-6.167,-6.2381,-6.2381,-6.2313,-6.2149,-6.3036,-6.3904,-4.753,-4.7733,-4.7834,-4.8274,-4.8376,-4.8409,-4.8511,-4.821,-4.8007,-4.8477,0.0,0.0,0.0,0.0,0.0,0.0,-4.8646,0.0,0.0,0.0,-4.7882,0.0,0.0,0.0,-4.9487,-4.8884,-4.8401,-4.829,-4.6795,-4.5394,-4.4347,-4.4586,-4.4287,-4.3319,-4.306,-4.291,-4.291,-4.2641,-4.2521,-4.2521,-4.2521,-4.3622,-4.576,-4.576,-4.6945,-4.9018,-4.9018,-4.8671,-4.8161,-4.777,-4.6728,-4.5379,-4.5379,-4.4781,-4.3888,-4.3448,-4.329,-4.329,-4.329,-4.329,-4.329,-4.329,-4.329,-4.329,-4.329,-4.329,-4.329,-4.329,-4.3559,-4.3917,-4.4257,-4.4885,-4.5592,-4.616,-4.6621,-4.698,-4.7249,-4.7309,-4.7309,-4.7309,-4.7309,-4.7309,-4.7309,-4.7309,-4.7309,-4.7309,-4.7309,-4.7429,-4.7818,-4.9169,-5.0546,-5.1925,-5.3114,-5.4004,-5.4566,-5.5378,-5.5683,-5.5277,-5.7036,-5.8084,-5.8084,-5.9539,-6.0655,-6.1298,-6.1704,-6.2076,-6.2381,-6.2381,-6.2618,-6.3063,-6.3483,-6.4183,-4.6853,-4.6955,-4.7022,-4.797,-4.8041,-4.8075,-4.8849,-4.8612,-4.8376,-4.8883,-4.8578,0.0,0.0,0.0,0.0,0.0,0.0,-4.7804,0.0,-4.7124,0.0,0.0,0.0,0.0,0.0,-4.8846,-4.813,-4.8285,-4.6287,-4.4825,-4.4347,-4.4317,-4.4018,-4.3319,-4.329,-4.329,-4.329,-4.329,-4.329,-4.329,-4.329,-4.4327,-4.6208,-4.6208,-4.7239,-4.9018,-4.9018,-4.8482,-4.7572,-4.7306,-4.6276,-4.4774,-4.451,-4.3966,-4.329,-4.329,-4.329,-4.329,-4.329,-4.329,-4.329,-4.329,-4.329,-4.329,-4.329,-4.329,-4.329,-4.329,-4.3768,-4.4347,-4.4526,-4.5454,-4.6339,-4.6561,-4.695,-4.7309,-4.7309,-4.7309,-4.7309,-4.7309,-4.7309,-4.7309,-4.7309,-4.7309,-4.7309,-4.7309,-4.7309,-4.7549,-4.8207,-4.9474,-5.0929,-5.2629,-5.3782,-5.4662,-5.5139,-5.619,-5.6765,-5.663,-5.8118,-5.9302,-5.9911,-6.1028,-6.1806,-6.2212,-6.2719,-6.299,-6.299,-6.299,-6.3294,-6.3802,-6.393,-6.446,-4.7496,-4.7361,-4.7158,-4.8612,-4.8443,-4.8075,-4.8849,-4.8984,-4.8984,-4.9018,-4.8984,-4.8984,-4.9018,-4.9018,0.0,0.0,0.0,0.0,0.0,0.0,0.0,0.0,0.0,0.0,0.0,-4.8421,-4.7585,-4.8253,-4.5856,-4.4347,-4.4317,-4.4317,-4.4018,-4.3319,-4.329,-4.329,-4.329,-4.329,-4.329,-4.329,-4.329,-4.4327,-4.6208,-4.6208,-4.7239,-4.9018,-4.9018,-4.8482,-4.7506,-4.6627,-4.567,-4.4699,-4.3732,-4.3329,-4.329,-4.329,-4.329,-4.329,-4.329,-4.329,-4.329,-4.329,-4.329,-4.329,-4.329,-4.329,-4.329,-4.329,-4.3768,-4.4466,-4.5095,-4.5783,-4.6429,-4.713,-4.7279,-4.7309,-4.7309,-4.7309,-4.7309,-4.7309,-4.7309,-4.7309,-4.7309,-4.7309,-4.7309,-4.7309,-4.7309,-4.7549,-4.8207,-5.0123,-5.2004,-5.3381,-5.4821,-5.5952,-5.6664,-5.6765,-5.7408,-5.8829,-5.8964,-6.0013,-6.2178,-6.2347,-6.3024,-6.4478,-6.4512,-6.4546,-6.4546,-6.4546,-6.4546,-6.4586,-6.4721,-6.5137,-4.5568,-4.5534,-4.5698,-4.7158,-4.7361,-4.7496,-4.8714,-4.9018,-4.9018,-4.9018,-4.9018,-4.9018,-4.9018,-4.9018,0.0,0.0,0.0,0.0,0.0,0.0,-4.7056,0.0,0.0,0.0,0.0,0.0,-4.5738,-4.5342,-4.348,-4.2551,-4.3,-4.3069,-4.3329,-4.3958,-4.3529,-4.3499,-4.3947,-4.3499,-4.3499,-4.3958,-4.4178,-4.5217,-4.6877,-4.7026,-4.7473,-4.8063,-4.8063,-4.7172,-4.5706,-4.5379,-4.4668,-4.3771,-4.3448,-4.329,-4.329,-4.329,-4.329,-4.329,-4.329,-4.329,-4.329,-4.329,-4.329,-4.329,-4.329,-4.3589,-4.3947,-4.3947,-4.4725,-4.5693,-4.5903,-4.6471,-4.704,-4.7249,-4.7309,-4.7309,-4.7309,-4.7309,-4.7309,-4.7309,-4.7309,-4.7309,-4.7309,-4.7668,-4.7818,-4.7369,-4.7668,-4.8177,-4.891,-4.9968,-5.1264,-5.2958,-5.4218,-5.5378,-5.6336,-5.7547,-5.8693,-5.9674,-6.025,-6.0858,-6.1637,-6.2618,-6.3362,-6.3869,-6.4343,-6.4613,-6.4613,-6.4613,-6.485,-6.5324,-6.5351,-6.5593,-4.4919,-4.4818,-4.4953,-4.6413,-4.6786,-4.7124,-4.8342,-4.8815,-4.9018,-4.9018,-4.9018,-4.9018,-4.9018,-4.9018,0.0,0.0,0.0,0.0,0.0,-4.6549,-4.7361,-4.7838,-4.8578,0.0,0.0,-4.6376,-4.5056,-4.3904,-4.253,-4.1961,-4.2381,-4.241,-4.301,-4.4257,-4.3898,-4.3988,-4.4646,-4.4257,-4.4257,-4.4646,-4.4955,-4.5859,-4.7225,-4.7121,-4.7273,-4.7572,-4.7239,-4.624,-4.4812,-4.4812,-4.4236,-4.329,-4.329,-4.329,-4.329,-4.329,-4.329,-4.329,-4.329,-4.329,-4.329,-4.329,-4.3439,-4.3648,-4.3648,-4.4137,-4.4676,-4.4676,-4.5454,-4.6279,-4.6279,-4.68,-4.7309,-4.7309,-4.7309,-4.7309,-4.7309,-4.7309,-4.7309,-4.7309,-4.7489,-4.7668,-4.7668,-4.8207,-4.8416,-4.7758,-4.8207,-4.8865,-4.9523,-5.0306,-5.1347,-5.275,-5.4134,-5.5495,-5.6843,-5.8428,-5.9742,-6.0486,-6.1028,-6.1535,-6.2076,-6.326,-6.414,-6.4681,-6.5155,-6.5662,-6.6203,-6.5662,-6.5764,-6.6474,-6.6474,-6.6541]},{"header":{"parameterUnit":"m.s-1","parameterCategory":1,"la1":30.6,"la2":29.2853,"lo1":-89.7004,"lo2":-87.6739,"dy":0.0162,"dx":0.0183,"nx":112,"ny":82,"refTime":"2024-02-22T18:00:00:Z","depth":0,"parameterNumber":3,"parameterNumberName":"V-component_of_WINDS"},"data":[0.0,0.0,0.0,0.0,0.0,0.0,0.0,0.0,0.0,0.0,0.0,0.0,0.0,0.0,0.0,0.0,0.0,0.0,0.0,0.0,0.0,0.0,0.0,0.0,0.0,0.0,0.0,0.0,0.0,0.0,0.0,0.0,0.0,0.0,0.0,0.0,0.0,0.0,0.0,0.0,0.0,0.0,0.0,0.0,0.0,0.0,0.0,0.0,0.0,0.0,0.0,0.0,0.0,0.0,0.0,0.0,0.0,0.0,0.0,0.0,0.0,0.0,0.0,0.0,0.0,0.0,0.0,0.0,0.0,0.0,0.0,0.0,0.0,0.0,0.0,0.0,0.0,0.0,0.0,0.0,0.0,0.0,0.0,0.0,0.0,0.0,0.0,0.0,0.0,0.0,-1.3144,-1.0265,-1.0928,-1.1504,-1.1402,-1.3587,-1.4829,-1.4372,0.0,0.0,0.0,0.0,0.0,0.0,0.0,0.0,0.0,0.0,0.0,0.0,0.0,0.0,0.0,0.0,0.0,0.0,0.0,0.0,0.0,0.0,0.0,0.0,0.0,0.0,0.0,0.0,0.0,0.0,0.0,0.0,0.0,0.0,0.0,0.0,0.0,0.0,0.0,0.0,0.0,0.0,0.0,0.0,0.0,0.0,0.0,0.0,0.0,0.0,0.0,0.0,0.0,0.0,0.0,0.0,0.0,0.0,0.0,0.0,0.0,0.0,0.0,0.0,0.0,0.0,0.0,0.0,0.0,0.0,0.0,0.0,0.0,0.0,0.0,0.0,0.0,0.0,0.0,0.0,0.0,0.0,0.0,0.0,0.0,0.0,0.0,0.0,0.0,0.0,0.0,0.0,0.0,0.0,0.0,0.0,0.0,0.0,0.0,0.0,0.0,0.0,0.0,0.0,-1.2907,-1.0941,-1.105,-1.1274,-1.1382,-1.2717,-1.3708,-1.3981,0.0,0.0,0.0,0.0,0.0,0.0,0.0,0.0,0.0,0.0,0.0,0.0,0.0,0.0,0.0,0.0,0.0,0.0,0.0,0.0,0.0,0.0,0.0,0.0,0.0,0.0,0.0,0.0,0.0,0.0,0.0,0.0,0.0,0.0,0.0,0.0,0.0,0.0,0.0,0.0,0.0,0.0,0.0,0.0,0.0,0.0,0.0,0.0,0.0,0.0,0.0,0.0,0.0,0.0,0.0,0.0,0.0,0.0,0.0,0.0,0.0,0.0,0.0,0.0,0.0,0.0,0.0,0.0,0.0,0.0,0.0,0.0,0.0,0.0,0.0,0.0,0.0,0.0,0.0,0.0,0.0,0.0,0.0,0.0,0.0,0.0,0.0,0.0,0.0,0.0,0.0,0.0,0.0,0.0,0.0,0.0,0.0,0.0,0.0,0.0,0.0,0.0,0.0,-1.2302,-1.1137,-1.0733,-1.0907,-1.1446,-1.2368,-1.3035,-1.3897,-1.5135,-1.6564,0.0,0.0,0.0,0.0,0.0,0.0,0.0,0.0,0.0,0.0,0.0,0.0,0.0,0.0,0.0,0.0,0.0,0.0,0.0,0.0,0.0,0.0,0.0,0.0,0.0,0.0,0.0,0.0,0.0,0.0,0.0,0.0,0.0,0.0,0.0,0.0,0.0,0.0,0.0,0.0,0.0,0.0,0.0,0.0,0.0,0.0,0.0,0.0,0.0,0.0,0.0,0.0,0.0,0.0,0.0,0.0,0.0,0.0,0.0,0.0,0.0,0.0,0.0,0.0,0.0,0.0,0.0,0.0,0.0,0.0,0.0,0.0,0.0,0.0,0.0,0.0,0.0,0.0,0.0,0.0,0.0,0.0,0.0,0.0,0.0,0.0,0.0,0.0,0.0,0.0,0.0,0.0,0.0,0.0,0.0,0.0,0.0,0.0,0.0,0.0,0.0,0.0,-1.1903,-1.0337,-1.1438,-1.1497,-1.2066,-1.3596,-1.3761,-1.448,-1.5966,-1.6309,0.0,0.0,0.0,0.0,0.0,0.0,0.0,0.0,0.0,0.0,0.0,0.0,0.0,0.0,0.0,0.0,0.0,0.0,0.0,0.0,0.0,0.0,0.0,0.0,0.0,0.0,0.0,0.0,0.0,0.0,0.0,0.0,0.0,0.0,0.0,0.0,0.0,0.0,0.0,0.0,0.0,0.0,0.0,0.0,0.0,0.0,0.0,0.0,0.0,0.0,0.0,0.0,0.0,0.0,0.0,0.0,0.0,0.0,0.0,0.0,0.0,0.0,0.0,0.0,0.0,0.0,0.0,0.0,0.0,0.0,0.0,0.0,0.0,0.0,0.0,0.0,0.0,0.0,0.0,0.0,0.0,0.0,0.0,0.0,0.0,0.0,0.0,0.0,0.0,0.0,0.0,0.0,0.0,0.0,0.0,0.0,0.0,0.0,0.0,0.0,0.0,0.0,-1.3079,-1.2252,-1.4461,-1.3758,-1.3587,-1.4774,-1.4872,-1.504,-1.5452,-1.5476,0.0,0.0,0.0,0.0,0.0,0.0,0.0,0.0,0.0,0.0,0.0,0.0,0.0,0.0,0.0,0.0,0.0,0.0,0.0,0.0,0.0,0.0,0.0,0.0,0.0,0.0,0.0,0.0,0.0,0.0,0.0,0.0,0.0,0.0,0.0,0.0,0.0,0.0,0.0,0.0,0.0,0.0,0.0,0.0,0.0,0.0,0.0,0.0,0.0,0.0,0.0,0.0,0.0,0.0,0.0,0.0,0.0,0.0,0.0,0.0,0.0,0.0,0.0,0.0,0.0,0.0,0.0,0.0,0.0,0.0,0.0,0.0,0.0,0.0,0.0,0.0,0.0,0.0,0.0,0.0,0.0,0.0,0.0,0.0,0.0,0.0,0.0,0.0,0.0,0.0,0.0,0.0,0.0,0.0,0.0,0.0,0.0,0.0,0.0,0.0,0.0,0.0,-1.3825,-1.3346,-1.4719,-1.4577,-1.4876,-1.6248,-1.6209,-1.6333,-1.6712,0.0,0.0,0.0,0.0,0.0,0.0,0.0,0.0,0.0,0.0,0.0,0.0,0.0,0.0,0.0,0.0,0.0,0.0,0.0,0.0,0.0,0.0,0.0,0.0,0.0,0.0,0.0,0.0,0.0,0.0,0.0,0.0,0.0,0.0,0.0,0.0,0.0,0.0,0.0,0.0,0.0,0.0,0.0,0.0,0.0,0.0,0.0,0.0,0.0,0.0,0.0,0.0,0.0,0.0,0.0,0.0,0.0,0.0,0.0,0.0,0.0,0.0,0.0,0.0,0.0,0.0,0.0,0.0,0.0,0.0,0.0,0.0,0.0,0.0,0.0,0.0,0.0,0.0,0.0,0.0,0.0,0.0,0.0,0.0,0.0,0.0,0.0,0.0,0.0,0.0,0.0,0.0,0.0,0.0,0.0,0.0,0.0,0.0,0.0,0.0,0.0,0.0,-1.5846,-1.4886,-1.4614,-1.5946,-1.5885,-1.6221,-1.7515,-1.6839,-1.6679,-1.7436,0.0,0.0,0.0,0.0,0.0,0.0,0.0,0.0,0.0,0.0,0.0,0.0,0.0,0.0,0.0,0.0,0.0,0.0,0.0,0.0,0.0,0.0,0.0,0.0,0.0,0.0,0.0,0.0,0.0,0.0,0.0,0.0,0.0,0.0,0.0,0.0,0.0,0.0,0.0,0.0,0.0,0.0,0.0,0.0,0.0,0.0,0.0,0.0,0.0,0.0,0.0,0.0,0.0,0.0,0.0,0.0,0.0,0.0,0.0,0.0,0.0,0.0,0.0,0.0,0.0,0.0,0.0,0.0,0.0,0.0,0.0,0.0,0.0,0.0,0.0,0.0,0.0,0.0,0.0,0.0,0.0,0.0,0.0,0.0,0.0,0.0,0.0,0.0,0.0,0.0,0.0,0.0,0.0,0.0,0.0,0.0,0.0,0.0,0.0,0.0,0.0,0.0,-1.7422,-1.6348,-1.633,-1.8625,-1.788,-1.7574,-1.8446,-1.6627,-1.5929,0.0,0.0,0.0,0.0,0.0,0.0,0.0,0.0,0.0,0.0,0.0,0.0,0.0,0.0,0.0,0.0,0.0,0.0,0.0,0.0,0.0,0.0,0.0,0.0,0.0,0.0,0.0,0.0,0.0,0.0,0.0,0.0,0.0,0.0,0.0,0.0,0.0,0.0,0.0,0.0,0.0,0.0,0.0,0.0,0.0,0.0,0.0,0.0,0.0,0.0,0.0,0.0,0.0,0.0,0.0,0.0,0.0,0.0,0.0,0.0,0.0,0.0,0.0,0.0,0.0,0.0,0.0,0.0,0.0,0.0,0.0,0.0,0.0,0.0,0.0,0.0,0.0,0.0,0.0,0.0,0.0,0.0,0.0,0.0,0.0,0.0,0.0,0.0,0.0,0.0,0.0,0.0,0.0,0.0,0.0,0.0,0.0,0.0,0.0,0.0,0.0,0.0,0.0,-1.7206,-1.6925,-1.7171,-1.8475,-1.8125,-1.7806,-1.7836,-1.6727,-1.6179,-1.6526,0.0,0.0,0.0,0.0,0.0,0.0,0.0,0.0,0.0,0.0,0.0,0.0,0.0,0.0,0.0,0.0,0.0,0.0,0.0,0.0,0.0,0.0,0.0,0.0,0.0,0.0,0.0,0.0,0.0,0.0,0.0,0.0,0.0,0.0,0.0,0.0,0.0,0.0,0.0,0.0,0.0,0.0,0.0,0.0,0.0,0.0,0.0,0.0,0.0,0.0,0.0,0.0,0.0,0.0,0.0,0.0,0.0,0.0,0.0,0.0,0.0,0.0,0.0,0.0,0.0,0.0,0.0,0.0,0.0,0.0,0.0,0.0,0.0,0.0,0.0,0.0,0.0,0.0,0.0,0.0,0.0,0.0,0.0,0.0,0.0,0.0,0.0,0.0,0.0,0.0,0.0,0.0,0.0,0.0,0.0,0.0,0.0,0.0,0.0,0.0,0.0,0.0,-1.7085,-1.7099,-1.7275,-1.805,-1.7862,-1.7569,-1.7261,-1.6647,-1.6219,-1.6099,0.0,0.0,0.0,0.0,0.0,0.0,0.0,0.0,0.0,0.0,0.0,0.0,0.0,0.0,0.0,0.0,0.0,0.0,0.0,0.0,0.0,0.0,0.0,0.0,0.0,0.0,0.0,0.0,0.0,0.0,0.0,0.0,0.0,0.0,0.0,0.0,0.0,0.0,0.0,0.0,0.0,0.0,0.0,0.0,0.0,0.0,0.0,0.0,0.0,0.0,0.0,0.0,0.0,0.0,0.0,0.0,0.0,0.0,0.0,0.0,0.0,0.0,0.0,0.0,0.0,0.0,0.0,0.0,0.0,0.0,0.0,0.0,0.0,0.0,0.0,0.0,0.0,0.0,0.0,0.0,0.0,0.0,0.0,0.0,0.0,0.0,0.0,0.0,0.0,0.0,0.0,0.0,0.0,0.0,0.0,0.0,0.0,0.0,0.0,0.0,0.0,0.0,-1.7018,-1.6834,-1.6887,-1.7435,-1.73,-1.7005,-1.6687,-1.638,-1.6072,-1.5758,0.0,0.0,0.0,0.0,0.0,0.0,0.0,0.0,0.0,0.0,0.0,0.0,0.0,0.0,0.0,0.0,0.0,0.0,0.0,0.0,0.0,0.0,0.0,0.0,0.0,0.0,0.0,0.0,0.0,0.0,0.0,0.0,0.0,0.0,0.0,0.0,0.0,0.0,0.0,0.0,0.0,0.0,0.0,0.0,0.0,0.0,0.0,0.0,0.0,0.0,0.0,0.0,0.0,0.0,0.0,0.0,0.0,0.0,0.0,0.0,-2.5384,-2.5692,0.0,0.0,0.0,0.0,0.0,0.0,0.0,0.0,0.0,0.0,0.0,0.0,0.0,0.0,0.0,0.0,0.0,0.0,0.0,0.0,0.0,0.0,0.0,0.0,0.0,0.0,0.0,0.0,0.0,0.0,0.0,0.0,0.0,0.0,0.0,0.0,0.0,0.0,0.0,0.0,-1.6455,-1.6455,-1.65,-1.686,-1.6633,-1.6482,-1.6366,-1.5885,-1.5551,-1.5498,-1.5551,0.0,0.0,0.0,0.0,0.0,0.0,0.0,0.0,0.0,0.0,0.0,0.0,0.0,0.0,0.0,0.0,0.0,0.0,0.0,0.0,0.0,0.0,0.0,0.0,0.0,0.0,0.0,0.0,0.0,0.0,0.0,0.0,0.0,0.0,0.0,0.0,0.0,0.0,0.0,0.0,0.0,0.0,0.0,0.0,0.0,0.0,0.0,0.0,0.0,0.0,0.0,0.0,0.0,0.0,0.0,0.0,0.0,0.0,0.0,-2.5464,-2.5317,0.0,0.0,0.0,0.0,0.0,0.0,0.0,0.0,0.0,0.0,0.0,0.0,0.0,0.0,0.0,0.0,0.0,0.0,0.0,0.0,0.0,0.0,0.0,0.0,0.0,0.0,0.0,0.0,0.0,0.0,0.0,0.0,0.0,0.0,0.0,0.0,0.0,0.0,0.0,0.0,-1.6219,-1.6032,-1.6019,-1.6446,-1.6233,-1.6059,-1.6059,-1.5778,-1.5551,-1.5404,-1.5391,0.0,0.0,0.0,0.0,0.0,0.0,0.0,0.0,0.0,0.0,0.0,0.0,0.0,0.0,0.0,0.0,0.0,0.0,0.0,0.0,0.0,0.0,0.0,0.0,0.0,0.0,0.0,0.0,0.0,0.0,0.0,0.0,0.0,0.0,0.0,0.0,0.0,0.0,0.0,0.0,0.0,0.0,0.0,0.0,0.0,0.0,0.0,0.0,0.0,0.0,0.0,0.0,0.0,-2.6493,-2.6747,-2.7108,-2.6907,-2.6533,-2.6039,-2.6092,-2.5411,-2.4329,-2.4957,0.0,0.0,0.0,0.0,0.0,0.0,0.0,0.0,0.0,0.0,0.0,0.0,0.0,0.0,0.0,0.0,0.0,0.0,0.0,0.0,0.0,0.0,-1.9065,-1.8758,-1.8651,-1.833,-1.7353,0.0,0.0,0.0,0.0,0.0,0.0,0.0,0.0,0.0,0.0,0.0,-1.6059,-1.5698,-1.5605,-1.6139,-1.5979,-1.5784,-1.5784,-1.5784,-1.5712,-1.5418,-1.5391,-1.5391,0.0,0.0,0.0,0.0,0.0,0.0,0.0,0.0,0.0,0.0,0.0,0.0,0.0,0.0,0.0,0.0,0.0,0.0,0.0,0.0,0.0,0.0,0.0,0.0,0.0,0.0,0.0,0.0,0.0,0.0,0.0,0.0,-2.4302,-2.4556,0.0,0.0,0.0,0.0,0.0,0.0,0.0,0.0,0.0,0.0,0.0,0.0,0.0,-2.5879,-2.6213,-2.6507,-2.656,-2.64,-2.6907,-2.6921,-2.652,-2.672,-2.664,-2.6346,-2.66,0.0,-2.4556,-2.4155,0.0,0.0,0.0,0.0,0.0,0.0,0.0,0.0,0.0,0.0,0.0,0.0,0.0,0.0,0.0,0.0,0.0,0.0,0.0,0.0,0.0,0.0,-1.8089,-1.7836,-1.7569,-1.7326,-1.6847,-1.7435,-1.7729,-1.6874,-1.6567,-1.6326,0.0,0.0,0.0,0.0,0.0,0.0,-1.5498,-1.5444,-1.5524,-1.5845,-1.5845,-1.5784,-1.5784,-1.5784,-1.5712,-1.5418,-1.5391,-1.5391,-1.5391,-1.5391,0.0,0.0,0.0,0.0,0.0,0.0,0.0,0.0,0.0,0.0,0.0,0.0,0.0,0.0,0.0,0.0,0.0,0.0,0.0,0.0,0.0,0.0,0.0,0.0,0.0,0.0,0.0,0.0,0.0,-2.4449,-2.4676,-2.3981,-2.4743,-2.5077,0.0,0.0,0.0,0.0,0.0,0.0,0.0,0.0,0.0,-2.5999,-2.6453,-2.6907,-2.7375,-2.7669,-2.7843,-2.7883,-2.7976,-2.7883,-2.7629,-2.7589,-2.7495,-2.7388,-2.7509,-2.6921,-2.5812,-2.5064,-2.4529,-2.4142,0.0,0.0,0.0,0.0,-2.2979,-2.2914,-2.2712,-2.2311,-2.1857,-2.1911,0.0,0.0,0.0,0.0,0.0,0.0,0.0,-1.9052,-1.8758,-1.849,-1.8223,-1.7916,-1.7876,-1.7822,-1.7528,-1.7502,-1.7328,-1.6607,-1.6486,-1.6366,-1.5864,-1.5565,0.0,0.0,0.0,-1.4843,-1.5337,-1.5257,-1.5324,-1.5778,-1.5784,-1.5784,-1.5784,-1.5784,-1.5731,-1.5645,-1.5484,-1.5391,-1.5391,-1.5391,-1.5511,0.0,0.0,0.0,0.0,0.0,0.0,0.0,0.0,0.0,0.0,0.0,0.0,0.0,0.0,0.0,0.0,0.0,0.0,0.0,0.0,0.0,0.0,0.0,0.0,0.0,0.0,0.0,0.0,-2.4716,-2.489,-2.3487,-2.4823,-2.5438,0.0,0.0,0.0,0.0,0.0,0.0,-2.5625,-2.6333,-2.6827,-2.7068,-2.7562,-2.8083,-2.8591,-2.8751,-2.8938,-2.9152,-2.8778,-2.8604,-2.8591,-2.8283,-2.8221,-2.8221,-2.8221,-2.7722,-2.6974,-2.6026,-2.5104,-2.4262,-2.3674,-2.3247,-2.2966,-2.2954,-2.2887,-2.2739,-2.2659,-2.2392,-2.2044,-2.1844,-2.1376,-2.0762,-2.0027,0.0,0.0,0.0,0.0,-1.8637,-1.8424,-1.8317,-1.8223,-1.8022,-1.8156,-1.8183,-1.7876,-1.7355,-1.6844,-1.6402,-1.6326,-1.6233,-1.5792,-1.5297,0.0,-1.5257,-1.4669,-1.4429,-1.5084,-1.4977,-1.5044,-1.5551,-1.5605,-1.5605,-1.5605,-1.5671,-1.5712,-1.5712,-1.5578,-1.5471,-1.5404,-1.5471,-1.5471,-1.5391,0.0,0.0,0.0,0.0,0.0,0.0,0.0,0.0,0.0,0.0,0.0,0.0,0.0,0.0,0.0,0.0,0.0,0.0,0.0,0.0,0.0,0.0,0.0,0.0,0.0,0.0,0.0,0.0,0.0,-2.3474,-2.5358,0.0,0.0,0.0,0.0,-2.5983,-2.6159,-2.6573,-2.7121,-2.7455,-2.803,-2.8885,-2.9205,-2.9526,-2.982,-2.9566,-2.9446,-2.9459,-2.8885,-2.8604,-2.8591,-2.8283,-2.8221,-2.8221,-2.8221,-2.7963,-2.7562,-2.6413,-2.5411,-2.4556,-2.3981,-2.3567,-2.326,-2.2966,-2.2686,-2.2405,-2.2124,-2.1657,-2.1309,-2.2111,-2.1977,-2.136,-2.0147,-1.9786,0.0,0.0,-1.8303,-1.8063,-1.8009,-1.7849,-1.7702,-1.7929,-1.7836,-1.7555,-1.7313,-1.6777,-1.6362,-1.6335,-1.5832,-1.5458,-1.5418,0.0,-1.5008,-1.5022,-1.471,-1.4509,-1.4563,-1.4506,-1.4656,-1.5022,-1.5048,-1.5048,-1.5048,-1.5257,-1.5418,-1.5418,-1.5658,-1.5685,-1.5404,-1.5658,-1.5671,-1.5404,-1.5979,0.0,0.0,0.0,0.0,0.0,0.0,0.0,0.0,0.0,0.0,0.0,0.0,0.0,0.0,0.0,0.0,0.0,0.0,0.0,0.0,0.0,0.0,0.0,0.0,0.0,0.0,0.0,0.0,-2.5331,-2.6881,0.0,-2.644,-2.6881,-2.7188,-2.7081,-2.7535,-2.7989,-2.839,-2.9219,-2.9833,-3.0154,-3.0635,-3.0942,-3.1049,-3.0568,-3.0327,-3.0314,-2.9352,-2.8885,-2.8871,-2.8364,-2.8221,-2.8221,-2.7936,-2.7696,-2.7362,-2.656,-2.5945,-2.5384,-2.4422,-2.3875,-2.3554,-2.3046,-2.2792,-2.2659,-2.2365,-2.2004,-2.1603,-2.1149,-2.0615,-2.0027,-1.9426,-1.9105,-1.8891,-1.8584,-1.8263,-1.7982,-1.7995,-1.7809,-1.7609,-1.7716,-1.7515,-1.7326,-1.7219,-1.6737,-1.6321,-1.6321,-1.5952,-1.5671,-1.5671,-1.5284,-1.5075,-1.5217,-1.4669,-1.4376,-1.4763,-1.5228,-1.5388,-1.5026,-1.6227,-1.6477,-1.5143,-1.5704,-1.5894,-1.5214,-1.5217,-1.5231,-1.5169,-1.5217,-1.5217,-1.5124,-1.4693,-1.4924,0.0,0.0,0.0,0.0,0.0,0.0,0.0,0.0,0.0,0.0,0.0,0.0,0.0,0.0,0.0,0.0,0.0,0.0,0.0,0.0,0.0,0.0,0.0,0.0,0.0,-2.5798,-2.6507,-2.64,-2.7963,-2.8657,-2.7655,-2.819,-2.8511,-2.831,-2.9045,-2.9579,-2.9766,-3.0608,-3.1183,-3.1383,-3.157,-3.1717,-3.181,-3.1142,-3.0742,-3.0635,-2.9553,-2.8991,-2.8871,-2.8377,-2.8221,-2.8207,-2.7829,-2.7482,-2.7081,-2.6587,-2.6159,-2.5718,-2.4836,-2.4209,-2.3728,-2.3313,-2.3046,-2.2806,-2.2405,-2.2084,-2.1683,-2.0695,-2.0054,-1.9599,-1.9305,-1.9011,-1.8744,-1.8544,-1.8343,-1.8089,-1.7943,-1.7729,-1.7582,-1.7582,-1.7288,-1.7058,-1.7058,-1.654,-1.6126,-1.6126,-1.5965,-1.5784,-1.5784,-1.5431,-1.5223,-1.5364,-1.4736,-1.4491,-1.5265,-1.572,-1.5945,-1.5792,-1.7192,-1.7337,-1.54,-1.6184,-1.6226,-1.4905,-1.5003,-1.5017,-1.483,-1.5048,-1.5115,-1.5008,-1.4482,-1.4561,-1.5281,0.0,0.0,0.0,0.0,0.0,0.0,0.0,0.0,0.0,0.0,0.0,0.0,0.0,0.0,0.0,0.0,0.0,0.0,0.0,0.0,0.0,0.0,0.0,-2.4249,-2.6253,-2.7402,-2.66,-2.8551,-2.9499,-2.8435,-2.9641,-3.0167,-2.9593,-3.0608,-3.1263,-3.1263,-3.1543,-3.1957,-3.2616,-3.1984,-3.181,-3.2078,-3.1223,-3.0635,-3.0341,-2.9459,-2.8885,-2.8591,-2.8283,-2.8221,-2.8194,-2.7816,-2.7348,-2.6787,-2.6493,-2.6012,-2.5464,-2.5184,-2.4543,-2.3794,-2.3768,-2.3367,-2.282,-2.2178,-2.1777,-2.1507,-2.0869,-2.0481,-2.0174,-1.988,-1.9599,-1.931,-1.8664,-1.8504,-1.8357,-1.7756,-1.7595,-1.7582,-1.7569,-1.7128,-1.67,-1.67,-1.6233,-1.5784,-1.5784,-1.5784,-1.5784,-1.5784,-1.5591,-1.5404,-1.5464,-1.4955,0.0,-1.6048,-1.5977,-1.6221,-1.7245,-1.7821,-1.7456,-1.588,-1.6637,-1.6431,-1.4636,-1.5057,-1.511,-1.4536,-1.5057,-1.5231,-1.4918,-1.5491,-1.5281,-1.4298,0.0,0.0,0.0,0.0,0.0,0.0,0.0,0.0,0.0,0.0,0.0,0.0,0.0,0.0,0.0,0.0,0.0,0.0,0.0,0.0,0.0,-2.6701,-2.7754,-2.6313,-2.7028,-2.8003,-2.8845,-3.0087,-3.0742,-3.0408,-3.0942,-3.1249,-3.1076,-3.1557,-3.1957,-3.2171,-3.2265,-3.2278,-3.2225,-3.2064,-3.1824,-3.1476,-3.1022,-3.0541,-3.0034,-2.9352,-2.8885,-2.8591,-2.8283,-2.8114,-2.7802,-2.7509,-2.7054,-2.6466,-2.5959,-2.5411,-2.4863,-2.4796,-2.4609,-2.4315,-2.3688,-2.2926,-2.2178,-2.1804,-2.1483,-2.1176,-2.0802,-2.0481,-2.0174,-1.988,-1.9599,-1.9292,-1.8918,-1.8651,-1.8397,-1.8023,-1.7756,-1.7528,-1.7367,-1.6981,-1.6647,-1.6433,-1.6099,-1.5784,-1.5784,-1.5784,-1.5784,-1.5784,-1.5718,-1.598,-1.6915,-1.6737,-1.6892,-1.8129,-1.8667,-1.8785,-1.8279,-1.9788,-1.9638,-1.6759,-1.7482,-1.7031,-1.4666,-1.4669,-1.4589,-1.4215,-1.4362,-1.4151,-1.3562,-1.5045,-1.5226,0.0,0.0,0.0,0.0,0.0,0.0,0.0,0.0,0.0,0.0,0.0,0.0,0.0,0.0,0.0,0.0,0.0,0.0,0.0,0.0,0.0,0.0,-2.8671,-2.9588,-2.8176,-2.8337,-2.9045,-3.0154,-3.0955,-3.141,-3.141,-3.1797,-3.1984,-3.1864,-3.2238,-3.2545,-3.2719,-3.2492,-3.2398,-3.2465,-3.1998,-3.1637,-3.141,-3.0875,-3.0314,-2.9726,-2.9259,-2.8818,-2.8404,-2.8315,-2.7976,-2.7682,-2.7388,-2.6867,-2.6172,-2.5705,-2.509,-2.4449,0.0,0.0,0.0,0.0,-2.2458,-2.1777,-2.1681,-2.1283,-2.0895,-2.0735,-2.0388,-2.0013,-1.9853,-1.9599,-1.9336,-1.8865,-1.8624,-1.8397,-1.7969,-1.7716,-1.7515,-1.7273,-1.6927,-1.662,-1.6388,-1.6046,-1.5784,-1.5784,-1.5784,0.0,-1.5784,-1.5784,-1.6244,-1.7498,-1.7431,-1.7836,-1.957,-2.0022,-2.0111,-2.0021,-2.1301,-2.0898,-1.7731,-1.8337,0.0,0.0,0.0,-1.4816,-1.4643,-1.4629,0.0,0.0,0.0,-1.5188,-1.392,-1.5188,0.0,0.0,-1.6166,-1.6086,0.0,0.0,0.0,0.0,0.0,0.0,0.0,0.0,0.0,0.0,0.0,0.0,0.0,0.0,0.0,0.0,-3.0676,-3.0763,-2.9771,-2.9887,-3.0261,-3.0782,-3.133,-3.1664,-3.1664,-3.2171,-3.2398,-3.2171,-3.2666,-3.2986,-3.3026,-3.2505,0.0,0.0,0.0,-3.137,-3.157,-3.0728,-3.002,-2.9432,-2.9138,-2.8698,-2.8221,-2.8194,-2.7936,-2.7629,-2.7308,-2.6694,-2.5879,-2.5545,-2.4877,-2.4048,-2.4048,-2.3714,-2.3153,-2.2539,-2.1991,-2.1614,-2.1574,0.0,0.0,-2.0641,-2.0254,-1.9786,-1.972,-1.9519,-1.9199,-1.8611,-1.8437,-1.8303,-1.7689,-1.7528,-1.7501,-1.7179,-1.6847,-1.658,-1.6286,-1.6019,-1.5832,-1.5974,-1.6008,-1.6055,-1.6197,-1.6103,-1.6433,-1.7731,-1.7781,-1.8466,-2.0692,-2.0686,-2.0908,-2.1928,-2.2236,0.0,-1.8746,-1.8999,-1.8085,-1.5224,-1.5217,-1.5351,-1.5351,-1.5378,-1.4986,-1.4076,-1.5222,-1.5248,-1.4124,-1.5248,-1.5784,-1.5784,-1.5784,-1.5784,0.0,0.0,0.0,0.0,0.0,0.0,0.0,0.0,0.0,0.0,0.0,0.0,0.0,0.0,0.0,-3.1518,-3.3229,-3.3886,-3.0927,-3.0795,-3.1009,-3.1129,-3.145,-3.1664,-3.1664,-3.1984,-3.2265,-3.2452,-3.2786,-3.308,-3.332,-3.3,-3.2759,-3.2639,-3.1944,-3.1383,-3.0969,-3.0327,-2.97,-2.9125,-2.8831,0.0,-2.8221,-2.7896,-2.7629,-2.7321,-2.6787,-2.6186,-2.5558,-2.5024,-2.4142,-2.3126,-2.3126,-2.2899,-2.2525,-2.1937,-2.1722,-2.1588,-2.1283,-2.0962,-2.0641,-2.0401,-2.008,-1.9706,-1.9239,-1.9052,0.0,-1.8303,-1.8075,-1.7996,-1.7447,-1.7286,-1.7152,-1.6616,-1.6393,-1.6273,-1.5979,-1.5872,-1.6103,-1.7138,-1.7311,-1.7638,-1.8626,-1.7994,-1.7777,-1.8948,-1.9929,-2.0998,-2.2465,-2.2582,-2.2611,-2.2847,-2.2058,-2.0935,-1.9434,-1.8517,-1.7289,-1.5429,-1.5196,-1.5089,-1.5089,-1.5271,-1.5325,-1.51,-1.5557,-1.5676,-1.5439,-1.5676,-1.5784,-1.5784,-1.5784,-1.5784,0.0,0.0,0.0,0.0,0.0,0.0,0.0,0.0,0.0,0.0,0.0,-3.3107,-3.4775,0.0,-3.6062,-3.4004,-3.4416,-3.4022,-3.1378,-3.1263,-3.145,-3.145,-3.1583,-3.1664,-3.1664,-3.2064,-3.2385,-3.2629,-3.2812,-3.3106,-3.34,-3.2853,-3.2545,-3.2643,-3.169,-3.1089,-3.0795,-3.006,-2.9472,-2.9032,-2.8751,-2.8444,-2.8221,-2.7829,-2.7455,-2.7014,-2.6573,-2.5972,-2.5237,-2.4502,-2.3674,-2.2901,-2.2539,-2.2245,-2.1951,-2.1722,-2.1456,-2.1283,-2.0989,-2.0695,-2.0401,-2.0107,-1.9826,-1.9506,-1.9065,-1.8918,-1.8741,-1.8155,-1.7995,-1.7849,-1.7353,-1.7206,-1.7045,-1.6455,-1.6321,-1.6192,-1.5885,-1.5784,-1.6197,-1.7451,-1.7684,-1.8102,-1.9314,-1.9497,-1.9724,-2.0296,-2.0926,-2.1747,-2.295,-2.3101,-2.3101,-2.3101,-2.2031,-2.0792,-1.9588,-1.7809,-1.6411,-1.5665,-1.5471,-1.5391,-1.5391,-1.5538,-1.5618,-1.5618,-1.5704,-1.5784,-1.5784,-1.5784,-1.5784,-1.5784,-1.5784,-1.5784,0.0,0.0,0.0,0.0,0.0,0.0,0.0,0.0,-3.1669,-3.2506,-3.4054,-3.6018,-3.8536,-3.8844,-3.822,-3.6588,-3.5457,-3.4029,-3.1637,-3.1517,-3.165,-3.1597,-3.1637,-3.1664,-3.1664,-3.2144,-3.2465,-3.2465,-3.2732,-3.3,-3.3227,-3.2572,-3.2251,-3.2469,-3.1396,-3.0795,-3.0621,-2.9806,-2.9245,-2.8951,-2.8657,-2.8605,-2.8701,-2.7915,-2.7527,-2.7253,-2.6464,-2.5638,-2.477,-2.4062,-2.334,-2.2713,-2.2178,-2.1777,-2.1534,-2.1534,-2.1309,-2.1069,-2.0775,-2.0481,-2.0187,-1.9893,-1.9599,-1.9305,-1.8945,-1.8838,-1.8718,-1.8062,-1.7902,-1.7836,-1.734,-1.7152,-1.6978,-1.6455,-1.6233,-1.6126,-1.5885,-1.5974,-1.6527,-1.7824,-1.8226,-1.878,-1.9997,-2.0989,-2.1569,-2.1346,-2.1525,-2.1987,-2.295,-2.3101,-2.2994,-2.2775,-2.1676,-2.0342,-1.8902,-1.6936,-1.5784,-1.5784,-1.5784,-1.5784,-1.5784,-1.5784,-1.5784,-1.5784,-1.5784,-1.5784,-1.5784,-1.5784,-1.5784,-1.5784,-1.5784,-1.5784,-3.2067,-3.2598,-3.4023,-3.5059,-3.2115,-2.9457,0.0,0.0,-2.9048,-3.0073,-3.3842,-3.7228,-3.8058,-4.0865,-4.1825,-3.8133,-3.7655,-3.6339,-3.2218,-3.165,-3.157,-3.1303,-3.1503,-3.1664,-3.1664,-3.1957,-3.2144,-3.2144,-3.2425,-3.271,-3.2737,-3.2643,-3.2278,-3.1784,-3.1383,-3.0808,-3.002,-2.9392,-2.8938,-2.8644,-2.8337,-2.9021,-3.0401,-2.8331,-2.8008,-2.8983,-2.6399,-2.473,-2.3915,-2.3808,-2.31,-2.2071,-2.2017,-2.1643,-2.1162,-2.1162,-2.1136,-2.1069,-2.0775,-2.0481,-2.0187,-1.9893,-1.9599,-1.9265,-1.8704,-1.8544,-1.841,-1.7809,-1.7635,-1.7555,-1.7286,-1.7005,-1.6673,-1.6353,-1.6072,-1.5872,-1.5784,-1.6669,-1.787,-1.9039,-2.0161,-2.1302,-2.2492,-2.2818,-2.2536,-2.148,-2.2208,-2.295,-2.3101,-2.3101,-2.2687,-2.1614,-2.0432,-1.8764,-1.6433,-1.5974,-1.5784,-1.5784,-1.5784,-1.5784,-1.5784,-1.5784,-1.5784,-1.5784,-1.5784,-1.5784,-1.5784,-1.5784,-1.5784,-1.5784,-1.5784,-1.5784,-3.369,-3.289,0.0,0.0,-3.1513,-3.0255,-3.1511,-3.1421,-3.1402,-3.2498,-3.6048,-3.903,-3.9521,-4.1354,-4.1673,0.0,-3.7174,-3.5452,-3.2205,-3.1517,-3.1303,-3.1009,-3.0942,-3.1036,-3.1383,-3.1824,-3.2104,-3.2104,-3.2385,-3.2643,-3.2643,-3.2321,-3.1917,-3.1677,-3.0889,-3.0287,-2.9913,-2.9165,-2.8724,-2.8604,-2.9342,-3.0093,-3.0817,-3.0419,-2.953,-2.8134,-2.5672,-2.4168,-2.35,-2.3313,-2.2739,-2.1964,-2.1804,-2.147,-2.1109,-2.1109,-2.1002,-2.0815,-2.0521,-2.0227,-1.9933,-1.9639,-1.9466,-1.931,-1.8664,-1.849,-1.8357,-1.7756,-1.7582,-1.7515,-1.7273,-1.7112,-1.6847,-1.6429,-1.6746,-1.7118,-1.6932,-1.7855,-1.9085,-2.0314,-2.0944,-2.1658,-2.2906,-2.3101,-2.2906,-2.2403,-2.2775,-2.3101,-2.3101,-2.2492,-2.1302,-1.9405,-1.8764,-1.7716,-1.5961,-1.5784,-1.5784,-1.5784,-1.5784,-1.5784,-1.5784,-1.5784,-1.5784,-1.5784,-1.5784,-1.5784,-1.5784,-1.5784,-1.5784,-1.5784,-1.5784,-1.5784,-3.4654,0.0,0.0,-3.1997,-3.1435,-3.1079,-3.1397,-3.1713,-3.2422,-3.4282,-3.7249,-3.9836,-4.0866,-4.2193,-4.2347,-3.972,-3.7654,-3.5665,-3.3744,-3.2104,-3.1234,-3.1482,-3.0741,-3.0287,-3.0702,-3.1276,-3.169,-3.1851,-3.2064,-3.2185,-3.2185,-3.1784,-3.1436,-3.1196,-3.0368,-2.9793,-2.9553,-2.8925,-2.8524,-2.835,-3.0015,-3.0941,-3.1186,-3.1715,-3.0325,-2.7418,-2.5174,-2.3821,-2.318,-2.2953,-2.2472,-2.1844,-2.1695,-2.1376,-2.1096,-2.1015,-2.0855,-2.0615,-2.0241,-1.9973,-1.976,-1.9466,-1.943,-1.9279,-1.8758,-1.8557,-1.8384,-1.7862,-1.7649,-1.7542,-1.738,-1.7259,-1.7174,-1.6944,-1.7529,-1.812,-1.8164,-1.9131,-2.0268,-2.1141,-2.1587,-2.2076,-2.295,-2.3101,-2.3101,-2.3101,-2.3101,-2.3101,-2.3101,-2.1765,-1.9997,-1.7917,-1.7404,-1.681,-1.5879,-1.5784,-1.5784,-1.5784,-1.5784,-1.5784,-1.5784,-1.5784,-1.5784,-1.5784,-1.5784,-1.5784,-1.5784,-1.5784,-1.5784,-1.5784,-1.5784,-1.5784,0.0,0.0,-3.4288,-3.3074,-3.2424,-3.1738,-3.0659,-2.9748,-3.0161,-3.3649,-3.6431,-3.8961,-4.1496,-4.426,-4.5239,-4.2381,-4.0207,-3.8679,-3.8137,-3.3861,-3.1482,-3.3146,-3.1063,-2.9513,0.0,-3.0074,-3.0648,-3.1209,-3.1263,-3.1263,-3.1263,-3.1249,-3.0849,-2.9993,-2.994,-2.9513,-2.8657,-2.8617,-2.831,-2.7722,-2.9799,-3.1284,-3.2217,-3.1399,-2.9769,-2.7418,-2.5174,-2.3701,-2.2873,-2.2928,-2.2418,-2.1628,-2.1614,-2.1376,-2.1082,-2.0788,-2.0681,-2.0588,-2.0013,-1.9813,-1.976,-1.9466,-1.943,-1.9319,-1.8998,-1.8718,-1.8424,-1.8062,-1.7809,-1.7582,-1.7569,-1.7407,-1.7418,-1.8236,-1.8256,-1.8358,-1.9258,-2.0387,-2.1239,-2.1302,-2.2252,-2.3057,-2.3101,-2.3101,-2.3101,-2.3101,-2.3101,-2.3101,-2.3101,-2.1033,-1.9085,-1.7824,-1.6574,-1.5832,-1.5784,-1.5784,-1.5784,-1.5784,-1.5784,-1.5784,-1.5784,-1.5784,-1.5784,-1.5784,-1.5784,-1.5784,-1.5784,-1.5784,-1.5784,-1.5784,-1.5784,-1.5784,-3.3939,0.0,-3.3614,-3.256,-3.1866,-3.1085,-3.0013,-2.9995,-3.0867,-3.3365,-3.553,-3.7598,-3.9543,-4.2001,-4.3004,-4.0608,-4.0453,-3.9942,-3.8191,-3.5334,-3.3387,-3.3098,-3.0997,0.0,0.0,0.0,0.0,-3.0608,-3.0648,-3.0742,-3.0929,-3.0568,-3.0221,-2.9927,-2.9352,-2.8911,-2.8604,-2.9804,-3.0217,-2.9785,-3.2503,-3.4145,-3.4692,-3.1887,-2.9834,-2.8138,-2.4804,-2.3033,-2.2539,-2.2151,-2.1882,-2.1601,-2.1336,-2.1082,-2.0788,-2.0494,-2.0267,-2.0067,-1.9867,-1.9679,-1.9466,-1.9172,-1.9199,-1.9239,-1.8557,-1.841,-1.8384,-1.7876,-1.7662,-1.7582,-1.7582,-1.8168,-1.8825,-1.8959,-1.9989,-2.0968,-2.1118,-2.1878,-2.2492,-2.2492,-2.2818,-2.3101,-2.3101,-2.3101,-2.3101,-2.3101,-2.2403,-2.1632,-2.0809,-1.9314,-1.7809,-1.6574,-1.6055,-1.5784,-1.5784,-1.5784,-1.5784,-1.5784,-1.5784,-1.5784,-1.5784,-1.5784,-1.5784,-1.5784,-1.5784,-1.5784,-1.5784,-1.5784,-1.5784,-1.5784,-1.5784,-1.5784,-3.4669,-3.477,-3.4042,-3.2989,-3.2162,-3.125,-3.0138,-3.0854,-3.2365,-3.4438,-3.6005,-3.7497,-3.8901,-4.0328,-4.0917,-3.9789,-3.9723,-3.9462,-3.8646,-3.581,-3.3516,-3.3126,-3.0702,-2.8938,0.0,0.0,0.0,-2.9993,-3.014,-3.0234,-3.0314,-3.006,-2.9766,-2.9459,-2.9649,-2.9703,-2.9592,-3.1392,-3.2389,-3.2411,-3.4145,-3.5296,-3.5879,-3.2018,-2.9672,-2.8427,-2.4621,-2.2579,-2.2084,-2.171,-2.1561,-2.1376,-2.1189,-2.0935,-2.0641,-2.0347,-2.0054,-1.9786,-1.9679,-1.9519,-1.9319,-1.9025,-1.9118,-1.9225,-1.8437,-1.8343,-1.8384,-1.7889,-1.7662,-1.7687,-1.8199,-1.8968,-1.9743,-2.0416,-2.1633,-2.2666,-2.2825,-2.3229,-2.351,-2.3398,-2.3379,-2.3276,-2.312,-2.3218,-2.3144,-2.2555,-2.1563,-2.0542,-1.9604,-1.8457,-1.7232,-1.5927,-1.5784,-1.5784,-1.5784,-1.5784,-1.5784,-1.5784,-1.5784,-1.5784,-1.5784,-1.5784,-1.5784,-1.5784,-1.5784,-1.5784,-1.5784,-1.5784,-1.5784,-1.5784,-1.5784,-1.5784,-3.5782,-3.5917,-3.5504,-3.4054,-3.3088,-3.212,-3.0709,-3.1991,-3.4169,-3.6425,-3.7465,-3.8249,0.0,0.0,-3.9238,-3.9726,-3.8359,-3.7837,-3.9784,-3.5366,-3.2293,0.0,0.0,0.0,0.0,0.0,0.0,-2.9392,0.0,-2.9753,-2.9472,-2.9726,-2.9486,-2.8631,-3.0636,-3.1622,-3.1407,-3.321,-3.4528,-3.5386,-3.4667,-3.49,-3.5802,-3.172,-2.929,-2.813,-2.4491,-2.2405,-2.1614,-2.1601,-2.1363,-2.1109,-2.1109,-2.0922,-2.0615,-2.0395,-2.016,-1.9851,-1.9685,-1.9591,-1.9435,-1.9025,-1.9176,-1.9367,-1.8707,-1.8477,-1.8424,-1.8062,-1.7862,-1.7989,-1.9265,-1.9679,-2.0358,-2.2512,-2.3057,-2.3334,-2.4253,-2.4434,-2.4297,-2.3906,-2.3828,-2.3691,-2.3237,-2.3555,-2.3249,-2.1607,-2.064,-1.9956,-1.9471,-1.838,-1.7138,-1.594,-1.5784,-1.5784,-1.5784,-1.5784,-1.5784,-1.5784,-1.5784,-1.5784,-1.5784,-1.5784,-1.5784,-1.5784,-1.5784,-1.5784,-1.5784,-1.5784,-1.5784,-1.5784,-1.5784,-1.5784,-3.6051,-3.5041,-3.3756,-3.2628,-3.1266,-3.0205,-2.9851,-3.1525,-3.3357,-3.3916,-3.4708,-3.5446,0.0,0.0,0.0,-3.8301,-3.9855,0.0,-3.9866,-3.7874,0.0,-3.3616,0.0,-2.9927,-2.9419,-2.9232,0.0,0.0,-2.9219,-2.9232,-2.9152,-2.9219,-2.9058,-2.8617,-3.0519,-3.1482,-3.1392,-3.4154,-3.6059,-3.7234,-3.6412,-3.5692,-3.4887,-3.1195,-2.8909,-2.7686,-2.3865,-2.1964,-2.1601,-2.1309,-2.1176,-2.1109,-2.1109,-2.0802,-2.0456,-2.1509,-2.1583,-2.1305,-2.2297,-2.1983,-2.0816,-1.9339,-1.989,-2.0643,-1.8727,-1.8317,-1.8384,-1.7849,-1.8359,-1.9161,-1.9524,-2.11,-2.28,-2.3359,-2.4052,-2.464,-2.4875,-2.4648,-2.4375,-2.4277,-2.4258,-2.4219,-2.4102,-2.418,-2.3741,-2.2315,-2.0984,-1.9711,-1.8612,-1.7174,-1.6245,-1.6187,-1.5965,-1.5784,-1.5784,-1.5784,-1.5784,-1.5784,-1.5784,-1.5784,-1.5784,-1.5784,-1.5784,-1.5784,-1.5784,-1.5784,-1.5784,-1.5784,-1.5784,-1.5784,-1.5784,-1.5784,-3.6451,-3.5192,-3.3856,-3.2532,-3.0834,-2.9555,-2.9918,-3.159,-3.2964,-3.2956,-3.3675,0.0,-3.3882,0.0,0.0,0.0,0.0,0.0,-3.794,-3.7283,-3.5701,0.0,-3.1048,0.0,-2.9887,-2.9633,-2.9366,0.0,-2.9045,-2.8991,-2.8858,-2.9766,-3.0113,-2.9818,-3.2721,-3.4583,-3.5146,-3.662,-3.7478,-3.7637,-3.6797,-3.5801,-3.4622,-3.1648,-2.9668,-2.8391,-2.4735,-2.2891,-2.2469,-2.2286,-2.2215,-2.2201,-2.2075,-2.1723,-2.1392,-2.2009,-2.1976,-2.1813,-2.3263,-2.371,-2.3143,-2.0652,-2.1107,-2.204,-1.9112,-1.8865,-1.943,-1.832,-1.9014,-2.0219,-2.0783,-2.2603,-2.4372,-2.4777,-2.5312,-2.5586,-2.541,-2.5176,-2.4941,-2.4746,-2.4551,-2.4414,-2.4414,-2.457,-2.4209,-2.2735,-2.1937,-2.0982,-1.9652,-1.7294,-1.5939,-1.6246,-1.6005,-1.5784,-1.5784,-1.5784,-1.5784,-1.5784,-1.5784,-1.5784,-1.5784,-1.5784,-1.5784,-1.5784,-1.5784,-1.5784,-1.5784,-1.5784,-1.5784,-1.5784,-1.5784,-1.5784,-3.6796,-3.5794,-3.4744,-3.2797,-3.0881,-2.967,-3.0349,-3.1764,-3.2808,-3.2646,0.0,-3.3633,-3.2715,-3.2969,-3.3809,-3.5234,0.0,-3.7035,-3.5527,-3.5043,-3.3816,-3.1117,-3.01,-2.9833,-3.0261,-2.9847,-2.9406,-2.9072,-2.9252,-2.9263,-2.8978,-3.1044,-3.2221,-3.2217,-3.5892,-3.8517,-3.9902,-3.9316,-3.8457,-3.7285,-3.6367,-3.5508,-3.4622,-3.2374,-3.0799,-2.9537,-2.6312,-2.4426,-2.3636,-2.3807,-2.3807,-2.3606,-2.349,-2.3263,-2.2957,-2.277,-2.246,-2.242,-2.3877,-2.5261,-2.5864,-2.2506,-2.2506,-2.3206,-1.9848,-1.9903,-2.0811,-1.9209,-1.9975,-2.1572,-2.2695,-2.4123,-2.5455,-2.6214,-2.6426,-2.6348,-2.5791,-2.5693,-2.5644,-2.5312,-2.4883,-2.4609,-2.4668,-2.4941,-2.464,-2.3012,-2.3069,-2.2832,-2.1411,-1.8468,-1.656,-1.6822,-1.6573,-1.6285,-1.6069,-1.6055,-1.5961,-1.5832,-1.5784,-1.5784,-1.5784,-1.5784,-1.5784,-1.5784,-1.5784,-1.5784,-1.5784,-1.5784,-1.5784,-1.5784,-1.5872,-1.5885,-3.6632,-3.5875,-3.5083,-3.131,-2.9913,-2.9615,-3.0159,-3.124,0.0,0.0,-3.1937,-3.2656,-3.1445,-3.2148,0.0,-3.5586,0.0,0.0,0.0,0.0,-3.2896,0.0,0.0,0.0,-3.0034,-2.99,0.0,0.0,-3.0467,-3.1168,-3.093,-3.3218,-3.5178,-3.6682,-3.7177,-3.8239,-3.9902,-3.873,-3.7851,-3.7285,-3.6074,-3.5215,-3.4622,-3.2374,-3.0799,-2.9599,-2.7533,-2.5486,-2.3698,-2.5024,-2.4778,-2.3745,-2.5005,-2.5071,-2.4662,-2.5829,-2.5817,-2.5535,-2.7006,-2.7672,-2.7438,-2.4348,-2.355,-2.3406,-2.136,-2.0881,-2.0962,-2.0485,-2.2199,-2.4333,-2.4542,-2.5618,-2.6589,-2.6434,-2.666,-2.6699,-2.5849,-2.5693,-2.5771,-2.6113,-2.5801,-2.5625,-2.5996,-2.5801,-2.513,-2.3699,-2.3365,-2.2872,-2.1762,-2.0622,-1.9926,-1.9846,-1.9526,-1.8848,-1.7481,-1.7358,-1.6904,-1.5879,-1.5784,-1.5784,-1.5784,-1.5784,-1.5784,-1.5784,-1.5784,-1.5784,-1.5784,-1.5784,-1.5784,-1.5784,-1.6086,-1.6192,-3.7096,-3.6264,-3.5358,-3.1215,-3.0472,-3.078,-3.0408,0.0,0.0,0.0,-3.1248,-3.1621,-3.0996,0.0,0.0,0.0,0.0,0.0,0.0,0.0,0.0,0.0,0.0,0.0,0.0,-2.9633,-2.9697,-3.041,-3.2395,-3.2964,-3.1661,-3.4752,-3.7428,-3.9212,-3.9101,-3.9071,-3.9219,-3.8359,-3.7598,-3.6953,-3.5644,-3.4922,-3.4687,-3.3146,-3.191,-3.0888,-2.9164,-2.7548,-2.6183,-2.6953,-2.6772,-2.6167,-2.6807,-2.6689,-2.6226,-2.6718,-2.655,-2.6318,-2.778,-2.8301,-2.8067,-2.6608,-2.5608,-2.4675,-2.307,-2.2506,-2.2474,-2.2371,-2.3891,-2.5593,-2.5593,-2.6469,-2.7305,-2.7109,-2.6875,-2.6582,-2.6172,-2.6074,-2.6133,-2.6348,-2.6387,-2.6465,-2.668,-2.6367,-2.5877,-2.5194,-2.4786,-2.4335,-2.3863,-2.3505,-2.2743,-2.111,-2.0616,-1.986,-1.8336,-1.824,-1.7664,-1.6335,-1.6286,-1.6219,-1.6072,-1.6059,-1.5992,-1.5784,-1.5784,-1.5784,-1.5784,-1.5979,-1.6059,-1.6072,-1.6366,-1.65,-3.7607,-3.6752,-3.5915,-3.1562,-3.1338,-3.1879,-3.0754,-3.1338,0.0,0.0,-3.0898,-3.0898,-3.0898,0.0,0.0,0.0,0.0,0.0,0.0,0.0,0.0,0.0,0.0,0.0,0.0,0.0,0.0,-3.1643,-3.3746,-3.4653,-3.3829,-3.6839,-3.9187,-4.0451,-4.0332,-3.9707,-3.8594,-3.7969,-3.7324,-3.666,-3.5332,-3.4707,-3.4668,-3.3809,-3.2969,-3.2107,-3.0808,-2.9532,-2.8426,-2.8783,-2.8724,-2.8372,-2.8462,-2.8228,-2.784,-2.7454,-2.7032,-2.6846,-2.8022,-2.8359,-2.8301,-2.8301,-2.7276,-2.5882,-2.4654,-2.4267,-2.4267,-2.4267,-2.5388,-2.6554,-2.6554,-2.721,-2.7865,-2.7865,-2.7148,-2.6543,-2.6641,-2.6582,-2.6543,-2.6641,-2.6855,-2.7051,-2.7129,-2.6797,-2.6523,-2.6523,-2.6152,-2.583,-2.583,-2.5752,-2.479,-2.24,-2.1873,-2.099,-1.9277,-1.9131,-1.841,-1.68,-1.67,-1.658,-1.6335,-1.6321,-1.6126,-1.5784,-1.5885,-1.5925,-1.5925,-1.6219,-1.6366,-1.638,-1.666,-1.6807,-3.7742,-3.7365,-3.6977,-3.1978,-3.1662,-3.2154,-3.1024,0.0,0.0,-3.1067,-3.0898,-3.0898,-3.0898,0.0,0.0,0.0,0.0,0.0,0.0,0.0,0.0,0.0,0.0,0.0,0.0,0.0,0.0,-3.1467,-3.3479,-3.6414,-4.0156,-4.0704,-4.0802,-4.0547,-3.9746,-3.9082,-3.8574,-3.7383,-3.6738,-3.666,-3.5332,-3.4707,-3.4668,-3.3809,-3.2969,-3.2168,-3.2046,-3.06,-2.8545,-3.002,-2.9785,-2.8491,-2.9584,-2.9985,-2.9907,-2.948,-2.9053,-2.8684,-2.8813,-2.8613,-2.8301,-2.8301,-2.7276,-2.61,-2.5936,-2.5882,-2.5882,-2.5899,-2.6971,-2.8121,-2.8121,-2.8155,-2.8242,-2.8242,-2.7578,-2.707,-2.7513,-2.7246,-2.707,-2.7532,-2.7266,-2.7148,-2.7539,-2.7246,-2.6953,-2.6953,-2.6602,-2.6328,-2.6328,-2.5977,-2.5577,-2.5324,-2.4919,-2.3529,-2.0651,-2.0425,-1.9359,-1.685,-1.67,-1.658,-1.6335,-1.6321,-1.6126,-1.5784,-1.6099,-1.6233,-1.6233,-1.6526,-1.666,-1.6673,-1.7018,-1.7166,-3.742,-3.7195,-3.6744,-3.1992,-3.2046,-3.2792,-3.0966,0.0,0.0,-3.117,-3.0898,-3.0898,-3.0898,0.0,0.0,0.0,0.0,0.0,0.0,0.0,0.0,0.0,0.0,0.0,0.0,0.0,-3.4066,-3.5218,-3.7108,-3.8922,-4.0704,-4.0781,-4.0449,-3.9746,-3.9141,-3.8496,-3.7812,-3.7051,-3.6406,-3.5898,-3.5078,-3.457,-3.4297,-3.3437,-3.2734,-3.2148,-3.1894,-3.0493,-2.8545,-3.0216,-2.9903,-2.8527,-3.0005,-3.0293,-2.9805,-2.9629,-2.9141,-2.8535,-2.8535,-2.8437,-2.8301,-2.8301,-2.7887,-2.7438,-2.7438,-2.6825,-2.6264,-2.7168,-2.7853,-2.8301,-2.8301,-2.8301,-2.8223,-2.7969,-2.7656,-2.7461,-2.7689,-2.7519,-2.7461,-2.7689,-2.7734,-2.7832,-2.8008,-2.7695,-2.7402,-2.7402,-2.7031,-2.668,-2.6426,-2.623,-2.6133,-2.6133,-2.502,-2.3425,-2.1428,-2.0482,-1.9188,-1.7389,-1.7235,-1.7021,-1.6553,-1.6526,-1.6313,-1.5798,-1.6126,-1.6321,-1.6321,-1.679,-1.7018,-1.7032,-1.7326,-1.746,-3.649,-3.7036,-3.7441,-3.257,-3.3087,-3.4084,0.0,0.0,0.0,-3.125,-3.0898,-3.0898,-3.0898,0.0,0.0,0.0,0.0,0.0,0.0,0.0,0.0,0.0,0.0,0.0,0.0,-3.4633,-3.5507,-3.7575,-3.8847,-3.9452,-3.9204,-3.9621,-3.9668,-3.9043,-3.8476,-3.7793,-3.6934,-3.6504,-3.5918,-3.5176,-3.4726,-3.4355,-3.4043,-3.3184,-3.2559,-3.2148,-3.1699,-3.0341,-2.8527,-3.0063,-2.9789,-2.8509,-2.9795,-3.0078,-2.9726,-2.9473,-2.9004,-2.8476,-2.8476,-2.8398,-2.8301,-2.8301,-2.8301,-2.8301,-2.8301,-2.7565,-2.6952,-2.8014,-2.8301,-2.8301,-2.8301,-2.8301,-2.8223,-2.793,-2.7851,-2.7851,-2.7851,-2.7851,-2.7851,-2.7851,-2.8086,-2.8301,-2.8301,-2.8047,-2.7851,-2.7851,-2.748,-2.7109,-2.6797,-2.666,-2.6582,-2.6582,-2.5101,-2.3467,-2.1977,-2.0953,-1.9732,-1.8304,-1.8603,-1.8414,-1.7502,-1.7341,-1.6895,-1.6099,-1.6299,-1.6496,-1.6576,-1.7085,-1.7326,-1.734,-1.7488,-1.7635,-3.4857,-3.7056,-3.939,-3.4006,-3.48,-3.6225,0.0,0.0,0.0,-3.125,-3.0898,-3.0898,-3.0898,-3.0898,-3.0898,-3.0898,0.0,0.0,0.0,0.0,0.0,0.0,0.0,0.0,0.0,-3.3984,-3.5405,-3.7198,-3.7319,0.0,-3.6124,-3.7685,-3.8594,-3.8574,-3.7754,-3.6894,-3.6035,-3.5605,-3.5176,-3.4707,-3.4277,-3.4082,-3.4043,-3.3184,-3.2559,-3.2148,-3.1699,-3.0341,-2.8509,-2.9719,-2.9505,-2.8419,-2.8801,-2.9453,-3.0078,-2.9238,-2.8926,-2.8906,-2.8906,-2.8633,-2.8301,-2.8301,-2.8301,-2.8301,-2.8301,-2.8281,-2.8301,-2.8301,-2.8301,-2.8301,-2.8301,-2.8301,-2.8301,-2.8281,-2.8281,-2.8281,-2.8281,-2.8281,-2.8281,-2.8281,-2.8281,-2.8301,-2.8301,-2.8281,-2.8281,-2.8281,-2.793,-2.7708,-2.7708,-2.7285,-2.7012,-2.7012,-2.5773,-2.4278,-2.2445,-2.2152,-2.1382,-1.9694,-2.0896,-2.0939,-1.925,-1.887,-1.8065,-1.675,-1.67,-1.6847,-1.7192,-1.7435,-1.7582,-1.7582,-1.7582,-1.7742,-3.2808,-3.3548,-3.4595,-3.1335,-3.1244,-3.1946,-3.193,0.0,0.0,0.0,-3.0898,-3.0898,-3.0898,-3.0898,-3.0996,-3.1269,-3.1328,0.0,0.0,0.0,0.0,0.0,0.0,0.0,0.0,0.0,-3.8887,-3.9413,-3.8937,-3.848,-3.8213,-3.788,-3.7832,-3.8125,-3.7031,-3.6289,-3.6016,-3.5293,-3.4707,-3.4277,-3.4141,-3.3769,-3.3184,-3.2617,-3.2129,-3.1699,-3.1269,-3.0076,-2.8527,-3.0063,-2.96,-2.8111,-2.9298,-2.959,-2.9297,-2.9023,-2.873,-2.8496,-2.8496,-2.8398,-2.8301,-2.8301,-2.8301,-2.8301,-2.8301,-2.8301,-2.8301,-2.8301,-2.8301,-2.8301,-2.8301,-2.8301,-2.8301,-2.8301,-2.8301,-2.8301,-2.8301,-2.8301,-2.8301,-2.8301,-2.8301,-2.8301,-2.8301,-2.8301,-2.8301,-2.8301,-2.8184,-2.7988,-2.7748,-2.7539,-2.7461,-2.7461,-2.6132,-2.495,-2.4191,-2.2978,-2.2015,-2.147,-2.1587,-2.1377,-2.0586,-2.0457,-1.9641,-1.8114,-1.8282,-1.8099,-1.7448,-1.7756,-1.8009,-1.821,-1.821,-1.8357,0.0,-3.121,-3.189,-2.9503,-2.9806,0.0,0.0,0.0,0.0,0.0,0.0,0.0,0.0,-3.0898,-3.0918,-3.1016,-3.1172,0.0,0.0,0.0,0.0,0.0,0.0,0.0,0.0,-3.9567,-3.9433,-3.9749,-3.9434,-3.8984,-3.8516,-3.7734,-3.7266,-3.7207,-3.6289,-3.5703,-3.5527,-3.4824,-3.4238,-3.3828,-3.3828,-3.3457,-3.2773,-3.2363,-3.1934,-3.1504,-3.1074,-2.9962,0.0,-3.0025,-2.9505,-2.793,-2.9202,-2.9394,-2.8906,-2.875,-2.8516,-2.8301,-2.8301,-2.8301,-2.8301,-2.8301,-2.8301,-2.8301,-2.8301,-2.8301,-2.8301,-2.8301,-2.8301,-2.8301,-2.8301,-2.8301,-2.8301,-2.8301,-2.8301,-2.8301,-2.8301,-2.8301,-2.8301,-2.8301,-2.8301,-2.8301,-2.8301,-2.8301,-2.8301,-2.8301,-2.8301,-2.8203,-2.793,-2.791,-2.791,-2.791,-2.7058,-2.6449,-2.6259,-2.4384,-2.3186,-2.3049,-2.3145,-2.2863,-2.2173,-2.2068,-2.1065,-1.9065,-1.9224,-1.8838,-1.7756,-1.7902,-1.8142,-1.849,-1.849,-1.8651,0.0,-2.9879,-3.0881,-2.8433,-2.9998,-3.1847,0.0,0.0,0.0,0.0,0.0,0.0,0.0,0.0,-3.0762,-3.0351,-3.0644,0.0,0.0,0.0,0.0,0.0,0.0,0.0,-3.7432,-3.7595,-3.7776,-3.8506,-3.8887,-3.8555,-3.7363,-3.7266,-3.6875,-3.6035,-3.5586,-3.5117,-3.4668,-3.4219,-3.3789,-3.3418,-3.3359,-3.3125,-3.2734,-3.2324,-3.1894,-3.1445,-3.1055,-3.002,-2.8628,-2.9815,-2.9317,-2.8013,-2.8703,-2.8926,-2.8828,-2.8437,-2.8301,-2.8301,-2.8301,-2.8301,-2.8301,-2.8301,-2.8301,-2.8301,-2.8301,-2.8301,-2.8301,-2.8301,-2.8301,-2.8301,-2.8301,-2.8301,-2.8301,-2.834,-2.834,-2.834,-2.834,-2.834,-2.832,-2.8301,-2.8301,-2.8301,-2.8301,-2.8301,-2.8301,-2.8301,-2.8301,-2.8301,-2.8301,-2.8301,-2.8301,-2.8301,-2.8301,-2.8301,-2.8301,-2.6278,-2.485,-2.4485,-2.5324,-2.5194,-2.3899,-2.3639,-2.244,-1.9968,-1.9754,-1.9161,-1.8049,-1.8075,-1.8277,-1.8557,-1.8557,-1.8691,-2.8088,0.0,-2.8031,-2.7425,-2.8482,-2.9981,0.0,0.0,0.0,0.0,0.0,0.0,0.0,0.0,0.0,0.0,0.0,0.0,0.0,0.0,0.0,0.0,0.0,-3.4854,-3.6201,-3.7857,-3.8699,-3.8613,-3.8066,-3.7617,-3.7324,-3.6992,-3.6562,-3.6035,-3.5273,-3.4648,-3.4219,-3.3476,-3.3203,-3.3418,-3.2773,-3.2422,-3.2305,-3.1875,-3.1445,-3.1035,-3.0937,-3.0704,-3.0333,-3.0645,-3.014,-2.9181,-2.9381,-2.9023,-2.8437,-2.832,-2.8301,-2.8301,-2.8301,-2.8301,-2.8301,-2.8301,-2.8301,-2.8301,-2.8301,-2.8301,-2.8301,-2.8301,-2.8301,-2.8301,-2.8301,-2.8301,-2.8379,-2.8691,-2.8769,-2.8769,-2.8769,-2.8769,-2.8672,-2.8359,-2.8301,-2.8301,-2.8301,-2.8301,-2.8301,-2.8301,-2.8301,-2.8301,-2.8301,-2.8301,-2.8301,-2.8301,-2.8301,-2.8301,-2.8301,-2.753,-2.6839,-2.6397,-2.6555,-2.6256,-2.5254,-2.5802,-2.5181,-2.3252,-2.1591,-2.0094,-1.8661,-1.8945,-1.9092,-1.9158,-1.9158,-1.9199,-2.7254,-2.6404,-2.5658,-2.6392,-2.766,-2.8932,-2.9849,0.0,0.0,0.0,0.0,0.0,0.0,0.0,0.0,0.0,-3.0918,0.0,0.0,0.0,0.0,0.0,0.0,-3.6696,0.0,-3.8352,-3.8574,-3.7754,-3.7441,-3.7051,-3.6465,-3.6387,-3.5996,-3.5156,-3.4473,-3.4004,-3.3769,-3.3125,-3.2812,-3.2832,-3.2383,-3.207,-3.1855,-3.1621,-3.1289,-3.0879,-3.0664,-3.0703,-3.0879,-3.0664,-3.0176,-2.9626,-2.9626,-2.9043,-2.8301,-2.8301,-2.8301,-2.8301,-2.8301,-2.8301,-2.8301,-2.8301,-2.8301,-2.8388,-2.9059,-2.8794,-2.8301,-2.8301,-2.8301,-2.8301,-2.8301,-2.8301,-2.834,-2.8574,-2.8633,-2.8633,-2.8633,-2.8789,-2.8848,-2.8633,-2.8574,-2.8574,-2.8574,-2.8418,-2.8301,-2.8301,-2.8301,-2.8301,-2.8301,-2.8301,-2.8301,-2.8301,-2.8301,-2.8301,-2.8301,-2.8086,-2.7773,-2.7344,-2.7129,-2.6797,-2.6348,-2.6777,-2.598,-2.3861,-2.2048,-2.0455,-1.9132,-1.9158,-1.9239,-1.9417,-1.9225,-1.9239,-2.7142,-2.5798,-2.4921,-2.6095,-2.7572,-2.8783,0.0,0.0,0.0,0.0,0.0,0.0,0.0,0.0,0.0,0.0,0.0,0.0,0.0,0.0,0.0,0.0,0.0,0.0,-3.8422,-3.8389,-3.7871,-3.666,-3.6836,-3.6504,-3.5351,-3.5625,-3.5254,-3.4004,-3.3613,-3.332,-3.3125,-3.2773,-3.2461,-3.2229,-3.2092,-3.1816,-3.1523,-3.1445,-3.1191,-3.0762,-3.0371,-3.0391,-3.0664,-3.0254,-2.9863,-2.9473,-2.9473,-2.8984,-2.8301,-2.8301,-2.8301,-2.8301,-2.8301,-2.8301,-2.8354,-2.8548,-2.8601,-2.8847,-3.0224,-2.965,-2.8601,-2.8601,-2.8441,-2.8301,-2.8301,-2.8301,-2.832,-2.8379,-2.8398,-2.8398,-2.8398,-2.873,-2.9004,-2.8926,-2.8926,-2.8926,-2.8926,-2.8574,-2.8301,-2.8301,-2.8301,-2.8301,-2.8301,-2.8301,-2.8301,-2.8301,-2.8301,-2.8301,-2.8301,-2.8301,-2.8144,-2.7793,-2.7422,-2.7207,-2.7207,-2.6924,-2.5635,-2.3321,-2.1936,-2.0657,-1.9439,-1.9225,-1.9225,-1.9426,-1.9172,-1.9172,-3.026,-3.0051,-2.911,-2.824,-2.9275,-3.0528,0.0,0.0,0.0,0.0,0.0,0.0,0.0,0.0,0.0,0.0,0.0,0.0,0.0,0.0,-3.4466,-3.5226,0.0,-3.5997,-3.4897,-3.6437,-3.7109,-3.6191,-3.5859,-3.543,-3.4844,-3.4863,-3.4473,-3.3555,-3.3457,-3.291,-3.1816,-3.1738,-3.1875,-3.2209,-3.1426,-3.125,-3.1504,-3.1152,-3.0742,-3.0293,-3.0234,-3.0039,-2.9766,-2.9687,-2.9414,-2.9023,-2.9023,-2.873,-2.8301,-2.8301,-2.8301,-2.8301,-2.8301,-2.8301,-2.8495,-2.9597,-3.0016,-3.0224,-3.1571,-3.1081,-3.0016,-3.0016,-2.9164,-2.8301,-2.8301,-2.8301,-2.8379,-2.873,-2.8828,-2.8828,-2.8828,-2.916,-2.9355,-2.8984,-2.8926,-2.8926,-2.8926,-2.8574,-2.8301,-2.8301,-2.8301,-2.8301,-2.8301,-2.8301,-2.8301,-2.8301,-2.8301,-2.8301,-2.8301,-2.8301,-2.8262,-2.8203,-2.8125,-2.8086,-2.8086,-2.6536,-2.5058,-2.3739,-2.2508,-2.1162,-1.9733,-1.9933,-1.9933,-1.9733,-1.9693,-1.9559,-3.0937,-3.0909,-3.0502,-2.9917,-3.0851,0.0,0.0,0.0,0.0,0.0,0.0,0.0,0.0,0.0,0.0,0.0,0.0,-3.4258,-3.5508,-3.5349,-3.5323,0.0,0.0,-3.6127,-3.5495,-3.6116,-3.625,-3.5371,-3.5137,-3.4824,-3.4394,-3.4141,-3.373,-3.3105,-3.2637,-3.2109,-3.1523,-3.1289,-3.1289,-3.1465,-3.1074,-3.0996,-3.1172,-3.0976,-3.0644,-3.0176,-2.9961,-2.9746,-2.9551,-2.9316,-2.9101,-2.8926,-2.8926,-2.8652,-2.8301,-2.8301,-2.8301,-2.8301,-2.8301,-2.8741,-2.946,-3.012,-3.0773,-3.1469,-3.2129,-3.1367,-3.0307,-3.0307,-2.9303,-2.834,-2.8574,-2.8633,-2.8672,-2.8867,-2.8926,-2.8848,-2.8633,-2.8926,-2.916,-2.8965,-2.8926,-2.8926,-2.8926,-2.8574,-2.8301,-2.8301,-2.8301,-2.8301,-2.8301,-2.8301,-2.8301,-2.8301,-2.8301,-2.8301,-2.8301,-2.8301,-2.8301,-2.8301,-2.8301,-2.8301,-2.8301,-2.7428,-2.6082,-2.4119,-2.3543,-2.2169,-2.004,-2.0174,-2.008,-1.98,-1.98,-1.9639,-3.1016,-3.1191,-3.1289,-3.1094,0.0,0.0,0.0,0.0,0.0,0.0,0.0,0.0,0.0,0.0,0.0,0.0,-3.4141,-3.4941,-3.5605,-3.6055,-3.6562,-3.7226,-3.6836,-3.6523,-3.6523,-3.6035,-3.5391,-3.4609,-3.4551,-3.4336,-3.3809,-3.3457,-3.3027,-3.2519,-3.1855,-3.1465,-3.1367,-3.1055,-3.0898,-3.0898,-3.0898,-3.0898,-3.0879,-3.0781,-3.0488,-3.0019,-2.9609,-2.9355,-2.9238,-2.8906,-2.8769,-2.8769,-2.8769,-2.8574,-2.8301,-2.8301,-2.8301,-2.8335,-2.8654,-2.946,-3.0432,-3.103,-3.1724,-3.2381,-3.2682,-3.1644,-3.0349,-3.0454,-2.9518,-2.8496,-2.8711,-2.8848,-2.8906,-2.8789,-2.8769,-2.8691,-2.8359,-2.8711,-2.9043,-2.8945,-2.9004,-2.9043,-2.8945,-2.8574,-2.8301,-2.8301,-2.8301,-2.8301,-2.8301,-2.8301,-2.834,-2.8437,-2.8359,-2.8301,-2.8301,-2.8301,-2.8301,-2.8301,-2.8301,-2.834,-2.8437,-2.7771,-2.6443,-2.4482,-2.3773,-2.2438,-2.0334,-2.0401,-2.0254,-1.9907,-1.9973,-1.9813,-3.1367,-3.2051,-3.2461,-3.168,0.0,0.0,0.0,0.0,0.0,-3.3086,0.0,0.0,0.0,0.0,0.0,0.0,0.0,-3.5137,-3.6406,0.0,-3.7226,-3.7285,-3.6562,-3.6074,-3.6074,-3.5293,-3.4609,-3.416,-3.4121,-3.375,-3.293,-3.2851,-3.2461,-3.1641,-3.1543,-3.1328,-3.0937,-3.0898,-3.0898,-3.0898,-3.0898,-3.0898,-3.0879,-3.0449,-3.0019,-2.959,-2.916,-2.875,-2.8379,-2.8359,-2.834,-2.834,-2.834,-2.832,-2.8301,-2.8301,-2.8301,-2.8495,-2.9702,-3.0224,-3.0721,-3.3277,-3.3304,-3.2532,-3.3871,-3.2404,-3.0412,-3.0853,-2.9931,-2.8789,-2.8437,-2.8633,-2.8828,-2.8437,-2.834,-2.832,-2.8301,-2.8945,-2.9394,-2.9004,-2.9238,-2.9394,-2.8984,-2.8574,-2.8301,-2.8301,-2.8301,-2.8301,-2.8301,-2.8301,-2.8437,-2.8828,-2.8516,-2.8301,-2.8301,-2.8301,-2.8301,-2.8301,-2.8301,-2.8476,-2.8848,-2.6102,-2.467,-2.4845,-2.2313,-2.0862,-2.0641,-2.0909,-2.0762,-2.0214,-2.0481,-2.0307,-3.1094,-3.1562,-3.1855,-3.1269,0.0,0.0,0.0,0.0,0.0,-3.3301,-3.3516,0.0,0.0,0.0,0.0,0.0,0.0,-3.5488,-3.6523,-3.6816,-3.6816,-3.6543,-3.5976,-3.541,-3.4863,-3.4258,-3.373,-3.3301,-3.3047,-3.2754,-3.2422,-3.2148,-3.2236,-3.286,-3.176,-3.1483,-3.2264,-3.1383,-3.0898,-3.0879,-3.0586,-3.0449,-3.0449,-3.0,-2.957,-2.916,-2.8984,-2.8672,-2.8301,-2.8301,-2.8301,-2.8301,-2.8301,-2.8794,-2.9565,-2.9565,-3.0068,-3.0876,-3.1367,-3.2151,-3.2855,-3.3055,-3.3304,-3.3403,-3.2202,-3.1133,-3.0203,-2.9796,-2.954,-2.9297,-2.9121,-2.9199,-2.9219,-2.8789,-2.8672,-2.8613,-2.834,-2.8555,-2.873,-2.8555,-2.8672,-2.873,-2.8555,-2.8398,-2.8301,-2.8301,-2.8301,-2.8301,-2.8301,-2.8301,-2.8359,-2.8516,-2.8613,-2.8574,-2.832,-2.8535,-2.8672,-2.8672,-2.8672,-2.875,-2.8906,-2.8088,-2.6839,-2.5166,-2.4121,-2.2681,-2.0949,-2.1056,-2.0909,-2.0508,-2.0628,-2.0454,-3.0664,-3.0879,-3.1035,0.0,0.0,0.0,0.0,0.0,0.0,0.0,-3.416,0.0,-3.3496,0.0,0.0,0.0,-3.4473,-3.5078,-3.5937,-3.5937,-3.5742,-3.5449,-3.5039,-3.4473,-3.375,-3.3398,-3.3047,-3.2637,-3.2344,-3.2109,-3.1973,-3.2137,-3.2504,-3.3194,-3.2411,-3.2184,-3.2637,-3.1609,-3.0908,-3.0469,-3.0019,-2.9941,-3.0176,-2.9629,-2.9199,-2.8906,-2.8769,-2.8555,-2.8301,-2.8301,-2.8301,-2.8335,-2.8741,-2.9513,-3.0359,-3.0773,-3.152,-3.228,-3.228,-3.2955,-3.3575,-3.2582,-3.2655,-3.2755,-3.0876,-3.0016,-2.9542,-2.9061,-2.9141,-2.9355,-2.9355,-2.9473,-2.9434,-2.8848,-2.8711,-2.8633,-2.8359,-2.8398,-2.8496,-2.8496,-2.8496,-2.8496,-2.8496,-2.8379,-2.8301,-2.8301,-2.8398,-2.8437,-2.832,-2.8398,-2.8437,-2.8301,-2.8672,-2.8809,-2.8516,-2.875,-2.8984,-2.9121,-2.9258,-2.9316,-2.9316,-2.9141,-2.8134,-2.6321,-2.5245,-2.381,-2.1915,-2.1362,-2.0962,-2.0681,-2.0775,-2.0655,-3.0195,-3.0195,0.0,0.0,0.0,0.0,0.0,0.0,0.0,0.0,0.0,-3.3945,-3.3496,-3.2383,0.0,-3.2656,-3.3144,-3.3711,-3.457,-3.4316,-3.4062,-3.4062,-3.3672,-3.3242,-3.2832,-3.2793,-3.2617,-3.2187,-3.2209,-3.1973,-3.1523,-3.2898,-3.3251,-3.2274,-3.3661,-3.3474,-3.1638,-3.1638,-3.0949,-2.9607,-2.9121,-2.9375,-3.0156,-2.9297,-2.8906,-2.8887,-2.8476,-2.8301,-2.8301,-2.8281,-2.8301,-2.8441,-2.9807,-3.0307,-3.0514,-3.1825,-3.2331,-3.2331,-3.228,-3.228,-3.228,-3.228,-3.1367,-3.0307,-3.0255,-2.9355,-2.8379,-2.8809,-2.8926,-2.8926,-2.8926,-2.9238,-2.9355,-2.8496,-2.8301,-2.8301,-2.8301,-2.8613,-2.8906,-2.8906,-2.8906,-2.8906,-2.8906,-2.8574,-2.8301,-2.8301,-2.8652,-2.8769,-2.834,-2.8652,-2.875,-2.834,-2.8672,-2.8926,-2.8926,-2.8926,-2.9121,-2.9607,-2.9961,-3.0195,-3.0195,-2.8663,-2.803,-2.8408,-2.5269,-2.3636,-2.3574,-2.1915,-2.0962,-2.0681,-2.0975,-2.0949,-3.0684,-3.0684,0.0,0.0,0.0,0.0,0.0,0.0,0.0,0.0,0.0,-3.3945,-3.3496,-3.2383,0.0,-3.2266,-3.2461,-3.2832,-3.3691,-3.3437,-3.3184,-3.3184,-3.2793,-3.25,-3.2363,-3.207,-3.1836,-3.1719,-3.1445,-3.1662,-3.2564,-3.2633,-3.3471,-3.5298,-3.435,-3.405,-3.4543,-3.3546,-3.2802,-3.2427,-3.1016,-3.0005,-2.9277,-2.873,-2.8476,-2.8476,-2.834,-2.8301,-2.8388,-2.9303,-2.9723,-2.9859,-3.1162,-3.228,-3.3105,-3.2532,-3.2955,-3.3624,-3.2632,-3.228,-3.2129,-3.1235,-3.0618,-3.012,-2.9197,-2.8601,-2.8379,-2.8809,-2.8926,-2.8926,-2.8926,-2.9004,-2.8984,-2.8418,-2.8301,-2.8301,-2.8301,-2.8398,-2.8779,-2.9697,-2.9133,-2.8779,-2.9697,-2.898,-2.8301,-2.8301,-2.8398,-2.8437,-2.832,-2.8398,-2.8437,-2.8301,-2.8672,-2.8926,-2.8926,-2.9199,-2.9551,-2.998,-3.0137,-3.0195,-3.0195,-3.0026,-2.9477,-2.8426,-2.6349,-2.4717,-2.3574,-2.1915,-2.1069,-2.0989,-2.1069,-2.1069,-3.0566,0.0,0.0,0.0,0.0,0.0,0.0,0.0,0.0,0.0,0.0,-3.418,-3.375,-3.25,0.0,-3.1875,-3.1914,-3.2148,-3.2832,-3.2559,-3.2285,-3.2285,-3.207,-3.1836,-3.168,-3.1582,-3.1445,-3.1289,-3.158,-3.2068,-3.2692,-3.354,-3.4614,-3.5971,-3.5384,-3.5074,-3.5263,-3.4379,-3.364,-3.3049,-3.1484,-3.019,-2.9179,-2.8587,-2.8301,-2.8281,-2.8125,-2.8344,-2.883,-2.9435,-3.0121,-3.0882,-3.2239,-3.3119,-3.3502,-3.3254,-3.3304,-3.3353,-3.1977,-3.152,-3.1265,-2.9964,-2.9513,-2.9355,-2.8548,-2.8301,-2.834,-2.8594,-2.8672,-2.8672,-2.8672,-2.8672,-2.8613,-2.8359,-2.8301,-2.8301,-2.8301,-2.8708,-2.9416,-3.0402,-3.0193,-3.0026,-3.0507,-2.972,-2.89,-2.8388,-2.8301,-2.8359,-2.8516,-2.8398,-2.8301,-2.8301,-2.8672,-2.8984,-2.916,-2.957,-3.0,-3.0449,-3.0469,-3.0469,-3.0469,-3.0742,-3.0392,-2.9412,-2.7134,-2.5497,-2.4532,-2.2215,-2.1109,-2.1109,-2.1109,-2.1109,0.0,0.0,0.0,0.0,0.0,0.0,0.0,0.0,0.0,-3.7402,0.0,-3.459,-3.4062,-3.2656,-3.1562,-3.1523,-3.1484,-3.1621,-3.2051,-3.1738,-3.1465,-3.1465,-3.1465,-3.1309,-3.0937,-3.123,-3.1348,-3.1132,-3.226,-3.2882,-3.2585,-3.5055,-3.605,-3.5149,-3.6357,-3.6157,-3.4437,-3.4485,-3.3826,-3.2497,-3.1098,-3.0218,-2.9745,-2.8733,-2.8262,-2.8203,-2.7885,-2.8273,-2.9247,-2.9061,-2.9919,-3.1448,-3.2906,-3.2966,-3.2364,-3.3601,-3.3204,-3.1927,-3.0566,-3.012,-2.9911,-2.8708,-2.8301,-2.8301,-2.8301,-2.8301,-2.8301,-2.8301,-2.8301,-2.8301,-2.8301,-2.8301,-2.8354,-2.8441,-2.8495,-2.8495,-2.8495,-2.9565,-3.0641,-3.119,-3.1826,-3.2082,-3.1243,-3.0653,-2.9859,-2.8495,-2.8301,-2.8437,-2.8809,-2.8535,-2.8301,-2.834,-2.8691,-2.9121,-2.959,-2.998,-3.0391,-3.0859,-3.0898,-3.0898,-3.0898,-3.0898,-3.0898,-3.0898,-2.7692,-2.5984,-2.5984,-2.2702,-2.1109,-2.1109,-2.1109,-2.1109,0.0,0.0,0.0,0.0,0.0,0.0,0.0,0.0,0.0,0.0,-3.5312,-3.4805,-3.334,-3.25,-3.1914,-3.1562,-3.125,-3.1172,-3.1601,-3.1289,-3.1035,-3.1035,-3.1035,-3.0996,-3.0898,-3.0976,-3.1482,-3.253,-3.2461,-3.3387,-3.5617,-3.5121,-3.516,-3.6079,-3.5565,-3.504,-3.464,-3.5062,-3.4922,-3.4154,-3.2277,-3.113,-3.059,-2.899,-2.8105,-2.7793,-2.7767,-2.7616,-2.7671,-2.9627,-3.0068,-2.9805,-3.2478,-3.2806,-3.1766,-3.1338,-3.0979,-3.0514,-2.9197,-2.8741,-2.8708,-2.8388,-2.8301,-2.8301,-2.8301,-2.8301,-2.8301,-2.8301,-2.8301,-2.8301,-2.8301,-2.8301,-2.8548,-2.9618,-2.9859,-2.9859,-2.9859,-3.0927,-3.2224,-3.3415,-3.2924,-3.2275,-3.2082,-3.1043,-2.9859,-2.8495,-2.8301,-2.832,-2.8418,-2.834,-2.8418,-2.875,-2.8867,-2.9219,-3.0,-3.0137,-3.0391,-3.0859,-3.0898,-3.0898,-3.0898,-3.0898,-3.0898,-3.0898,-2.7692,-2.5984,-2.5984,-2.2702,-2.1109,-2.1109,-2.1109,-2.1109,0.0,0.0,0.0,0.0,0.0,0.0,0.0,0.0,0.0,0.0,0.0,-3.4101,-3.2988,-3.2285,-3.1719,-3.1289,-3.1035,-3.0957,-3.1191,-3.1035,-3.082,-3.0586,-3.0566,-3.0566,-3.0566,-3.0566,-3.116,-3.2573,-3.3044,-3.3892,-3.5395,-3.5355,-3.5373,-3.5604,-3.5027,-3.468,-3.468,-3.4956,-3.4956,-3.468,-3.2392,-3.0488,-2.9013,-2.8061,-2.7559,-2.7344,-2.7148,-2.7269,-2.7661,-2.9046,-2.971,-3.0117,-3.1851,-3.1896,-3.099,-3.0481,-2.9911,-2.925,-2.8548,-2.8301,-2.8301,-2.8301,-2.8301,-2.8301,-2.8301,-2.8301,-2.8301,-2.8301,-2.8301,-2.8301,-2.8301,-2.8794,-2.9408,-3.012,-3.0307,-3.0463,-3.1133,-3.2331,-3.3502,-3.4288,-3.4313,-3.3848,-3.2532,-3.0669,-2.9112,-2.8388,-2.8301,-2.8301,-2.8301,-2.8301,-2.8457,-2.8867,-2.9101,-2.9492,-3.0137,-3.041,-3.0625,-3.0879,-3.0898,-3.0898,-3.0898,-3.0898,-3.0898,-3.0898,-2.7692,-2.5984,-2.5984,-2.2702,-2.1109,-2.1109,-2.1109,-2.1109,0.0,0.0,0.0,0.0,0.0,0.0,0.0,0.0,0.0,0.0,0.0,-3.3164,-3.2656,-3.1992,-3.1387,-3.0957,-3.0898,-3.0859,-3.0781,-3.0762,-3.0605,-3.0137,-3.0098,-3.0098,-3.0098,-3.0305,-3.0999,-3.2348,-3.3646,-3.4412,-3.458,-3.5443,-3.5529,-3.46,-3.45,-3.4424,-3.4424,-3.4525,-3.4525,-3.4405,-3.1856,-2.9299,-2.6797,-2.6797,-2.6937,-2.7179,-2.6873,-2.7227,-2.8097,-2.8338,-2.9074,-3.018,-3.0789,-3.0543,-2.986,-2.9943,-2.925,-2.8301,-2.8301,-2.8301,-2.8301,-2.8301,-2.8301,-2.8301,-2.8301,-2.8301,-2.8301,-2.8301,-2.8441,-2.8654,-2.8654,-2.967,-3.0721,-3.0927,-3.103,-3.1338,-3.2431,-3.3749,-3.4727,-3.4727,-3.5259,-3.5041,-3.2982,-3.0224,-2.8408,-2.8601,-2.8441,-2.8301,-2.8301,-2.8359,-2.8555,-2.8984,-2.9414,-2.9844,-3.0273,-3.0664,-3.0898,-3.0898,-3.0898,-3.0898,-3.0898,-3.0898,-3.0898,-3.0898,-2.7692,-2.5984,-2.5984,-2.2702,-2.1109,-2.1109,-2.1109,-2.1109,0.0,0.0,0.0,0.0,0.0,0.0,0.0,0.0,0.0,0.0,0.0,-3.2637,-3.1836,-3.1601,-3.1387,-3.0957,-3.0898,-3.0762,-3.0351,-3.0293,-3.0137,-2.9707,-2.9648,-2.9648,-2.9648,-3.0721,-3.2048,-3.3475,-3.3986,-3.4796,-3.6075,-3.4936,-3.4148,-3.4022,-3.3545,-3.3294,-3.3294,-3.3771,-3.3771,-3.3294,-3.0807,-2.8314,-2.5849,-2.5849,-2.6663,-2.8014,-2.7952,-2.7848,-2.7778,-2.8814,-2.8364,-2.7132,-2.8611,-2.8685,-2.8088,-2.8463,-2.8441,-2.8301,-2.8301,-2.8301,-2.8301,-2.8301,-2.8301,-2.8301,-2.8301,-2.8301,-2.8301,-2.8301,-2.9144,-3.0016,-3.0016,-3.103,-3.2331,-3.3575,-3.3871,-3.392,-3.4068,-3.5162,-3.6121,-3.6121,-3.4338,-3.3105,-3.397,-3.0876,-2.8688,-2.9859,-2.9059,-2.8301,-2.8301,-2.8613,-2.9004,-2.9434,-2.9863,-3.0293,-3.0762,-3.0859,-3.0898,-3.0898,-3.0898,-3.0898,-3.0898,-3.0898,-3.0898,-3.0898,-2.7692,-2.5984,-2.5984,-2.2702,-2.1109,-2.1109,-2.1109,-2.1109,0.0,0.0,0.0,0.0,0.0,0.0,0.0,0.0,0.0,0.0,0.0,-3.1367,-3.1504,-3.1113,-3.0723,-3.0527,-3.0312,-3.0078,-2.9863,-2.9844,-2.9687,-2.9258,-2.9199,-2.953,-3.033,-3.0905,-3.2038,-3.3894,-3.4106,-3.4438,-3.4961,-3.4299,-3.3746,-3.3445,-3.3194,-3.3111,-3.3111,-3.3319,-3.2512,-3.0687,-2.96,-2.7782,-2.5399,-2.6046,-2.6526,-2.6806,-2.6806,-2.6847,-2.6976,-2.7716,-2.7661,-2.72,-2.8161,-2.8336,-2.8047,-2.8223,-2.8301,-2.8301,-2.8301,-2.8301,-2.8301,-2.8301,-2.8301,-2.8301,-2.8301,-2.8301,-2.8441,-2.9197,-2.9859,-3.0463,-3.1235,-3.2431,-3.3624,-3.4239,-3.4969,-3.5523,-3.5523,-3.5953,-3.6405,-3.6405,-3.48,-3.3674,-3.4288,-3.1644,-2.9618,-3.0224,-2.9164,-2.8301,-2.8301,-2.8652,-2.9082,-2.9531,-2.9941,-3.0391,-3.0859,-3.0898,-3.0898,-3.0898,-3.0898,-3.0898,-3.0898,-3.0898,-3.0898,-3.0898,-2.7692,-2.647,-2.7314,-2.3124,-2.1601,-2.2466,-2.1538,-2.1109,0.0,0.0,0.0,0.0,0.0,0.0,0.0,0.0,0.0,0.0,0.0,0.0,-3.0898,-3.0488,-3.0039,-3.0039,-2.9785,-2.9587,-2.9414,-2.9394,-2.9238,-2.8809,-2.8769,-2.9232,-3.0527,-3.0926,-3.19,-3.3714,-3.3983,-3.409,-3.3928,-3.3771,-3.3495,-3.3093,-3.3111,-3.3111,-3.3111,-3.3111,-3.1869,-2.9418,-2.9281,-2.798,-2.5784,-2.6486,-2.6411,-2.5742,-2.638,-2.6718,-2.6884,-2.7202,-2.7475,-2.7748,-2.8008,-2.8203,-2.8301,-2.8301,-2.8301,-2.8301,-2.8301,-2.8301,-2.8301,-2.8301,-2.8301,-2.8301,-2.8301,-2.8548,-2.9006,-3.0016,-3.0773,-3.1593,-3.2605,-3.3871,-3.4921,-3.4921,-3.5667,-3.6405,-3.6405,-3.6405,-3.6405,-3.6405,-3.5331,-3.4532,-3.4824,-3.2353,-3.0453,-3.0943,-2.9518,-2.8496,-2.8594,-2.8984,-2.9375,-2.9687,-3.0117,-3.0508,-3.0859,-3.0898,-3.0898,-3.0898,-3.0898,-3.0898,-3.0898,-3.0898,-3.0898,-3.0898,-2.8051,-2.7194,-2.8367,-2.3497,-2.1978,-2.3574,-2.1853,-2.1362,0.0,0.0,0.0,0.0,0.0,0.0,0.0,0.0,0.0,0.0,0.0,0.0,-2.9668,-2.9629,-2.9609,-2.9609,-2.959,-2.9434,-2.9004,-2.8945,-2.8789,-2.8379,-2.832,-2.8675,-2.9506,-3.0737,-3.1822,-3.2724,-3.3465,-3.3909,-3.3897,-3.3395,-3.3119,-3.3111,-3.3111,-3.3111,-3.3111,-3.3111,-3.2413,-3.1086,-3.0545,-2.9329,-2.7442,-2.6936,-2.6364,-2.582,-2.8168,-2.8802,-2.8126,-2.8147,-2.7964,-2.7728,-2.7748,-2.793,-2.8301,-2.8301,-2.8301,-2.8301,-2.8301,-2.8301,-2.8301,-2.8301,-2.8301,-2.8301,-2.8301,-2.9197,-3.0224,-3.0255,-3.2202,-3.419,-3.4288,-3.5283,-3.631,-3.631,-3.6358,-3.6405,-3.6405,-3.6405,-3.6405,-3.6405,-3.5331,-3.4775,-3.6073,-3.2982,-3.087,-3.2598,-3.0606,-2.9043,-2.9453,-2.9863,-3.0137,-3.0156,-3.0586,-3.0859,-3.0898,-3.0898,-3.0898,-3.0898,-3.0898,-3.0898,-3.0898,-3.0898,-3.0898,-3.0898,-2.9157,-2.8307,-2.8367,-2.3497,-2.1978,-2.3574,-2.1853,-2.1978,0.0,0.0,0.0,0.0,0.0,0.0,0.0,0.0,0.0,0.0,0.0,0.0,-2.9141,-2.9141,-2.9141,-2.9141,-2.8926,-2.8691,-2.8535,-2.8516,-2.8457,-2.832,-2.9059,-2.9881,-3.0715,-3.1984,-3.2627,-3.2318,-3.2605,-3.225,-3.1082,-3.1564,-3.1865,-3.1865,-3.2655,-3.3111,-3.3111,-3.3111,-3.2179,-3.0267,-2.9389,-2.8121,-2.6651,-2.6508,-2.6335,-2.6251,-2.7923,-2.8174,-2.7432,-2.7763,-2.7934,-2.8066,-2.8066,-2.8164,-2.8301,-2.8301,-2.8301,-2.8441,-2.9303,-2.9565,-2.9565,-2.9565,-3.0172,-3.0721,-2.9859,-3.0514,-3.1774,-3.2705,-3.3624,-3.4581,-3.5475,-3.6073,-3.6405,-3.6405,-3.6405,-3.6405,-3.6405,-3.6405,-3.6405,-3.6405,-3.6001,-3.581,-3.631,-3.3726,-3.2095,-3.3658,-3.1074,-2.9293,-3.0357,-3.0306,-3.0195,-3.0195,-3.0605,-3.0898,-3.0898,-3.0898,-3.0898,-3.0898,-3.0898,-3.0898,-3.0898,-3.0898,-3.0898,-3.0898,-2.9275,-2.892,-2.9962,-2.5085,-2.4054,-2.6608,-2.4206,-2.3936,0.0,0.0,0.0,0.0,0.0,0.0,0.0,0.0,0.0,0.0,0.0,0.0,0.0,-2.8711,-2.8711,-2.8711,-2.8476,-2.8301,-2.8301,-2.8301,-2.8301,-2.8301,-2.946,-3.0632,-3.1412,-3.2526,-3.2912,-3.2148,-3.191,-3.1107,-2.9464,-3.0761,-3.1687,-3.2087,-3.2754,-3.3111,-3.3111,-3.3111,-3.235,-3.0864,-2.9539,-2.8275,-2.7179,-2.6668,-2.6417,-2.6436,-2.738,-2.7603,-2.7266,-2.7539,-2.7963,-2.8301,-2.8301,-2.8301,-2.8301,-2.8301,-2.8601,-2.9112,-2.9964,-3.0566,-3.0979,-3.0979,-3.1571,-3.2129,-3.1214,-3.1927,-3.3204,-3.4141,-3.4727,-3.5283,-3.6168,-3.6405,-3.6405,-3.6405,-3.6405,-3.6405,-3.6405,-3.6405,-3.6405,-3.6405,-3.6405,-3.6405,-3.6405,-3.4508,-3.3419,-3.4688,-3.1971,-3.0295,-3.1563,-3.0942,-3.043,-3.043,-3.0703,-3.0898,-3.0898,-3.0898,-3.0898,-3.0898,-3.0898,-3.0898,-3.0898,-3.0898,-3.0957,-3.1094,-2.9974,-3.0049,-3.1328,-2.68,-2.5933,-2.8367,-2.6248,-2.61,0.0,0.0,0.0,0.0,0.0,0.0,0.0,0.0,0.0,0.0,0.0,0.0,0.0,0.0,-2.8301,-2.8301,-2.8301,-2.8301,-2.8301,-2.8301,-2.8281,-2.8335,-2.9565,-3.0683,-3.1488,-3.2273,-3.2532,-3.2103,-3.1466,-3.0621,-2.9441,-3.111,-3.2644,-3.3853,-3.3395,-3.3136,-3.3111,-3.3111,-3.3111,-3.3043,-3.1264,-3.0041,-2.9328,-2.7537,-2.6628,-2.6426,-2.6855,-2.7285,-2.7728,-2.7728,-2.793,-2.8301,-2.8301,-2.8301,-2.8301,-2.8301,-2.9164,-3.0328,-3.038,-3.1214,-3.2381,-3.2381,-3.2381,-3.2431,-3.2381,-3.3353,-3.4434,-3.4434,-3.5427,-3.6405,-3.6405,-3.6405,-3.6405,-3.6405,-3.6405,-3.6405,-3.643,-3.6405,-3.6405,-3.6405,-3.643,-3.643,-3.643,-3.5307,-3.4766,-3.5714,-3.3493,-3.2028,-3.3099,-3.1862,-3.0937,-3.0937,-3.0957,-3.0898,-3.0898,-3.0898,-3.0898,-3.0898,-3.0898,-3.0898,-3.0898,-3.0898,-3.1094,-3.1504,-3.1523,-3.1738,-3.2168,-2.8483,-2.7303,-2.848,-2.7775,-2.8306,-2.8301,0.0,0.0,0.0,0.0,0.0,-2.8613,-2.8555,0.0,0.0,0.0,0.0,0.0,0.0,-2.8301,-2.8301,-2.8301,-2.8301,-2.8301,-2.8301,-2.8654,-2.9618,-3.0927,-3.2051,-3.288,-3.2866,-3.2418,-3.1314,-2.9847,-2.905,-2.9128,-3.1364,-3.3032,-3.3853,-3.3746,-3.347,-3.3111,-3.3111,-3.2867,-3.2441,-3.1137,-2.9942,-2.879,-2.7797,-2.7145,-2.6875,-2.7305,-2.7734,-2.8125,-2.8125,-2.8184,-2.8301,-2.8301,-2.8301,-2.8301,-2.8301,-2.9164,-3.0411,-3.1418,-3.2655,-3.3822,-3.3822,-3.4459,-3.509,-3.4117,-3.4775,-3.5858,-3.5858,-3.6096,-3.6405,-3.6405,-3.6405,-3.6405,-3.6405,-3.6405,-3.6505,-3.686,-3.6681,-3.6405,-3.6405,-3.6732,-3.7008,-3.7008,-3.621,-3.5978,-3.722,-3.5335,-3.4222,-3.5512,-3.3797,-3.2473,-3.2473,-3.1556,-3.0898,-3.0898,-3.0898,-3.0898,-3.0898,-3.0898,-3.0898,-3.0898,-3.1191,-3.1406,-3.1523,-3.1816,-3.2051,-3.2168,-2.9941,-2.9628,-3.1134,-3.1219,-3.0865,0.0,0.0,0.0,0.0,0.0,0.0,-2.8301,-2.8164,-2.7969,0.0,0.0,0.0,0.0,0.0,0.0,-2.8262,-2.8437,-2.8496,-2.832,-2.8301,-2.8794,-3.0172,-3.1469,-3.2469,-3.2938,-3.3077,-3.2414,-3.0553,-2.9726,-2.9807,-3.0923,-3.2205,-3.3395,-3.4555,-3.4148,-3.3746,-3.342,-3.3194,-3.2893,-3.2566,-3.1404,-3.0582,-3.0032,-2.8528,-2.7937,-2.8137,-2.7799,-2.791,-2.8301,-2.8301,-2.8301,-2.8335,-2.89,-2.9164,-2.9197,-2.9755,-3.0824,-3.2151,-3.2905,-3.4068,-3.521,-3.521,-3.5763,-3.6263,-3.5475,-3.5763,-3.6405,-3.6405,-3.6405,-3.6405,-3.6405,-3.6405,-3.6405,-3.6405,-3.6405,-3.6556,-3.7061,-3.6935,-3.6832,-3.701,-3.7111,-3.7262,-3.7487,-3.7147,-3.7193,-3.8216,-3.6709,-3.5845,-3.6872,-3.4703,-3.3077,-3.3077,-3.1767,-3.0898,-3.0898,-3.0898,-3.0898,-3.0898,-3.0898,-3.0976,-3.1152,-3.1387,-3.168,-3.2051,-3.248,-3.2871,-3.3223,-3.1707,-3.1598,-3.2695,-3.2754,-3.1979,0.0,0.0,0.0,-2.875,-2.8574,0.0,-2.8242,-2.793,-2.7559,-2.7168,0.0,0.0,0.0,0.0,0.0,0.0,-2.8613,-2.8711,-2.834,-2.834,-2.8907,-3.038,-3.1418,-3.218,-3.2482,-3.2843,-3.2176,-2.9901,-3.0608,-3.1931,-3.3696,-3.3528,-3.4042,-3.5437,-3.4525,-3.3972,-3.3897,-3.3345,-3.3111,-3.3068,-3.1952,-3.1553,-3.1803,-2.9493,-2.8866,-2.9402,-2.8269,-2.7949,-2.8301,-2.8301,-2.8301,-2.8441,-2.9755,-3.0307,-3.0463,-3.1825,-3.3204,-3.4385,-3.4385,-3.5283,-3.6405,-3.6405,-3.6405,-3.6405,-3.6405,-3.6405,-3.6405,-3.6405,-3.6405,-3.6405,-3.6405,-3.6405,-3.643,-3.648,-3.6505,-3.6681,-3.7236,-3.7312,-3.7462,-3.8065,-3.7739,-3.7538,-3.8015,-3.814,-3.8366,-3.8894,-3.7873,-3.7216,-3.7671,-3.5156,-3.336,-3.336,-3.1883,-3.0898,-3.0898,-3.0898,-3.0898,-3.0898,-3.0937,-3.1133,-3.1504,-3.1601,-3.2012,-3.2773,-3.3262,-3.3887,-3.4707,-3.3555,-3.3203,-3.3555,-3.3184,-3.2156,-2.8301,-2.8301,-2.832,-2.8398,-2.8359,0.0,-2.7871,-2.7787,-2.7689,0.0,0.0,0.0,0.0,0.0,0.0,0.0,-2.8359,-2.8379,-2.8301,-2.8574,-2.9547,-3.1666,-3.1184,-3.1593,-3.3773,-3.1855,-3.0392,-3.0212,-3.1775,-3.3188,-3.4194,-3.5574,-3.6096,-3.5533,-3.4856,-3.4349,-3.3897,-3.3345,-3.3111,-3.3111,-3.2853,-3.191,-3.0416,-3.0252,-2.9459,-2.8073,-2.8186,-2.8223,-2.8301,-2.8301,-2.8301,-2.8441,-2.9755,-3.0307,-3.0463,-3.1825,-3.3204,-3.4385,-3.4385,-3.5283,-3.6405,-3.6405,-3.6405,-3.6405,-3.6405,-3.6405,-3.6405,-3.6405,-3.6405,-3.6405,-3.6405,-3.6405,-3.6531,-3.691,-3.701,-3.7312,-3.8366,-3.8191,-3.814,-3.917,-3.8919,-3.8617,-3.8743,-3.9069,-3.9396,-3.9521,-3.9315,-3.9185,-3.9233,-3.6727,-3.4847,-3.4847,-3.2493,-3.0898,-3.0898,-3.0898,-3.0898,-3.0898,-3.1211,-3.1426,-3.1504,-3.2187,-3.2637,-3.2793,-3.3555,-3.4199,-3.4707,-3.4453,-3.4375,-3.4453,-3.4375,-3.2598,-2.8242,-2.8301,-2.8301,-2.8301,-2.8301,0.0,0.0,-2.75,-2.7344,-2.7344,0.0,0.0,0.0,0.0,0.0,0.0,-2.8476,-2.8535,-2.832,-2.8476,-2.93,-3.1103,-3.0721,-3.0909,-3.2536,-3.1284,-3.083,-3.1958,-3.3605,-3.4937,-3.5746,-3.6673,-3.681,-3.5981,-3.5429,-3.4956,-3.468,-3.4173,-3.3897,-3.3897,-3.3897,-3.3137,-3.1734,-3.1315,-3.0335,-2.8946,-2.8502,-2.8301,-2.8301,-2.8301,-2.8688,-2.9408,-3.0773,-3.1746,-3.2504,-3.3848,-3.48,-3.5427,-3.5427,-3.581,-3.6405,-3.6405,-3.6405,-3.6405,-3.6405,-3.6405,-3.6405,-3.6405,-3.6405,-3.6405,-3.6405,-3.6606,-3.6883,-3.7111,-3.7387,-3.7839,-3.8743,-3.8642,-3.8693,-3.9521,-3.9471,-3.927,-3.927,-3.9521,-3.9697,-3.9697,-3.9697,-3.9697,-3.9697,-3.7103,-3.5288,-3.5288,-3.2664,-3.0898,-3.0898,-3.1074,-3.1211,-3.1211,-3.1601,-3.1934,-3.2148,-3.2578,-3.3086,-3.373,-3.4394,-3.4941,-3.5351,-3.5351,-3.5137,-3.4707,-3.3747,-3.1828,-2.8184,-2.8301,-2.8301,-2.8301,-2.8301,-2.8184,0.0,0.0,0.0,-2.7129,0.0,0.0,0.0,0.0,0.0,0.0,0.0,0.0,0.0,-2.8301,0.0,-3.0172,-3.0068,-3.0203,-3.0926,-3.1021,-3.1774,-3.3682,-3.5165,-3.6349,-3.7163,-3.7287,-3.7036,-3.643,-3.583,-3.5508,-3.5508,-3.4956,-3.468,-3.468,-3.468,-3.4127,-3.3074,-3.1984,-3.0932,-2.9859,-2.8741,-2.8301,-2.8301,-2.8601,-2.946,-3.0773,-3.1876,-3.3155,-3.4581,-3.5906,-3.6405,-3.6405,-3.6405,-3.6405,-3.6405,-3.6405,-3.6405,-3.6405,-3.6405,-3.6405,-3.6405,-3.6405,-3.6405,-3.643,-3.6531,-3.6908,-3.7236,-3.7462,-3.7839,-3.8341,-3.8919,-3.9019,-3.917,-3.9597,-3.9697,-3.9697,-3.9697,-3.9697,-3.9697,-3.9697,-3.9697,-3.9697,-3.9697,-3.7103,-3.5333,-3.5423,-3.2706,-3.0918,-3.0996,-3.1328,-3.1523,-3.1523,-3.2012,-3.2441,-3.2793,-3.2949,-3.3613,-3.4805,-3.5195,-3.5605,-3.6016,-3.6016,-3.5644,-3.4895,-3.304,-3.118,-2.8184,-2.8301,-2.8301,-2.8301,-2.8301,-2.8184,-2.7806,0.0,-2.7598,-2.7598,0.0,0.0,0.0,0.0,0.0,0.0,0.0,0.0,-2.8301,-2.8301,-2.8794,-3.0172,-2.925,-2.9186,-3.0819,-3.1021,-3.1774,-3.3682,-3.5165,-3.6349,-3.7163,-3.7638,-3.7437,-3.643,-3.583,-3.5508,-3.5508,-3.4956,-3.468,-3.468,-3.468,-3.3663,-3.169,-3.1542,-3.0427,-2.8495,-2.8388,-2.8301,-2.8388,-2.9565,-3.0876,-3.2079,-3.223,-3.3155,-3.4581,-3.5906,-3.6405,-3.6405,-3.6405,-3.6405,-3.6405,-3.6405,-3.6405,-3.6405,-3.6405,-3.6405,-3.6405,-3.6405,-3.6405,-3.6531,-3.7008,-3.7136,-3.7437,-3.8492,-3.8718,-3.8919,-3.9471,-3.9597,-3.9622,-3.9697,-3.9697,-3.9697,-3.9697,-3.9697,-3.9697,-3.9697,-3.9697,-3.9697,-3.9697,-3.7103,-3.5468,-3.5781,-3.2892,-3.1035,-3.1406,-3.1484,-3.1523,-3.1523,-3.2285,-3.2734,-3.2793,-3.3535,-3.4355,-3.5293,-3.5371,-3.5605,-3.6016,-3.6016,-3.5976,-3.5792,-3.3959,-3.2036,-2.7441,-2.7559,-2.7617,-2.7871,-2.793,-2.7949,-2.8008,-2.7904,-2.7787,-2.7988,0.0,0.0,0.0,0.0,0.0,0.0,-2.8086,0.0,0.0,0.0,-2.7924,0.0,0.0,0.0,-2.9661,-3.1519,-3.2955,-3.3735,-3.5907,-3.7171,-3.7211,-3.7412,-3.7161,-3.643,-3.6132,-3.6006,-3.6006,-3.578,-3.568,-3.568,-3.568,-3.4389,-3.1967,-3.1967,-3.0632,-2.8301,-2.8301,-2.8741,-2.9513,-3.0068,-3.1593,-3.3502,-3.3502,-3.4362,-3.5619,-3.6216,-3.6405,-3.6405,-3.6405,-3.6405,-3.6405,-3.6405,-3.6405,-3.6405,-3.6405,-3.6405,-3.6405,-3.6405,-3.6631,-3.6933,-3.7136,-3.7663,-3.8341,-3.8818,-3.912,-3.9421,-3.9647,-3.9697,-3.9697,-3.9697,-3.9697,-3.9697,-3.9697,-3.9697,-3.9697,-3.9697,-3.9697,-3.9798,-4.0124,-3.8329,-3.6893,-3.6443,-3.4328,-3.2609,-3.1583,-3.1973,-3.2148,-3.1914,-3.293,-3.3535,-3.3535,-3.4375,-3.5019,-3.5391,-3.5625,-3.584,-3.6016,-3.6016,-3.6152,-3.6318,-3.42,-3.2176,-2.7051,-2.7109,-2.7148,-2.7695,-2.7806,-2.7826,-2.8203,-2.8066,-2.793,-2.8223,-2.8047,0.0,0.0,0.0,0.0,0.0,0.0,-2.7669,0.0,-2.7207,0.0,0.0,0.0,0.0,0.0,-3.1721,-3.3623,-3.381,-3.6245,-3.7613,-3.7211,-3.7186,-3.6935,-3.643,-3.6405,-3.6405,-3.6405,-3.6405,-3.6405,-3.6405,-3.6405,-3.4945,-3.228,-3.228,-3.0824,-2.8301,-2.8301,-2.9059,-3.0307,-3.0721,-3.2252,-3.4434,-3.4775,-3.5523,-3.6405,-3.6405,-3.6405,-3.6405,-3.6405,-3.6405,-3.6405,-3.6405,-3.6405,-3.6405,-3.6405,-3.6405,-3.6405,-3.6405,-3.6807,-3.7211,-3.7362,-3.814,-3.8969,-3.9069,-3.9396,-3.9697,-3.9697,-3.9697,-3.9697,-3.9697,-3.9697,-3.9697,-3.9697,-3.9697,-3.9697,-3.9697,-3.9697,-3.9898,-4.045,-3.8827,-3.7428,-3.6937,-3.5093,-3.3333,-3.1995,-3.2441,-3.2773,-3.2695,-3.3555,-3.4238,-3.459,-3.5234,-3.5684,-3.5918,-3.6211,-3.6367,-3.6367,-3.6367,-3.6543,-3.6836,-3.4441,-3.2667,-2.7422,-2.7344,-2.7226,-2.8066,-2.7969,-2.7826,-2.8203,-2.8281,-2.8281,-2.8301,-2.8281,-2.8281,-2.8301,-2.8301,0.0,0.0,0.0,0.0,0.0,0.0,0.0,0.0,0.0,0.0,0.0,-3.137,-3.3242,-3.3787,-3.5907,-3.7211,-3.7186,-3.7186,-3.6935,-3.643,-3.6405,-3.6405,-3.6405,-3.6405,-3.6405,-3.6405,-3.6405,-3.4945,-3.228,-3.228,-3.0824,-2.8301,-2.8301,-2.9059,-3.0411,-3.1673,-3.3105,-3.4532,-3.581,-3.6358,-3.6405,-3.6405,-3.6405,-3.6405,-3.6405,-3.6405,-3.6405,-3.6405,-3.6405,-3.6405,-3.6405,-3.6405,-3.6405,-3.6405,-3.6807,-3.7312,-3.7839,-3.8417,-3.9045,-3.9546,-3.9672,-3.9697,-3.9697,-3.9697,-3.9697,-3.9697,-3.9697,-3.9697,-3.9697,-3.9697,-3.9697,-3.9697,-3.9697,-3.9898,-4.045,-3.7856,-3.6329,-3.7291,-3.4339,-3.2385,-3.2715,-3.2773,-3.3144,-3.3965,-3.4043,-3.4648,-3.5898,-3.5996,-3.6387,-3.7226,-3.7246,-3.7266,-3.7266,-3.7266,-3.7266,-3.7195,-3.4867,-3.3999,-2.6309,-2.6289,-2.6317,-2.7226,-2.7344,-2.7422,-2.8125,-2.8301,-2.8301,-2.8301,-2.8301,-2.8301,-2.8301,-2.8301,0.0,0.0,0.0,0.0,0.0,0.0,-2.7168,0.0,0.0,0.0,0.0,0.0,-3.2474,-3.3552,-3.4818,-3.5705,-3.6081,-3.606,-3.6358,-3.6885,-3.6606,-3.6581,-3.6958,-3.6581,-3.6581,-3.6885,-3.5695,-3.4306,-3.2824,-3.157,-3.0463,-2.9597,-2.9597,-3.0927,-3.3055,-3.3502,-3.4508,-3.5763,-3.6216,-3.6405,-3.6405,-3.6405,-3.6405,-3.6405,-3.6405,-3.6405,-3.6405,-3.6405,-3.6405,-3.6405,-3.6405,-3.6656,-3.6958,-3.6958,-3.7612,-3.8341,-3.8517,-3.8994,-3.9471,-3.9647,-3.9697,-3.9697,-3.9697,-3.9697,-3.9697,-3.9697,-3.9697,-3.9697,-3.9697,-3.9998,-4.0124,-3.9747,-3.9998,-4.0425,-4.0949,-4.0463,-3.9962,-3.9545,-3.7525,-3.5791,-3.4862,-3.4067,-3.3887,-3.4453,-3.4785,-3.5137,-3.5586,-3.6152,-3.6582,-3.6875,-3.7148,-3.7305,-3.7305,-3.7305,-3.7441,-3.7715,-3.688,-3.58,-2.5869,-2.581,-2.5888,-2.6797,-2.7012,-2.7207,-2.791,-2.8184,-2.8301,-2.8301,-2.8301,-2.8301,-2.8301,-2.8301,0.0,0.0,0.0,0.0,0.0,-2.6875,-2.7344,-2.7689,-2.8047,0.0,0.0,-3.1207,-3.2286,-3.3386,-3.444,-3.5132,-3.5483,-3.5508,-3.6009,-3.7136,-3.6835,-3.691,-3.7462,-3.7136,-3.7136,-3.7462,-3.5599,-3.4167,-3.3144,-3.1709,-3.0773,-3.0307,-3.0824,-3.2303,-3.4385,-3.4385,-3.5187,-3.6405,-3.6405,-3.6405,-3.6405,-3.6405,-3.6405,-3.6405,-3.6405,-3.6405,-3.6405,-3.6405,-3.6531,-3.6707,-3.6707,-3.7036,-3.7487,-3.7487,-3.814,-3.8919,-3.8919,-3.927,-3.9697,-3.9697,-3.9697,-3.9697,-3.9697,-3.9697,-3.9697,-3.9697,-3.9848,-3.9998,-3.9998,-4.045,-4.0626,-4.0074,-4.045,-4.1003,-4.1555,-4.1469,-4.1118,-4.066,-3.9331,-3.7874,-3.6475,-3.5107,-3.4492,-3.4922,-3.5234,-3.5527,-3.584,-3.6523,-3.7031,-3.7344,-3.7617,-3.791,-3.8223,-3.791,-3.7969,-3.8379,-3.8379,-3.7552]}]]